[[{"header":{"parameterUnit":"m.s-1","parameterCategory":1,"la1":30.6,"la2":29.2853,"lo1":-89.7004,"lo2":-87.6739,"dy":0.0162,"dx":0.0183,"nx":112,"ny":82,"refTime":"2023-06-29T00:00:00:Z","depth":0,"parameterNumber":2,"parameterNumberName":"U-component_of_WINDS"},"data":[0.0,0.0,0.0,0.0,0.0,0.0,0.0,0.0,0.0,0.0,0.0,0.0,0.0,0.0,0.0,0.0,0.0,0.0,0.0,0.0,0.0,0.0,0.0,0.0,0.0,0.0,0.0,0.0,0.0,0.0,0.0,0.0,0.0,0.0,0.0,0.0,0.0,0.0,0.0,0.0,0.0,0.0,0.0,0.0,0.0,0.0,0.0,0.0,0.0,0.0,0.0,0.0,0.0,0.0,0.0,0.0,0.0,0.0,0.0,0.0,0.0,0.0,0.0,0.0,0.0,0.0,0.0,0.0,0.0,0.0,0.0,0.0,0.0,0.0,0.0,0.0,0.0,0.0,0.0,0.0,0.0,0.0,0.0,0.0,0.0,0.0,0.0,0.0,0.0,0.0,-3.4932,-3.699,-3.8671,-3.9468,-3.9023,-3.8013,-3.6805,-3.545,0.0,0.0,0.0,0.0,0.0,0.0,0.0,0.0,0.0,0.0,0.0,0.0,0.0,0.0,0.0,0.0,0.0,0.0,0.0,0.0,0.0,0.0,0.0,0.0,0.0,0.0,0.0,0.0,0.0,0.0,0.0,0.0,0.0,0.0,0.0,0.0,0.0,0.0,0.0,0.0,0.0,0.0,0.0,0.0,0.0,0.0,0.0,0.0,0.0,0.0,0.0,0.0,0.0,0.0,0.0,0.0,0.0,0.0,0.0,0.0,0.0,0.0,0.0,0.0,0.0,0.0,0.0,0.0,0.0,0.0,0.0,0.0,0.0,0.0,0.0,0.0,0.0,0.0,0.0,0.0,0.0,0.0,0.0,0.0,0.0,0.0,0.0,0.0,0.0,0.0,0.0,0.0,0.0,0.0,0.0,0.0,0.0,0.0,0.0,0.0,0.0,0.0,0.0,0.0,-3.4915,-3.7411,-3.8791,-3.9309,-3.886,-3.8302,-3.7222,-3.5386,0.0,0.0,0.0,0.0,0.0,0.0,0.0,0.0,0.0,0.0,0.0,0.0,0.0,0.0,0.0,0.0,0.0,0.0,0.0,0.0,0.0,0.0,0.0,0.0,0.0,0.0,0.0,0.0,0.0,0.0,0.0,0.0,0.0,0.0,0.0,0.0,0.0,0.0,0.0,0.0,0.0,0.0,0.0,0.0,0.0,0.0,0.0,0.0,0.0,0.0,0.0,0.0,0.0,0.0,0.0,0.0,0.0,0.0,0.0,0.0,0.0,0.0,0.0,0.0,0.0,0.0,0.0,0.0,0.0,0.0,0.0,0.0,0.0,0.0,0.0,0.0,0.0,0.0,0.0,0.0,0.0,0.0,0.0,0.0,0.0,0.0,0.0,0.0,0.0,0.0,0.0,0.0,0.0,0.0,0.0,0.0,0.0,0.0,0.0,0.0,0.0,0.0,0.0,-3.5181,-3.6452,-3.759,-3.8688,-3.9202,-3.875,-3.8286,-3.7163,-3.5329,-3.3153,0.0,0.0,0.0,0.0,0.0,0.0,0.0,0.0,0.0,0.0,0.0,0.0,0.0,0.0,0.0,0.0,0.0,0.0,0.0,0.0,0.0,0.0,0.0,0.0,0.0,0.0,0.0,0.0,0.0,0.0,0.0,0.0,0.0,0.0,0.0,0.0,0.0,0.0,0.0,0.0,0.0,0.0,0.0,0.0,0.0,0.0,0.0,0.0,0.0,0.0,0.0,0.0,0.0,0.0,0.0,0.0,0.0,0.0,0.0,0.0,0.0,0.0,0.0,0.0,0.0,0.0,0.0,0.0,0.0,0.0,0.0,0.0,0.0,0.0,0.0,0.0,0.0,0.0,0.0,0.0,0.0,0.0,0.0,0.0,0.0,0.0,0.0,0.0,0.0,0.0,0.0,0.0,0.0,0.0,0.0,0.0,0.0,0.0,0.0,0.0,0.0,0.0,-3.6129,-3.7725,-3.7483,-3.8517,-3.904,-3.8511,-3.8132,-3.7064,-3.5216,-3.328,0.0,0.0,0.0,0.0,0.0,0.0,0.0,0.0,0.0,0.0,0.0,0.0,0.0,0.0,0.0,0.0,0.0,0.0,0.0,0.0,0.0,0.0,0.0,0.0,0.0,0.0,0.0,0.0,0.0,0.0,0.0,0.0,0.0,0.0,0.0,0.0,0.0,0.0,0.0,0.0,0.0,0.0,0.0,0.0,0.0,0.0,0.0,0.0,0.0,0.0,0.0,0.0,0.0,0.0,0.0,0.0,0.0,0.0,0.0,0.0,0.0,0.0,0.0,0.0,0.0,0.0,0.0,0.0,0.0,0.0,0.0,0.0,0.0,0.0,0.0,0.0,0.0,0.0,0.0,0.0,0.0,0.0,0.0,0.0,0.0,0.0,0.0,0.0,0.0,0.0,0.0,0.0,0.0,0.0,0.0,0.0,0.0,0.0,0.0,0.0,0.0,0.0,-3.5994,-3.7597,-3.7086,-3.8256,-3.8788,-3.8173,-3.786,-3.6864,-3.4887,-3.3111,0.0,0.0,0.0,0.0,0.0,0.0,0.0,0.0,0.0,0.0,0.0,0.0,0.0,0.0,0.0,0.0,0.0,0.0,0.0,0.0,0.0,0.0,0.0,0.0,0.0,0.0,0.0,0.0,0.0,0.0,0.0,0.0,0.0,0.0,0.0,0.0,0.0,0.0,0.0,0.0,0.0,0.0,0.0,0.0,0.0,0.0,0.0,0.0,0.0,0.0,0.0,0.0,0.0,0.0,0.0,0.0,0.0,0.0,0.0,0.0,0.0,0.0,0.0,0.0,0.0,0.0,0.0,0.0,0.0,0.0,0.0,0.0,0.0,0.0,0.0,0.0,0.0,0.0,0.0,0.0,0.0,0.0,0.0,0.0,0.0,0.0,0.0,0.0,0.0,0.0,0.0,0.0,0.0,0.0,0.0,0.0,0.0,0.0,0.0,0.0,0.0,0.0,-3.5673,-3.7236,0.0,-3.8007,-3.8432,-3.8001,-3.7594,-3.6554,-3.467,0.0,0.0,0.0,0.0,0.0,0.0,0.0,0.0,0.0,0.0,0.0,0.0,0.0,0.0,0.0,0.0,0.0,0.0,0.0,0.0,0.0,0.0,0.0,0.0,0.0,0.0,0.0,0.0,0.0,0.0,0.0,0.0,0.0,0.0,0.0,0.0,0.0,0.0,0.0,0.0,0.0,0.0,0.0,0.0,0.0,0.0,0.0,0.0,0.0,0.0,0.0,0.0,0.0,0.0,0.0,0.0,0.0,0.0,0.0,0.0,0.0,0.0,0.0,0.0,0.0,0.0,0.0,0.0,0.0,0.0,0.0,0.0,0.0,0.0,0.0,0.0,0.0,0.0,0.0,0.0,0.0,0.0,0.0,0.0,0.0,0.0,0.0,0.0,0.0,0.0,0.0,0.0,0.0,0.0,0.0,0.0,0.0,0.0,0.0,0.0,0.0,0.0,-3.3194,-3.5421,-3.6934,0.0,-3.7737,-3.8205,-3.777,-3.7342,-3.6344,-3.4537,0.0,0.0,0.0,0.0,0.0,0.0,0.0,0.0,0.0,0.0,0.0,0.0,0.0,0.0,0.0,0.0,0.0,0.0,0.0,0.0,0.0,0.0,0.0,0.0,0.0,0.0,0.0,0.0,0.0,0.0,0.0,0.0,0.0,0.0,0.0,0.0,0.0,0.0,0.0,0.0,0.0,0.0,0.0,0.0,0.0,0.0,0.0,0.0,0.0,0.0,0.0,0.0,0.0,0.0,0.0,0.0,0.0,0.0,0.0,0.0,0.0,0.0,0.0,0.0,0.0,0.0,0.0,0.0,0.0,0.0,0.0,0.0,0.0,0.0,0.0,0.0,0.0,0.0,0.0,0.0,0.0,0.0,0.0,0.0,0.0,0.0,0.0,0.0,0.0,0.0,0.0,0.0,0.0,0.0,0.0,0.0,0.0,0.0,0.0,0.0,0.0,0.0,-3.2729,-3.5199,-3.6781,-3.6238,-3.7533,-3.8148,-3.7476,-3.7087,-3.6149,0.0,0.0,0.0,0.0,0.0,0.0,0.0,0.0,0.0,0.0,0.0,0.0,0.0,0.0,0.0,0.0,0.0,0.0,0.0,0.0,0.0,0.0,0.0,0.0,0.0,0.0,0.0,0.0,0.0,0.0,0.0,0.0,0.0,0.0,0.0,0.0,0.0,0.0,0.0,0.0,0.0,0.0,0.0,0.0,0.0,0.0,0.0,0.0,0.0,0.0,0.0,0.0,0.0,0.0,0.0,0.0,0.0,0.0,0.0,0.0,0.0,0.0,0.0,0.0,0.0,0.0,0.0,0.0,0.0,0.0,0.0,0.0,0.0,0.0,0.0,0.0,0.0,0.0,0.0,0.0,0.0,0.0,0.0,0.0,0.0,0.0,0.0,0.0,0.0,0.0,0.0,0.0,0.0,0.0,0.0,0.0,0.0,0.0,0.0,0.0,0.0,0.0,0.0,-3.2729,-3.4874,-3.6397,-3.6238,-3.711,-3.761,-3.7298,-3.6892,-3.583,-3.4016,0.0,0.0,0.0,0.0,0.0,0.0,0.0,0.0,0.0,0.0,0.0,0.0,0.0,0.0,0.0,0.0,0.0,0.0,0.0,0.0,0.0,0.0,0.0,0.0,0.0,0.0,0.0,0.0,0.0,0.0,0.0,0.0,0.0,0.0,0.0,0.0,0.0,0.0,0.0,0.0,0.0,0.0,0.0,0.0,0.0,0.0,0.0,0.0,0.0,0.0,0.0,0.0,0.0,0.0,0.0,0.0,0.0,0.0,0.0,0.0,0.0,0.0,0.0,0.0,0.0,0.0,0.0,0.0,0.0,0.0,0.0,0.0,0.0,0.0,0.0,0.0,0.0,0.0,0.0,0.0,0.0,0.0,0.0,0.0,0.0,0.0,0.0,0.0,0.0,0.0,0.0,0.0,0.0,0.0,0.0,0.0,0.0,0.0,0.0,0.0,0.0,0.0,-3.2413,-3.4624,-3.6131,-3.5899,-3.6753,-3.7298,-3.6952,-3.6538,-3.5658,-3.4149,0.0,0.0,0.0,0.0,0.0,0.0,0.0,0.0,0.0,0.0,0.0,0.0,0.0,0.0,0.0,0.0,0.0,0.0,0.0,0.0,0.0,0.0,0.0,0.0,0.0,0.0,0.0,0.0,0.0,0.0,0.0,0.0,0.0,0.0,0.0,0.0,0.0,0.0,0.0,0.0,0.0,0.0,0.0,0.0,0.0,0.0,0.0,0.0,0.0,0.0,0.0,0.0,0.0,0.0,0.0,0.0,0.0,0.0,0.0,0.0,0.0,0.0,0.0,0.0,0.0,0.0,0.0,0.0,0.0,0.0,0.0,0.0,0.0,0.0,0.0,0.0,0.0,0.0,0.0,0.0,0.0,0.0,0.0,0.0,0.0,0.0,0.0,0.0,0.0,0.0,0.0,0.0,0.0,0.0,0.0,0.0,0.0,0.0,0.0,0.0,0.0,0.0,-3.219,-3.4452,-3.5915,-3.5482,-3.6553,-3.7058,-3.6554,-3.6163,-3.5495,-3.4517,0.0,0.0,0.0,0.0,0.0,0.0,0.0,0.0,0.0,0.0,0.0,0.0,0.0,0.0,0.0,0.0,0.0,0.0,0.0,0.0,0.0,0.0,0.0,0.0,0.0,0.0,0.0,0.0,0.0,0.0,0.0,0.0,0.0,0.0,0.0,0.0,0.0,0.0,0.0,0.0,0.0,0.0,0.0,0.0,0.0,0.0,0.0,0.0,0.0,0.0,0.0,0.0,0.0,0.0,0.0,0.0,0.0,0.0,0.0,0.0,-4.1501,0.0,0.0,0.0,0.0,0.0,0.0,0.0,0.0,0.0,0.0,0.0,0.0,0.0,0.0,0.0,0.0,0.0,0.0,0.0,0.0,0.0,0.0,0.0,0.0,0.0,0.0,0.0,0.0,0.0,0.0,0.0,0.0,0.0,0.0,0.0,0.0,0.0,0.0,0.0,0.0,0.0,-3.3401,-3.4627,-3.5665,-3.6137,-3.6469,-3.6662,-3.6492,-3.594,-3.5205,-3.4135,-3.3089,0.0,0.0,0.0,0.0,0.0,0.0,0.0,0.0,0.0,0.0,0.0,0.0,0.0,0.0,0.0,0.0,0.0,0.0,0.0,0.0,0.0,0.0,0.0,0.0,0.0,0.0,0.0,0.0,0.0,0.0,0.0,0.0,0.0,0.0,0.0,0.0,0.0,0.0,0.0,0.0,0.0,0.0,0.0,0.0,0.0,0.0,0.0,0.0,0.0,0.0,0.0,0.0,0.0,0.0,0.0,0.0,0.0,0.0,0.0,0.0,-4.2427,0.0,0.0,0.0,0.0,0.0,0.0,0.0,0.0,0.0,0.0,0.0,0.0,0.0,0.0,0.0,0.0,0.0,0.0,0.0,0.0,0.0,0.0,0.0,0.0,0.0,0.0,0.0,0.0,0.0,0.0,0.0,0.0,0.0,0.0,0.0,0.0,0.0,0.0,0.0,0.0,-3.3479,-3.4603,-3.5487,-3.5845,-3.626,-3.6367,-3.6067,-3.5619,-3.5014,-3.4266,-3.3165,0.0,0.0,0.0,0.0,0.0,0.0,0.0,0.0,0.0,0.0,0.0,0.0,0.0,0.0,0.0,0.0,0.0,0.0,0.0,0.0,0.0,0.0,0.0,0.0,0.0,0.0,0.0,0.0,0.0,0.0,0.0,0.0,0.0,0.0,0.0,0.0,0.0,0.0,0.0,0.0,0.0,0.0,0.0,0.0,0.0,0.0,0.0,0.0,0.0,0.0,0.0,0.0,0.0,0.0,-4.8087,-4.8199,-4.7942,-4.7751,-4.7491,-4.5299,-4.363,-4.2436,0.0,0.0,0.0,0.0,0.0,0.0,0.0,0.0,0.0,0.0,0.0,0.0,0.0,0.0,0.0,0.0,0.0,0.0,0.0,0.0,0.0,0.0,0.0,0.0,0.0,-3.6505,-3.6324,0.0,0.0,0.0,0.0,0.0,0.0,0.0,0.0,0.0,0.0,0.0,0.0,-3.3439,-3.4565,-3.5373,-3.5598,-3.6014,-3.6115,-3.5569,-3.5228,-3.4883,-3.4414,-3.3268,-3.2224,0.0,0.0,0.0,0.0,0.0,0.0,0.0,0.0,0.0,0.0,0.0,0.0,0.0,0.0,0.0,0.0,0.0,0.0,0.0,0.0,0.0,0.0,0.0,0.0,0.0,0.0,0.0,0.0,0.0,0.0,0.0,0.0,-3.8335,-3.8573,0.0,0.0,0.0,0.0,0.0,0.0,0.0,0.0,0.0,0.0,0.0,0.0,0.0,0.0,-4.7999,-4.8037,-4.8082,-4.813,-4.8048,-4.8355,-4.9022,-4.8819,-4.8625,-4.842,-4.7937,0.0,-4.4957,-4.4177,0.0,0.0,0.0,0.0,0.0,0.0,0.0,0.0,0.0,0.0,0.0,0.0,0.0,0.0,0.0,0.0,0.0,0.0,0.0,0.0,0.0,0.0,-3.6771,-3.6768,-3.668,-3.6512,0.0,-3.5053,-3.4218,-3.4121,0.0,0.0,0.0,0.0,0.0,0.0,0.0,0.0,-3.4513,-3.5124,-3.5613,-3.6276,-3.5943,-3.5569,-3.5504,-3.4883,-3.4414,-3.4128,-3.3078,-3.1968,-3.0989,-2.998,0.0,0.0,0.0,0.0,0.0,0.0,0.0,0.0,0.0,0.0,0.0,0.0,0.0,0.0,0.0,0.0,0.0,0.0,0.0,0.0,0.0,0.0,0.0,0.0,0.0,0.0,0.0,0.0,0.0,-3.8902,-4.0181,-4.067,-4.15,-4.2031,0.0,0.0,0.0,0.0,0.0,0.0,0.0,0.0,0.0,-4.7514,-4.7932,-4.8688,-4.9899,-4.9885,-5.0283,-5.1101,-5.049,-5.0353,-5.0634,-4.9907,-4.948,-4.933,-4.9183,-4.8273,-4.6825,-4.5898,-4.4869,-4.3826,0.0,0.0,0.0,0.0,0.0,-4.1212,-4.1026,0.0,0.0,0.0,0.0,0.0,0.0,0.0,0.0,0.0,0.0,0.0,0.0,0.0,0.0,-3.7806,-3.7726,-3.7601,-3.7452,-3.6589,-3.5732,0.0,-3.432,-3.3425,-3.3188,0.0,0.0,0.0,0.0,0.0,-3.505,-3.526,-3.5477,-3.5864,-3.5699,-3.5294,-3.4898,-3.4616,-3.421,-3.366,-3.3045,-3.2264,-3.1185,-3.0228,-2.916,0.0,0.0,0.0,0.0,0.0,0.0,0.0,0.0,0.0,0.0,0.0,0.0,0.0,0.0,0.0,0.0,0.0,0.0,0.0,0.0,0.0,0.0,0.0,0.0,0.0,0.0,0.0,0.0,-4.0465,-4.1768,-4.263,-4.3308,-4.3707,0.0,0.0,0.0,0.0,0.0,0.0,-4.6777,-4.7078,-4.7866,-4.9322,-4.9557,-5.0303,-5.1657,-5.1663,-5.2214,-5.3281,-5.2358,-5.1873,-5.1765,-5.0612,-5.0031,-4.9879,-4.9778,-4.9157,-4.8226,-4.7225,-4.6209,-4.521,-4.4217,-4.3742,0.0,-4.2438,-4.2235,-4.2472,-4.2101,-4.1754,-4.1366,-4.061,0.0,-3.9473,-3.8785,0.0,0.0,0.0,0.0,-3.7884,-3.8242,0.0,-3.8236,-3.8502,-3.8464,-3.8294,-3.8107,-3.7518,-3.6813,0.0,-3.5448,-3.4791,-3.4502,0.0,0.0,0.0,0.0,-3.4306,-3.5186,-3.5309,-3.5332,-3.5444,-3.5294,-3.503,-3.4481,-3.421,-3.3868,-3.3312,-3.3016,-3.2384,-3.1314,-3.0355,-2.9393,-2.8399,0.0,0.0,0.0,0.0,0.0,0.0,0.0,0.0,0.0,0.0,0.0,0.0,0.0,0.0,0.0,0.0,0.0,0.0,0.0,0.0,0.0,0.0,0.0,0.0,0.0,0.0,0.0,0.0,0.0,-4.3525,-4.3665,0.0,0.0,0.0,0.0,-4.6046,-4.6178,-4.6892,-4.8586,-4.9449,-5.0284,-5.1145,-5.192,-5.2686,-5.3463,-5.346,-5.341,-5.3281,-5.2358,-5.1873,-5.1765,-5.0612,-5.0031,-4.9879,-4.9778,-4.9476,-4.9067,-4.8044,-4.7043,-4.6096,-4.5644,-4.536,-4.5091,-4.4057,-4.34,-4.2943,-4.2253,-4.1666,-4.1192,-4.1157,-4.0348,-3.9375,-3.9052,-3.8856,0.0,0.0,-3.8783,-3.9172,-3.9028,-3.8772,-3.8528,-3.8448,-3.8294,-3.8107,-3.7833,-3.7535,-3.7164,0.0,-3.5774,-3.5156,-3.4904,0.0,-3.4512,-3.4368,-3.4833,-3.511,-3.5033,-3.5311,-3.5474,-3.5504,-3.4883,-3.4414,-3.4414,-3.373,-3.3326,-3.3326,-3.2602,-3.1983,-3.1314,-3.0214,-2.9197,-2.8399,-2.7472,0.0,0.0,0.0,0.0,0.0,0.0,0.0,0.0,0.0,0.0,0.0,0.0,0.0,0.0,0.0,0.0,0.0,0.0,0.0,0.0,0.0,0.0,0.0,0.0,0.0,0.0,0.0,0.0,-4.4363,-4.5004,0.0,-4.6161,-4.6208,-4.6699,-4.7889,-4.7963,-4.846,-4.9575,-5.045,-5.1297,-5.2119,-5.2913,-5.3708,-5.4492,-5.4463,-5.461,-5.4958,-5.3456,-5.2681,-5.2532,-5.086,-5.0031,-4.9879,-4.9778,-4.9514,-4.916,-4.8695,-4.7877,-4.6926,-4.6522,-4.5942,-4.5233,-4.4759,-4.3935,-4.3067,-4.2697,-4.199,-4.1163,-4.0836,-4.0394,-3.9946,-3.9648,-3.9514,-3.9292,-3.9032,-3.9056,-3.904,-3.8838,-3.8616,-3.8448,-3.8294,-3.7976,-3.7669,-3.7551,-3.7329,-3.7027,-3.6535,-3.6032,-3.5607,-3.5344,-3.484,-3.4509,-3.4774,-3.4758,-3.4826,-3.5277,-3.5195,-3.5016,-3.4817,-3.4549,-3.421,-3.373,-3.3466,-3.31,-3.2602,-3.2327,-3.1766,-3.073,-2.986,-2.9,-2.8135,-2.7212,-2.638,0.0,0.0,0.0,0.0,0.0,0.0,0.0,0.0,0.0,0.0,0.0,0.0,0.0,0.0,0.0,0.0,0.0,0.0,0.0,0.0,0.0,0.0,0.0,0.0,0.0,0.0,-4.4371,-4.5234,-4.6158,-4.694,-4.7517,-4.7842,-4.8396,-4.9238,-4.9294,-4.9793,-5.091,-5.1508,-5.2318,-5.3447,-5.3974,-5.4614,-5.543,-5.537,-5.5401,-5.5477,-5.3957,-5.3009,-5.2551,-5.0885,-5.0057,-4.9879,-4.9778,-4.9514,-4.9179,-4.8978,-4.847,-4.7757,-4.7346,-4.6779,-4.5992,-4.5222,-4.4346,-4.3377,-4.259,-4.181,-4.1024,-4.0614,-4.0387,-4.0188,-3.9884,-3.9729,-3.952,-3.9255,-3.904,-3.8821,-3.8616,-3.8448,-3.8278,-3.8065,-3.7743,-3.7417,-3.7358,-3.7089,-3.6754,-3.6554,-3.6291,-3.5981,-3.5692,-3.5232,-3.4897,-3.5135,-3.488,-3.4837,-3.5234,-3.4949,-3.4668,-3.4414,-3.421,-3.3799,-3.3312,-3.31,-3.2745,-3.2241,-3.1906,-3.1248,-3.0342,-2.9379,-2.8511,-2.7774,-2.6936,-2.604,-2.5142,0.0,0.0,0.0,0.0,0.0,0.0,0.0,0.0,0.0,0.0,0.0,0.0,0.0,0.0,0.0,0.0,0.0,0.0,0.0,0.0,0.0,0.0,0.0,-4.3228,-4.4314,-4.5219,-4.6098,-4.6969,-4.7504,-4.7545,-4.8382,-4.9273,-5.0078,-5.0134,-5.0889,-5.2619,-5.2665,-5.3423,-5.5159,-5.516,-5.5519,-5.6302,-5.6199,-5.5672,-5.4703,-5.3706,-5.2761,-5.1746,-5.0684,-5.0089,-4.9898,-4.9778,-4.9495,-4.9141,-4.894,-4.873,-4.8477,-4.8132,-4.787,-4.744,-4.5558,-4.4581,-4.3961,-4.1915,-4.1041,-4.0823,-4.0583,-4.0337,-4.002,-3.9781,-3.952,-3.9272,-3.9023,-3.8821,-3.8576,-3.8464,-3.8278,-3.8123,-3.7759,-3.7567,-3.7358,-3.7194,-3.6846,-3.6492,-3.6492,-3.6492,-3.6367,-3.6037,-3.5831,-3.5638,-3.5489,-3.5294,0.0,-3.4935,-3.4601,-3.4414,-3.4346,-3.3716,-3.3297,-3.3227,-3.2676,-3.2304,-3.2114,-3.12,-3.0506,-3.0032,-2.8763,-2.7901,-2.7583,-2.6671,-2.5721,-2.484,0.0,0.0,0.0,0.0,0.0,0.0,0.0,0.0,0.0,0.0,0.0,0.0,0.0,0.0,0.0,0.0,0.0,0.0,0.0,0.0,0.0,0.0,-4.2807,-4.3403,-4.4268,-4.517,-4.6091,-4.6969,-4.7749,-4.8372,-4.9247,-5.0119,-5.0972,-5.1035,-5.1521,-5.2646,-5.3272,-5.4108,-5.5178,-5.5762,-5.6154,-5.6375,-5.563,-5.5068,-5.4697,-5.3107,-5.2164,-5.1746,-5.0684,-5.0114,-4.9978,-4.9778,-4.9205,-4.8396,-4.8151,-4.7562,-4.6945,-4.7693,-4.7525,-4.6757,-4.5971,-4.4574,-4.2893,-4.1649,-4.0931,-4.0583,-4.0534,-4.0238,-3.9935,-3.9729,-3.952,-3.9218,-3.8914,-3.8711,-3.8576,-3.8351,-3.8107,-3.7876,-3.7551,-3.727,-3.7044,-3.6723,-3.6476,-3.6211,-3.5958,-3.5861,-3.5748,-3.5619,-3.5619,-3.5409,-3.5133,0.0,0.0,-3.4549,-3.4332,-3.3991,-3.366,-3.3028,-3.2485,-3.2096,-3.139,-3.0783,-3.0445,-2.9945,-2.9385,-2.8672,-2.8055,-2.736,-2.6634,-2.6054,-2.5615,0.0,0.0,0.0,0.0,0.0,0.0,0.0,0.0,0.0,0.0,0.0,0.0,0.0,0.0,0.0,0.0,0.0,0.0,0.0,0.0,0.0,0.0,-4.2343,-4.3766,-4.3947,-4.4741,-4.5522,-4.6044,-4.7233,-4.8197,-4.8716,-4.9894,-5.0852,-5.1349,-5.1404,-5.1933,-5.3179,-5.3728,-5.4543,-5.5705,-5.616,-5.6213,-5.5861,-5.523,-5.4478,-5.3685,-5.2564,-5.178,-5.1272,-5.0578,-4.9967,0.0,-4.923,-4.8558,-4.7517,-4.7313,-4.6783,0.0,0.0,0.0,0.0,0.0,-4.3625,-4.202,-4.1411,-4.0884,-4.0485,-4.0485,-4.0188,-3.9781,-3.9729,-3.9415,-3.904,-3.886,-3.86,-3.8391,-3.8107,-3.786,-3.761,-3.7358,-3.7089,-3.68,-3.6554,-3.6289,-3.6022,-3.5653,0.0,0.0,-3.5177,-3.5228,-3.5148,-3.4735,-3.4616,-3.4496,0.0,-3.3693,-3.3249,-3.2987,-3.2151,-3.1515,-3.1102,-3.0568,0.0,0.0,0.0,-2.8425,-2.7429,-2.7139,0.0,0.0,0.0,-2.5875,0.0,0.0,0.0,0.0,-2.55,-2.5851,0.0,0.0,0.0,0.0,0.0,0.0,0.0,0.0,0.0,0.0,0.0,0.0,0.0,0.0,0.0,0.0,-4.2835,-4.4386,-4.4675,-4.544,-4.5986,-4.5997,-4.7601,-4.8702,-4.8709,-5.0327,-5.139,-5.1394,-5.14,-5.2129,-5.3767,0.0,0.0,0.0,0.0,-5.5745,-5.4966,-5.4718,-5.3843,-5.2298,-5.2058,-5.1472,-5.0603,-5.0298,-4.9673,-4.8789,-4.8445,-4.7673,-4.6667,-4.6475,-4.619,-4.5858,-4.5534,-4.5303,-4.4935,-4.3504,-4.2317,0.0,0.0,0.0,0.0,-4.0485,-4.0121,-3.9661,-3.9577,-3.9172,-3.8788,-3.8707,-3.8423,-3.8164,-3.7934,-3.7669,-3.7358,-3.7194,-3.6892,-3.66,-3.6492,-3.6163,-3.5846,-3.5554,-3.5294,-3.5082,-3.4698,-3.475,-3.4735,-3.4414,-3.4346,0.0,-3.3782,-3.2928,-3.2328,-3.219,0.0,0.0,-3.0256,-2.9996,-2.9624,-2.9149,-2.8512,-2.7636,-2.644,-2.6245,-2.6005,-2.5703,-2.6093,-2.6226,-2.592,-2.632,-2.6353,-2.6093,-2.5779,-2.6136,0.0,0.0,0.0,0.0,0.0,0.0,0.0,0.0,0.0,0.0,0.0,0.0,0.0,0.0,0.0,-4.3063,-4.392,-4.4564,-4.5291,-4.566,-4.5893,-4.5986,-4.7552,-4.8652,-4.8682,-5.0297,-5.1341,-5.139,-5.1394,-5.1853,-5.289,-5.2945,0.0,-5.4376,-5.4385,-5.4281,-5.4051,-5.3261,-5.2685,-5.2298,0.0,0.0,-5.0584,-4.9729,-4.9171,-4.8846,-4.7894,-4.6883,-4.5913,-4.5711,-4.492,-4.3887,-4.4251,-4.4195,-4.3804,-4.2654,-4.1877,-4.138,-4.1255,-4.0884,-4.0485,-4.0387,-4.0037,-3.956,-3.8716,-3.8616,0.0,-3.7976,-3.7978,-3.8164,-3.7934,-3.7669,-3.7373,-3.7105,-3.68,-3.6492,-3.6163,-3.5894,-3.5638,-3.5344,-3.5082,-3.4868,-3.4549,-3.4481,-3.4414,-3.4196,-3.4088,-3.3696,-3.2814,-3.2495,-3.2038,-3.1103,-3.0228,-2.9659,-2.9457,-2.8732,-2.8119,-2.7863,-2.7191,-2.6609,-2.627,-2.5898,-2.5883,-2.625,-2.5996,-2.6113,-2.6467,-2.6194,-2.6298,-2.6537,-2.6511,-2.6503,0.0,0.0,0.0,0.0,0.0,0.0,0.0,0.0,0.0,0.0,0.0,-3.9702,0.0,0.0,-4.2406,-4.3827,-4.4461,-4.4997,-4.5528,-4.5651,-4.5742,-4.5873,-4.7497,-4.8612,-4.866,-5.026,-5.1336,-5.1391,-5.1398,-5.1787,-5.2656,-5.2694,-5.3073,-5.3923,-5.3916,-5.3654,-5.3157,-5.2675,-5.2195,-5.1693,-5.1125,-5.0582,-5.0048,-4.9407,-4.8563,-4.76,-4.698,-4.6108,-4.5125,-4.4792,-4.4118,-4.3304,-4.3449,-4.3343,-4.301,-4.2257,-4.1815,-4.1471,-4.1255,-4.0884,-4.0417,-3.9895,-3.9496,-3.894,-3.7934,-3.7725,-3.7605,-3.7085,-3.6922,-3.6934,-3.6821,-3.6717,-3.6617,-3.6453,-3.6414,-3.6289,-3.6037,-3.5782,-3.5459,-3.5148,-3.4802,-3.4534,-3.4278,-3.4142,-3.3937,-3.3868,-3.3744,-3.3295,-3.2372,-3.1832,-3.1211,-3.02,-2.9387,-2.8824,-2.8492,-2.7827,-2.7323,-2.7121,-2.6589,-2.6245,-2.6062,-2.5758,-2.579,-2.6105,-2.616,-2.6328,-2.6616,-2.6729,-2.6827,-2.691,-2.6829,-2.6841,0.0,0.0,0.0,0.0,0.0,0.0,0.0,-3.8145,-3.9019,-3.9682,-4.0589,-4.1553,-4.2418,-4.317,-4.3798,-4.4102,-4.4817,-4.5359,-4.5514,-4.5587,-4.5712,-4.5954,-4.7521,-4.8646,-4.8826,-5.0334,-5.1308,-5.1382,-5.1396,-5.1717,-5.2419,-5.2441,-5.2767,-5.3467,-5.3445,-5.3033,-5.2269,-5.2251,-5.1874,-5.1114,-5.096,-5.0422,-4.9507,-4.9065,-4.7977,-4.637,-4.5994,-4.5308,-4.4524,-4.4085,-4.3682,-4.3321,-4.3032,-4.2786,-4.257,-4.2157,-4.1815,-4.1542,-4.1143,-4.0676,-4.0144,-3.9231,-3.867,-3.8187,-3.7136,-3.6767,-3.6607,-3.6198,-3.5927,-3.5767,-3.5602,-3.5603,-3.5661,-3.5618,-3.5721,-3.5797,-3.5746,-3.5473,-3.521,-3.4986,-3.4601,-3.4346,-3.4074,-3.3799,-3.3605,-3.3536,-3.3283,-3.2765,-3.1916,-3.1061,-3.0187,-2.936,-2.8648,-2.8105,-2.7723,-2.7268,-2.6875,-2.6645,-2.6327,-2.6062,-2.5828,-2.5606,-2.5624,-2.5979,-2.6332,-2.6611,-2.6827,-2.7244,-2.729,-2.7149,-2.6985,-2.6974,-3.3998,-3.4661,-3.5665,-3.727,-3.7734,-3.7995,0.0,-3.9629,-4.0336,-4.0517,-4.1278,-4.2183,-4.3043,-4.3466,-4.3952,-4.4697,-4.509,-4.5317,-4.5338,-4.5477,-4.5873,-4.6604,-4.7716,-4.8767,-4.9668,-5.0646,-5.1239,-5.13,-5.1366,-5.1441,-5.1548,-5.1541,-5.1599,-5.1681,-5.1683,-5.1609,-5.1437,-5.1386,-5.1253,-5.1114,-5.0952,-5.04,-4.9468,-4.8529,-4.7488,-4.6332,-4.5249,-4.4645,-4.4383,-4.4055,-4.3734,-4.3444,-4.3196,-4.2899,-4.257,-4.2157,-4.1815,-4.1455,-4.0533,-3.9899,-3.9327,-3.8306,-3.778,-3.7369,-3.6124,-3.6219,-3.6492,-3.5425,-3.5433,-3.5767,-3.5506,-3.52,-3.4961,-3.4685,-3.4451,-3.4364,-3.4755,-3.4562,-3.4486,-3.4817,-3.4601,-3.4278,-3.3951,-3.3744,-3.3536,-3.3396,-3.2695,-3.1902,-3.0979,-3.0294,-2.9531,-2.8527,-2.8224,-2.7934,-2.7403,-2.6998,-2.6645,-2.6427,-2.6107,-2.5828,-2.5606,-2.5324,-2.5588,-2.6502,-2.6218,-2.6488,-2.7429,-2.7103,-2.6974,-2.6891,-2.6727,-2.6727,-3.4311,-3.5147,-3.6159,-3.7321,-3.8014,-3.8514,-3.8876,-3.9666,-4.0494,-4.1092,-4.1922,-4.2829,-4.382,-4.4097,-4.4316,0.0,-4.4967,-4.5103,-4.5233,-4.5339,-4.5956,-4.7394,-4.7946,-4.8655,-4.9673,-5.06,-5.1201,-5.1292,-5.133,-5.1366,-5.1398,-5.1398,-5.1406,-5.14,-5.1402,-5.1372,-5.1303,-5.1267,-5.12,-5.1081,-5.0491,-4.9711,-4.8767,-4.7759,-4.6682,-4.5555,-4.4972,-4.4605,-4.4383,-4.4067,-4.3814,-4.3493,-4.2704,-4.223,-4.1965,-4.1586,-4.1213,-4.0832,-3.98,-3.9122,-3.8525,-3.7572,-3.7101,-3.6649,-3.5415,-3.5218,-3.5248,-3.4481,-3.4402,-3.4484,-3.4123,-3.4203,-3.4219,-3.3917,-3.3918,-3.4001,-3.4014,-3.3716,-3.3657,-3.4097,-3.3833,-3.3643,-3.3825,-3.3521,-3.3143,-3.3002,-3.2347,-3.1668,-3.0829,-2.9997,-2.9106,-2.8092,-2.7789,-2.7482,-2.7146,-2.6782,-2.644,-2.6314,-2.5898,-2.5618,-2.5453,-2.5182,-2.5467,-2.623,-2.61,-2.6366,-2.7126,-2.6974,-2.6809,-2.6727,-2.6479,-2.6396,-3.474,-3.5672,-3.6595,-3.7449,-3.8169,-3.867,-3.8713,-3.943,-4.0381,-4.1285,-4.2192,-4.3178,-4.4175,-4.4411,-4.4477,-4.4667,-4.477,-4.4895,-4.5103,-4.5382,-4.6199,-4.7818,-4.8279,-4.885,-4.9877,-5.0629,-5.1117,-5.1239,-5.1284,-5.133,-5.1362,-5.1385,-5.1402,-5.1406,-5.1394,-5.1386,-5.133,-5.13,-5.1123,-5.0767,-5.0061,-4.9093,-4.7905,-4.6876,-4.5932,-4.5057,-4.487,-4.4659,-4.4393,-4.3886,-4.3526,-4.314,-4.2044,-4.147,-4.1194,-4.0596,-4.0329,-4.0067,-3.9023,-3.8355,-3.7769,-3.6899,-3.6388,-3.5914,-3.5,-3.4594,-3.4399,-3.3848,-3.3694,-3.3607,-3.315,-3.3326,-3.3519,-3.3095,-3.3233,-3.3425,-3.3185,-3.2924,-3.2867,-3.3308,-3.3114,-3.3068,-3.3485,-3.3255,-3.2917,-3.2704,-3.2122,-3.1391,-3.061,-2.9511,-2.8532,-2.7828,-2.7403,-2.7146,-2.6943,-2.6589,-2.6314,-2.6131,-2.5758,-2.5465,-2.5241,-2.5052,-2.526,-2.6012,-2.587,-2.6221,-2.6891,-2.6809,-2.6644,-2.6479,-2.6229,-2.6157,-3.5253,-3.6143,-3.7087,-3.802,-3.8289,-3.8354,-3.8478,-3.9232,-4.0152,-4.1038,-4.2007,-4.2977,-4.3856,-4.4121,-4.4269,-4.4468,-4.4632,-4.4745,-4.4895,-4.5745,-4.6721,-4.7707,-4.8719,-4.9702,0.0,-5.0867,-5.103,-5.1105,-5.123,-5.1296,-5.1297,-5.1362,-5.1391,-5.1406,-5.1403,-5.1408,-5.1396,-5.133,-5.0839,-4.9945,-4.985,-4.8839,-4.6997,-4.5936,-4.5337,-4.517,-4.4919,-4.4667,-4.443,-4.3359,-4.2736,-4.2345,-4.1321,-4.0722,-4.0293,-3.9262,-3.9096,-3.9288,-3.8203,-3.7603,-3.7151,-3.6178,-3.5599,-3.5261,-3.4851,-3.4594,-3.4399,-3.3848,-3.3694,-3.3607,-3.3043,-3.2928,-3.2765,-3.2196,-3.2042,-3.211,-3.2318,-3.2211,-3.2129,-3.2445,-3.2745,-3.2858,-3.278,-3.2904,-3.2917,-3.2704,-3.1938,-3.0999,-3.0239,-2.8798,-2.7736,-2.7523,-2.7214,-2.6943,-2.6726,-2.6396,-2.6131,-2.591,-2.5535,-2.5241,-2.5111,-2.4706,-2.4978,-2.6012,-2.5638,-2.5893,-2.6891,-2.6396,-2.624,-2.624,-2.5979,-2.5895,-3.5545,-3.622,-3.6787,-3.77,-3.7985,-3.8054,-3.8201,-3.8955,-3.9761,-4.0166,-4.1415,-4.2558,-4.2982,-4.3602,-4.4109,-4.4199,-4.4421,-4.4794,-4.5402,-4.5931,-4.6825,-4.8338,-4.8895,0.0,0.0,0.0,0.0,-5.1088,-5.1128,-5.1201,-5.1296,-5.1316,-5.1355,-5.1402,-5.1406,-5.1127,-5.0532,-5.0522,-5.0022,-4.9099,-4.841,-4.7376,-4.6121,-4.5683,-4.538,-4.5192,-4.4991,-4.4493,-4.3724,-4.3184,-4.2486,-4.1625,-4.0543,-3.9935,-3.9534,-3.8474,-3.8055,-3.7905,-3.73,-3.6842,-3.6509,-3.6061,-3.5639,-3.5245,-3.4947,-3.4691,-3.4399,-3.3848,-3.3694,-3.3555,-3.3058,-3.2897,-3.2734,-3.2165,-3.1996,-3.1887,-3.1604,-3.1471,-3.1469,-3.1681,-3.1653,-3.1681,-3.1895,-3.2053,-3.2177,-3.2173,-3.1243,-3.0183,-2.9262,-2.8277,-2.7523,-2.7403,-2.6998,-2.6726,-2.6496,-2.6176,-2.591,-2.5676,-2.5394,-2.5123,-2.4921,-2.4634,-2.483,-2.5615,-2.5472,-2.5735,-2.6396,-2.6313,-2.6157,-2.599,-2.5812,-2.5728,-3.5623,-3.6268,-3.6789,-3.7415,-3.7649,-3.7757,-3.7897,-3.8468,-3.9075,-3.9553,-4.0781,-4.187,-4.2415,-4.3213,-4.386,-4.4048,-4.4218,-4.4664,-4.5641,-4.6202,-4.7105,-4.8656,-4.9177,-4.9717,0.0,0.0,0.0,-5.1029,-5.1069,-5.115,-5.1256,-5.1296,-5.1327,-5.1391,-5.1109,-5.0663,-5.0116,-4.9786,-4.9153,-4.8213,-4.7214,-4.6389,-4.5731,-4.5584,-4.5438,-4.5256,-4.4779,-4.4156,-4.3371,-4.2519,-4.1688,-4.0866,-3.973,-3.9163,-3.8842,-3.7989,-3.754,-3.7297,-3.6886,-3.652,-3.6208,-3.6062,-3.5684,-3.5245,-3.4994,-3.4691,-3.4399,-3.3848,-3.3694,-3.3555,-3.3058,-3.2897,-3.2734,-3.2165,-3.1996,-3.1826,-3.1249,-3.1087,-3.1087,-3.0888,-3.096,-3.1041,-3.105,-3.1209,-3.128,-3.1191,-3.0271,-2.9451,-2.8947,-2.802,-2.7335,-2.7134,-2.6782,-2.6508,-2.6371,-2.6037,-2.5688,-2.5535,-2.5194,-2.4921,-2.4718,-2.4418,-2.4671,-2.5383,-2.5228,-2.5485,-2.624,-2.6074,-2.5906,-2.5812,-2.5559,-2.5464,-3.5514,-3.6274,-3.7108,-3.722,-3.7317,-3.7411,-3.7631,-3.781,-3.815,-3.9135,-4.0019,-4.0974,-4.2014,-4.2873,-4.3579,-4.3942,-4.4005,-4.4426,-4.5584,-4.6506,-4.7495,0.0,0.0,0.0,0.0,0.0,0.0,-5.0874,0.0,-5.1117,-5.1181,-5.1256,-5.131,-5.1332,-5.0532,-5.0057,-4.9973,-4.9101,-4.8215,-4.7328,-4.6363,-4.5867,-4.5795,-4.5671,-4.5495,-4.5283,-4.4257,-4.3634,-4.324,-4.1436,-4.0476,-4.0034,-3.9019,-3.8478,-3.8256,-3.7845,-3.7595,-3.7337,-3.697,-3.6609,-3.6259,-3.6062,-3.5667,-3.5245,-3.4994,-3.4691,-3.4399,-3.3848,-3.371,-3.3555,-3.3058,-3.2897,-3.2734,-3.2165,-3.1996,-3.1826,-3.1249,-3.1087,-3.0895,-3.0233,-3.0534,-3.0743,-3.0387,-3.0333,-3.0186,-2.988,-2.9194,-2.8815,-2.9157,-2.8105,-2.7134,-2.6714,-2.6496,-2.6302,-2.6201,-2.5828,-2.5535,-2.5312,-2.4981,-2.4718,-2.449,-2.4116,-2.4351,-2.5338,-2.4882,-2.5132,-2.6113,-2.5801,-2.5559,-2.5559,-2.5295,-2.52,-3.5702,-3.6246,-3.669,-3.6753,-3.6913,-3.7164,-3.7372,-3.754,-3.7757,-3.8062,-3.9011,-3.9982,-4.0797,-4.1841,-4.2849,-4.3523,-4.3846,0.0,-4.6084,-4.6724,0.0,-4.9259,-4.9765,-5.0063,-5.0278,-5.0374,0.0,0.0,-5.0855,-5.1004,-5.1117,-5.1181,-5.0961,-5.0371,-5.018,-4.9502,-4.8242,-4.7318,-4.6741,-4.6493,-4.6144,-4.5941,-4.5867,-4.5746,-4.5257,-4.448,-4.4072,-4.3038,-4.1671,-4.1023,-4.0221,-3.9342,-3.8907,-3.8578,-3.8274,-3.8036,-3.7703,-3.7374,-3.7108,-3.6753,-3.6402,-3.6105,-3.5711,-3.535,-3.5135,-3.4787,-3.4399,-3.3949,-3.3797,-3.3555,-3.3058,-3.2897,-3.2734,-3.2165,-3.1996,-3.1826,-3.1249,-3.1087,-3.0895,-3.0233,-2.9806,-2.9664,-2.9993,-2.9738,-2.9591,-2.9757,-2.9042,-2.8451,-2.8386,-2.7653,-2.693,-2.6496,-2.6314,-2.6119,-2.5758,-2.5535,-2.5312,-2.5182,-2.4778,-2.4502,-2.4273,-2.4043,-2.4044,-2.4358,-2.4559,-2.4875,-2.5174,-2.5471,-2.5475,-2.5285,-2.5115,-2.4946,-3.5681,-3.6062,-3.6318,-3.6426,-3.665,-3.6869,-3.7105,-3.7259,-3.7392,-3.7595,-3.8474,-3.9355,-3.9912,-4.1192,-4.2347,-4.2892,-4.3443,-4.4453,-4.6271,-4.6637,-4.7454,-4.9367,-4.9702,-4.9898,-5.0089,-5.0259,-5.0396,0.0,-5.0736,-5.0917,-5.1056,-5.1117,-5.0792,-5.0024,-4.9683,-4.8727,-4.7051,-4.6507,-4.6236,-4.6203,-4.6083,-4.5997,-4.5886,-4.5399,-4.4826,-4.4153,0.0,-4.2252,-4.1139,-4.0556,-3.9883,-3.9165,-3.895,-3.8652,-3.83,-3.7688,-3.7289,-3.6951,-3.6321,-3.5913,-3.563,-3.5572,-3.5069,-3.4421,-3.4184,-3.3846,-3.3468,-3.308,-3.2882,-3.2666,-3.2134,-3.2195,-3.2253,-3.1723,-3.1784,-3.1826,-3.1249,-3.1014,-3.0776,-3.0036,-2.9477,-2.921,-2.9412,-2.9023,-2.8812,-2.9012,-2.8433,-2.7816,-2.761,-2.7203,-2.6726,-2.6383,-2.6188,-2.591,-2.5523,-2.5312,-2.5111,-2.4838,-2.4562,-2.4273,-2.4043,-2.3824,-2.3754,-2.4028,-2.427,-2.4581,-2.4816,-2.5144,-2.5211,-2.5031,-2.4871,-2.47,-3.5487,-3.5756,-3.5975,-3.6174,-3.636,-3.6544,-3.6851,-3.6948,-3.7087,-3.7466,-3.8149,-3.8851,-3.9299,-4.0706,-4.19,-4.2216,-4.3015,-4.4254,-4.6186,-4.6494,-4.722,-4.9165,-4.9555,-4.9702,-4.9879,-5.0114,-5.0325,-5.0459,-5.0663,-5.0855,-5.0976,-5.094,-5.0528,-4.9683,-4.888,-4.776,-4.6308,-4.6303,-4.6264,-4.6211,-4.6142,-4.5998,-4.5735,-4.4899,-4.4292,-4.3803,0.0,0.0,-4.1079,-4.0106,-3.9532,-3.9253,-3.8906,-3.8608,-3.8222,-3.7102,-3.66,-3.629,-3.5226,-3.4619,-3.4394,-3.4726,-3.4125,-3.322,-3.2994,-3.2685,-3.2321,-3.1948,-3.1694,-3.1485,-3.0942,-3.1228,-3.1523,-3.0967,-3.1374,-3.169,-3.113,-3.0837,-3.0462,-2.9727,-2.9352,-2.9035,-2.878,-2.8406,-2.8079,-2.8013,-2.7616,-2.7214,-2.7011,-2.6794,-2.6521,-2.6201,-2.598,-2.5688,-2.5312,-2.5111,-2.4909,-2.449,-2.4273,-2.4043,-2.3897,-2.3519,-2.3508,-2.3852,-2.3959,-2.4186,-2.4648,-2.4714,-2.4808,-2.4861,-2.4625,-2.4454,-3.5135,-3.5396,-3.5667,-3.5694,-3.6045,-3.6343,-3.6426,-3.6731,-3.7066,-3.7147,-3.7536,-3.8097,-3.8978,-4.0022,-4.1051,-4.1918,-4.2878,-4.4152,-4.5999,-4.6394,-4.7187,-4.9102,-4.9384,-4.9566,-4.9852,-4.9986,0.0,0.0,0.0,-5.072,-5.0906,-5.0298,-4.9337,-4.7988,-4.7098,-4.6534,-4.6303,-4.6307,-4.6293,-4.6277,-4.6203,-4.5757,-4.4977,-4.4719,-4.375,-4.2275,0.0,0.0,-4.0285,-3.986,-3.9532,-3.9197,-3.8331,-3.7866,-3.7558,-3.6479,-3.5887,-3.5639,-3.5224,-3.4393,-3.3663,-3.399,-3.3857,-3.3465,-3.3141,-3.2802,-3.2409,-3.2134,-3.1821,-3.1485,-3.1074,-3.0951,-3.0825,-3.0319,-3.0691,-3.1011,-3.0391,-3.0219,-3.0111,-2.9665,-2.9352,-2.8972,-2.8716,-2.8341,-2.8013,-2.7669,-2.7281,-2.7011,-2.6794,-2.6577,-2.6289,-2.598,-2.5758,-2.5535,-2.5182,-2.4992,-2.4718,-2.449,-2.4127,-2.3824,-2.3677,-2.3457,-2.3183,-2.2896,-2.3296,-2.3624,-2.3703,-2.4094,-2.443,-2.454,-2.4368,-2.4292,-3.4947,-3.5228,-3.5458,-3.5577,-3.5871,-3.6174,-3.6259,-3.6568,-3.6869,-3.7009,-3.7279,-3.7665,-3.8204,-3.9211,-4.0201,-4.1087,-4.2118,-4.3442,-4.518,-4.5962,-4.6854,-4.8296,-4.8995,-4.9415,-4.9625,-4.9824,-5.0031,0.0,0.0,-5.0585,-5.0844,-4.9755,-4.8599,-4.7481,-4.6638,-4.6236,-4.6293,-4.6307,-4.6307,-4.6293,-4.5767,-4.526,-4.477,-4.3751,-4.2802,-4.188,0.0,0.0,-4.01,-3.948,-3.9094,-3.8764,-3.7734,-3.7155,-3.6793,-3.5725,-3.5162,-3.4824,-3.4118,-3.3474,-3.2897,-3.2899,-3.2659,-3.236,-3.2092,-3.1757,-3.1353,-3.1071,-3.0771,-3.0417,-3.0085,-3.0159,-3.0142,-2.9684,-2.9818,-3.0007,-2.9855,-2.9694,-2.9515,-2.9345,-2.9226,-2.8972,-2.8509,-2.8262,-2.7947,-2.7536,-2.7214,-2.6875,-2.6577,-2.6302,-2.6094,-2.591,-2.5606,-2.5324,-2.4992,-2.479,-2.449,-2.42,-2.3897,-2.3666,-2.3446,-2.3224,-2.3001,-2.2703,-2.3024,-2.3232,-2.314,-2.3782,-2.3981,-2.4019,-2.4094,-2.412,-3.4851,-3.5088,-3.5291,-3.5503,-3.5711,-3.5975,-3.6174,-3.6419,-3.6684,-3.6908,-3.7164,-3.7392,-3.7594,-3.8546,-3.9552,-4.0365,-4.1394,-4.2717,-4.4452,-4.553,-4.6535,-4.7575,-4.8609,-4.9257,-4.9384,-4.9683,0.0,0.0,0.0,0.0,-5.0252,-4.9005,-4.7939,-4.7126,-4.6497,-4.6203,-4.6273,-4.6295,-4.621,-4.601,-4.5262,-4.4688,-4.4222,-4.2801,-4.1966,-4.1614,0.0,0.0,0.0,-3.9128,-3.8565,-3.8105,-3.7042,-3.6433,-3.6039,-3.4971,-3.44,-3.4086,-3.3162,-3.2707,-3.2456,-3.2091,-3.1674,-3.1295,-3.1095,-3.0733,-3.0417,-3.0103,-2.9814,-2.9473,-2.9213,-2.936,-2.9539,-2.9215,-2.9004,-2.8958,-2.9333,-2.9116,-2.8887,-2.8907,-2.8906,-2.8757,-2.8338,-2.8197,-2.7947,-2.7469,-2.7146,-2.6875,-2.6427,-2.6107,-2.584,-2.5758,-2.5465,-2.5111,-2.4861,-2.4574,-2.4273,-2.3897,-2.3666,-2.3446,-2.3298,-2.3075,-2.2852,-2.2628,-2.2764,-2.2854,-2.2736,-2.3306,-2.3464,-2.339,-2.3764,-2.3796,-3.4851,-3.4994,-3.5152,-3.5291,-3.5503,-3.5711,-3.5975,-3.6191,-3.6444,-3.6731,-3.6992,-3.7223,-3.754,-3.8329,-3.9301,-4.0311,-4.1198,-4.2432,-4.4416,-4.5424,-4.6376,-4.7575,-4.8441,0.0,-4.9384,-4.9585,0.0,0.0,0.0,0.0,0.0,-4.7768,-4.6964,-4.6143,-4.6122,-4.6144,-4.6211,-4.627,-4.5897,-4.5114,-4.5021,-4.4133,-4.2526,-4.2354,-4.1772,-4.0881,0.0,0.0,0.0,-3.8899,-3.8228,-3.7219,-3.6143,-3.5628,-3.5351,-3.4229,-3.3715,-3.3542,-3.314,-3.282,-3.2539,-3.2284,-3.1912,-3.1504,-3.1134,-3.0855,-3.0609,-3.0274,-2.9946,-2.9637,-2.935,-2.9092,-2.89,-2.9007,-2.8622,-2.8297,-2.8679,-2.8526,-2.8294,-2.8283,-2.8284,-2.8263,-2.8117,-2.8079,-2.7881,-2.7146,-2.7024,-2.682,-2.627,-2.605,-2.5758,-2.5382,-2.5182,-2.5052,-2.479,-2.4418,-2.4116,-2.3897,-2.3519,-2.3298,-2.3298,-2.2927,-2.2628,-2.2402,-2.2294,-2.2307,-2.2501,-2.2426,-2.2522,-2.2941,-2.2972,-2.3013,-3.4739,-3.4994,-3.5245,-3.5291,-3.5503,-3.5773,-3.5975,-3.6148,-3.6385,-3.6684,-3.6908,-3.7126,-3.7372,-3.7807,-3.8599,-4.0131,-4.0727,-4.1633,-4.347,-4.4565,-4.5587,-4.6609,-4.758,-4.8472,0.0,0.0,0.0,0.0,0.0,0.0,0.0,-4.7225,-4.6778,-4.596,-4.6027,-4.6119,-4.6196,-4.5757,-4.5338,-4.4999,-4.3941,-4.306,-4.2334,-4.1785,-4.1285,-4.0828,0.0,0.0,0.0,-3.7915,-3.709,-3.6498,-3.5456,-3.4913,-3.4606,-3.3497,-3.2985,-3.272,-3.1917,-3.1487,-3.1239,-3.0949,-3.0977,-3.1124,-3.1176,-3.0982,-3.0699,-3.0401,-3.006,-2.971,-2.9502,-2.9014,-2.8521,-2.8438,-2.7979,-2.7636,-2.8024,-2.7878,-2.7669,-2.7658,-2.7575,-2.74,-2.7086,-2.7178,-2.7092,-2.6552,-2.6646,-2.6602,-2.6119,-2.598,-2.5688,-2.5253,-2.5052,-2.4861,-2.4646,-2.4273,-2.3897,-2.3751,-2.3457,-2.3224,-2.2927,-2.2777,-2.2553,-2.2262,-2.2101,-2.2043,-2.1932,-2.2132,-2.2119,-2.206,-2.2347,-2.2389,-3.4756,-3.4994,-3.5245,-3.5291,-3.552,-3.5773,-3.5949,-3.6105,-3.6318,-3.6643,-3.6846,-3.7009,-3.7203,-3.7392,-3.8131,-3.9928,-4.0347,-4.1035,-4.2776,-4.3926,-4.4984,-4.5918,0.0,-4.8017,0.0,0.0,0.0,0.0,0.0,0.0,0.0,-4.6304,-4.6153,-4.588,-4.5772,-4.5734,-4.5792,-4.4986,-4.4461,-4.423,-4.2988,-4.2253,-4.1987,-4.1331,-4.0859,0.0,0.0,0.0,0.0,-3.7091,-3.6262,-3.5799,-3.5036,-3.443,-3.3864,-3.3044,-3.2449,-3.1946,-3.1083,-3.0628,-3.0421,-3.0162,-3.0291,-3.056,-3.0683,-3.0784,-3.0821,-3.0526,-3.0087,-2.9694,-2.9396,-2.8858,-2.8348,-2.8054,-2.759,-2.7247,-2.7384,-2.7161,-2.6961,-2.7034,-2.6823,-2.6565,-2.6329,-2.639,-2.6271,-2.5948,-2.6171,-2.6201,-2.5733,-2.573,-2.5548,-2.5052,-2.4849,-2.4646,-2.4418,-2.4043,-2.3751,-2.3519,-2.3298,-2.3001,-2.2703,-2.2553,-2.2402,-2.2111,-2.1959,-2.1807,-2.1502,-2.1673,-2.1678,-2.1362,-2.1637,-2.1748,-3.4851,-3.4994,-3.5135,-3.5245,-3.54,-3.5583,-3.5932,-3.6019,-3.6165,-3.6602,-3.6748,-3.6851,-3.7069,-3.7261,-3.7982,-3.9738,-4.0179,-4.0906,-4.2665,-4.376,-4.4766,0.0,0.0,-4.779,-4.88,0.0,0.0,0.0,0.0,0.0,0.0,-4.469,-4.4765,-4.5761,-4.5165,-4.4803,-4.4809,-4.4013,-4.3205,-4.2427,-4.2401,-4.1951,-4.1116,-4.1109,0.0,0.0,0.0,0.0,0.0,-3.6656,-3.6007,-3.5094,-3.4868,-3.4156,-3.3168,-3.2895,-3.2176,-3.1294,-3.1075,-3.0818,-3.0552,-3.0366,-3.0117,-2.9859,-2.9524,-3.0173,-3.0935,-3.0593,-3.0103,-2.9592,-2.9044,-2.8653,-2.8348,-2.8054,-2.759,-2.7115,-2.6803,-2.6379,-2.6145,-2.6339,-2.6147,-2.5959,-2.6262,-2.6047,-2.5722,-2.537,-2.5456,-2.5478,-2.5179,-2.5208,-2.5182,-2.4861,-2.4646,-2.4418,-2.42,-2.3824,-2.353,-2.3298,-2.2927,-2.2703,-2.2703,-2.2327,-2.2101,-2.2101,-2.1731,-2.1502,-2.1502,-2.1138,-2.0916,-2.0926,-2.0936,-2.1029,-3.5152,-3.5291,-3.5383,-3.5446,-3.552,-3.5639,-3.5932,-3.6019,-3.6105,-3.6502,-3.6643,-3.6788,-3.7009,-3.7644,-3.8546,-3.9789,-4.0551,-4.1423,-4.2659,-4.3155,-4.3797,-4.4876,-4.6059,-4.691,0.0,0.0,0.0,0.0,0.0,0.0,0.0,0.0,-4.3797,-4.4804,-4.4182,-4.3868,-4.3909,-4.3116,-4.2607,-4.2381,-4.1806,-4.1054,-4.021,-4.0207,0.0,0.0,0.0,0.0,0.0,-3.6151,-3.5225,-3.4263,-3.4109,-3.3392,-3.236,-3.1589,-3.1038,-3.0557,-2.9758,-2.9303,-2.9062,-2.893,-2.9006,-2.9152,-2.8928,-2.9608,-3.0437,-3.0435,-3.0076,-2.9637,-2.9259,-2.8842,-2.8493,-2.8201,-2.774,-2.7233,-2.6788,-2.6365,-2.6018,-2.5855,-2.5418,-2.5114,-2.4938,-2.4875,-2.4717,-2.4431,-2.472,-2.4744,-2.4413,-2.4292,-2.4118,-2.3777,-2.3735,-2.3798,-2.4009,-2.3751,-2.3457,-2.315,-2.2852,-2.2553,-2.2327,-2.2176,-2.1959,-2.1731,-2.1578,-2.1359,-2.1051,-2.0984,-2.0751,-2.0508,-2.032,-2.0216,-3.5337,-3.54,-3.5492,-3.5492,-3.5566,-3.5667,-3.5932,-3.6019,-3.6105,-3.6419,-3.6811,-3.7184,-3.7346,-3.8179,-3.9173,-4.0153,-4.0828,-4.1594,-4.258,-4.2824,0.0,-4.4491,0.0,0.0,0.0,0.0,0.0,0.0,0.0,0.0,0.0,0.0,-4.2657,-4.3313,-4.3027,-4.29,-4.2975,-4.2174,-4.1805,-4.1861,-4.1007,-4.0326,-3.9785,0.0,0.0,0.0,0.0,0.0,0.0,-3.5786,-3.4891,-3.3961,-3.3796,-3.2901,-3.1599,-3.0893,-3.0352,-2.9884,-2.9135,-2.8712,-2.8484,-2.8345,-2.8333,-2.8386,-2.8427,-2.9007,-2.9661,-2.9582,-2.9303,-2.9,-2.8933,-2.8589,-2.8248,-2.8222,-2.779,-2.7284,-2.6788,-2.6312,-2.5907,-2.555,-2.5089,-2.4607,-2.435,-2.4196,-2.4032,-2.3727,-2.3966,-2.407,-2.3656,-2.3562,-2.3416,-2.308,-2.3006,-2.3117,-2.3268,-2.3334,-2.3224,-2.2927,-2.2628,-2.2327,-2.2035,-2.1873,-2.1731,-2.1359,-2.1282,-2.1128,-2.0906,-2.0751,-2.043,-2.0029,-1.9872,-1.9706,0.0,-3.5446,-3.5492,-3.5492,-3.5549,-3.5667,-3.5932,-3.6019,0.0,-3.6488,-3.721,-3.784,-3.8052,-3.8907,-3.9829,-4.0636,-4.0984,-4.1511,-4.2462,-4.2747,0.0,0.0,-4.5259,0.0,0.0,0.0,0.0,0.0,0.0,0.0,0.0,0.0,-4.1437,-4.149,-4.1769,-4.1938,-4.1997,-4.1218,-4.084,-4.0909,-4.0101,-3.9683,-3.9582,0.0,0.0,0.0,0.0,0.0,0.0,-3.5508,-3.4873,-3.3993,-3.3729,-3.2534,-3.0921,-3.0713,-3.0083,-2.9302,-2.9085,-2.8881,-2.8669,-2.8458,-2.7979,-2.7587,-2.801,-2.8422,-2.8669,-2.8318,-2.8059,-2.7924,-2.8088,-2.791,-2.7705,-2.7977,-2.7655,-2.7151,-2.6657,-2.6158,-2.5728,-2.5481,-2.4991,-2.4549,-2.4292,-2.3897,-2.345,-2.3138,-2.3282,-2.3301,-2.2983,-2.3013,-2.2963,-2.2638,-2.2389,-2.2248,-2.221,-2.2652,-2.2894,-2.2703,-2.2327,-2.1949,-2.1807,-2.1578,-2.1359,-2.1205,-2.0984,-2.0829,-2.0829,-2.043,-2.0039,-1.9566,-1.9557,-1.9478,-3.5861,0.0,-3.5594,-3.5594,-3.5577,-3.5667,0.0,-3.6019,-3.6233,-3.7094,-3.7465,-3.7887,-3.8624,-3.9553,-4.0303,-4.0581,-4.1321,-4.1973,-4.2333,-4.267,0.0,-4.3415,-4.3797,0.0,0.0,0.0,0.0,0.0,0.0,0.0,0.0,0.0,-4.0463,-4.052,-4.0745,-4.091,-4.1028,-4.0286,-3.9943,-3.9996,-3.9187,-3.8471,-3.7809,0.0,0.0,0.0,0.0,0.0,0.0,-3.4962,-3.4105,-3.3185,-3.2363,-3.1306,-3.0227,-3.0073,-2.9776,-2.9412,-2.9222,-2.8998,-2.8712,-2.83,-2.794,-2.7647,-2.7612,-2.7809,-2.8106,-2.836,-2.8184,-2.7939,-2.7708,-2.7375,-2.7029,-2.681,-2.6394,-2.5872,-2.5383,-2.5189,-2.5057,-2.4776,-2.4651,-2.4492,-2.4189,-2.3734,-2.3283,-2.286,-2.2604,-2.244,-2.2178,-2.1893,-2.1643,-2.159,-2.1463,-2.1329,-2.1246,-2.1964,-2.2377,-2.2231,-2.2025,-2.1807,-2.1578,-2.1359,-2.1215,-2.0984,-2.0586,-2.0342,-2.0098,-1.9872,-1.9724,-1.9557,-1.924,-1.9082,-3.6122,-3.5932,-3.58,-3.58,-3.5756,-3.5756,-3.6036,-3.6019,-3.6285,-3.7275,-3.7837,-3.8391,-3.9259,-4.0228,-4.0911,-4.1059,-4.1584,-4.2037,0.0,0.0,-4.2824,-4.2994,-4.3123,0.0,0.0,0.0,0.0,0.0,0.0,0.0,0.0,0.0,-4.0038,-4.0158,-3.994,-3.9888,-4.0063,-3.9716,-3.9393,-3.9088,-3.8266,-3.7629,-3.7199,0.0,0.0,0.0,0.0,0.0,-3.5217,-3.4672,-3.3664,-3.2381,-3.1795,-3.0948,-3.0068,-2.9907,-2.9754,-2.9551,-2.9351,-2.9089,-2.8737,-2.8353,-2.8053,-2.7777,-2.7526,-2.7459,-2.7487,-2.7523,-2.733,-2.7071,-2.7058,-2.6786,-2.6486,-2.6406,-2.6016,-2.5568,-2.5091,-2.4848,-2.4653,-2.4593,-2.4436,-2.4243,-2.4137,-2.3734,-2.3223,-2.2739,-2.2432,-2.2135,-2.1812,-2.1423,-2.1169,-2.0978,-2.0751,-2.0665,-2.0636,-2.0984,-2.1278,-2.1595,-2.1487,-2.1288,-2.1195,-2.1041,-2.0731,-2.043,-2.0264,-2.0029,-1.9794,-1.9557,-1.9399,-1.932,-1.9011,-1.8851,-3.6216,-3.6165,-3.6062,-3.6019,-3.5905,-3.5861,-3.6122,-3.6165,-3.6412,-3.7447,-3.8294,-3.916,-3.995,-4.0763,-4.138,-4.156,-4.1692,0.0,-4.2246,-4.245,-4.2631,-4.2806,0.0,0.0,0.0,0.0,0.0,0.0,0.0,0.0,0.0,0.0,0.0,-3.9867,-3.9165,-3.8805,-3.8873,-3.902,-3.8786,-3.8151,-3.7303,-3.6922,-3.6971,-3.6294,0.0,0.0,0.0,0.0,-3.4589,-3.4393,-3.3339,-3.1777,-3.1538,-3.0925,-3.0199,-3.0019,-2.9855,-2.9699,-2.9474,-2.9119,-2.8761,-2.851,-2.8219,-2.794,-2.7617,-2.7324,-2.6989,-2.659,-2.626,-2.6085,-2.629,-2.6134,-2.591,-2.6122,-2.5818,-2.5377,-2.4988,-2.4568,-2.4291,-2.4379,-2.4163,-2.3886,-2.3979,-2.3623,-2.3223,-2.2739,-2.2371,-2.2011,-2.1686,-2.136,-2.0978,-2.0669,-2.0313,-2.0084,-2.0101,-1.986,-2.0017,-2.0709,-2.0675,-2.0601,-2.0611,-2.0458,-2.014,-1.9674,-1.9674,-1.9556,-1.9395,-1.9219,-1.9088,-1.8922,-1.8772,-1.862,-3.6271,-3.636,-3.6216,-3.6062,-3.5905,-3.5861,-3.5993,-3.6427,-3.7047,-3.8053,-3.8872,-3.9692,-4.0735,-4.1053,-4.1233,-4.138,0.0,-4.1909,0.0,0.0,-4.2409,0.0,0.0,0.0,0.0,0.0,0.0,0.0,0.0,0.0,0.0,0.0,0.0,-3.8909,-3.8194,-3.7542,-3.6929,-3.712,-3.7197,-3.713,-3.6299,-3.5937,-3.6008,-3.5961,-3.5927,0.0,0.0,0.0,-3.455,-3.3785,-3.2843,-3.1801,-3.0985,-3.0552,-3.0343,-3.0213,-3.0034,-2.9822,-2.9435,-2.9119,-2.8858,-2.8569,-2.8255,-2.794,-2.7677,-2.7355,-2.7038,-2.6725,-2.6435,-2.6115,-2.581,-2.5438,-2.5075,-2.4859,-2.4456,-2.4011,-2.3674,-2.3612,-2.3567,-2.3258,-2.3589,-2.3765,-2.3385,-2.3237,-2.303,-2.2751,-2.2185,-2.1686,-2.1463,-2.1031,-2.0658,-2.0237,-2.0053,-1.9768,-1.9302,-1.9245,-1.9192,-1.9213,-1.9603,-1.9634,-1.928,-1.9113,-1.8881,-1.8667,-1.8424,-1.8449,-1.8583,-1.8419,-1.8433,-1.8772,-1.8523,-1.8282,-3.5694,-3.5803,-3.5825,-3.6071,-3.6019,-3.6051,-3.6593,-3.6802,-3.7291,-3.8636,-3.9213,-3.974,-4.0703,-4.0935,-4.1076,-4.1272,0.0,-4.1736,-4.1909,-4.2055,0.0,0.0,0.0,0.0,0.0,0.0,0.0,0.0,0.0,0.0,0.0,0.0,0.0,0.0,-3.7141,-3.6616,-3.6381,-3.6058,-3.5965,-3.6137,-3.5778,-3.5649,-3.5745,-3.583,-3.5872,0.0,0.0,-3.4785,-3.3875,-3.3002,-3.2094,-3.1209,-3.0746,-3.0501,-3.0436,-3.0266,-3.0064,-2.9855,-2.9551,-2.9291,-2.9007,-2.8743,-2.8432,-2.8109,-2.7806,-2.743,-2.7085,-2.6791,-2.6469,-2.6099,-2.5717,-2.5301,-2.4942,-2.458,-2.4193,-2.3797,-2.3466,-2.3287,-2.3145,-2.3021,-2.3022,-2.2977,-2.2878,-2.284,-2.2686,-2.239,-2.2054,-2.1737,-2.1463,-2.0967,-2.0529,-2.0172,-1.9857,-1.9539,-1.9142,-1.8875,-1.8788,-1.8744,-1.9043,-1.9068,-1.8701,-1.8471,-1.8313,-1.81,-1.7886,-1.7911,-1.7957,-1.7711,-1.7637,-1.7735,-1.7716,-1.7661,-3.4957,-3.5208,-3.5405,-3.5928,-3.6053,-3.6224,-3.7038,-3.7212,-3.7568,-3.9071,-3.9481,-3.9819,-4.0528,-4.0793,-4.0965,-4.1117,-4.1363,-4.1445,-4.1314,0.0,0.0,0.0,0.0,0.0,0.0,0.0,0.0,0.0,0.0,0.0,0.0,0.0,0.0,0.0,-3.6042,-3.5735,-3.5951,-3.5134,-3.4966,-3.5463,-3.5451,-3.543,-3.5347,-3.5427,-3.5387,-3.5235,-3.4632,-3.3898,-3.3047,-3.2385,-3.1566,-3.0714,-3.0658,-3.0574,-3.0471,-3.0318,-3.0123,-2.994,-2.9718,-2.9474,-2.9209,-2.8934,-2.8619,-2.8282,-2.7904,-2.7552,-2.7166,-2.6791,-2.6469,-2.6099,-2.5717,-2.5301,-2.4942,-2.458,-2.4234,-2.3855,-2.3553,-2.3127,-2.2867,-2.2817,-2.2572,-2.2366,-2.2379,-2.236,-2.221,-2.1865,-2.1644,-2.1422,-2.1039,-2.0728,-2.0351,-1.9878,-1.9661,-1.9341,-1.8875,-1.8539,-1.8272,-1.8257,-1.8442,-1.8408,-1.8044,-1.788,-1.7661,-1.7449,-1.732,-1.7234,-1.7322,-1.7081,-1.6891,-1.6741,-1.6892,-1.6929,-3.4381,-3.4927,-3.5324,-3.5376,-3.57,-3.618,-3.6932,-3.7483,-3.8089,-3.9047,-3.9744,-4.0286,-4.0468,-4.0728,-4.0871,-4.0935,-4.1088,-4.1056,0.0,0.0,0.0,0.0,0.0,0.0,0.0,0.0,0.0,0.0,0.0,0.0,0.0,0.0,0.0,0.0,0.0,-3.4698,-3.4903,-3.4054,-3.4205,-3.5308,-3.5315,-3.4966,-3.4313,-3.4386,-3.4032,-3.3393,-3.3395,-3.294,-3.2184,-3.2125,-3.1574,-3.0793,-3.0716,-3.0599,-3.0481,-3.0414,-3.0292,-3.0142,-2.9886,-2.9644,-2.9433,-2.9093,-2.8767,-2.8388,-2.7933,-2.76,-2.731,-2.6825,-2.6469,-2.6099,-2.5717,-2.5301,-2.4942,-2.458,-2.4151,-2.3711,-2.3407,-2.2979,-2.2586,-2.218,-2.2297,-2.2359,-2.1875,-2.1861,-2.1797,-2.135,-2.0761,-2.0264,-1.9782,-1.9867,-1.9725,-1.9072,-1.9219,-1.9008,-1.8144,-1.7852,-1.7657,-1.7342,-1.731,-1.726,-1.6991,-1.6842,-1.6623,-1.6431,-1.629,-1.6251,-1.6379,-1.6249,-1.6279,-1.6353,-1.6387,-1.6431,-3.3704,-3.4306,-3.4849,-3.5203,-3.5648,-3.618,-3.6932,-3.7534,-3.8108,-3.8901,-3.9679,-4.0238,-4.0337,-4.0534,-4.0477,-4.0014,-4.0117,0.0,0.0,0.0,0.0,0.0,0.0,0.0,0.0,0.0,0.0,0.0,0.0,0.0,0.0,0.0,0.0,0.0,0.0,-3.4116,-3.3811,-3.347,-3.3313,-3.3317,-3.3527,-3.3502,-3.3278,-3.339,-3.3323,-3.3109,-3.2681,-3.2346,-3.2057,-3.1523,-3.1099,-3.0786,-3.0736,-3.0649,-3.0537,-3.0481,-3.0371,-3.0228,-2.9992,-2.9767,-2.9513,-2.9209,-2.8868,-2.8384,-2.7513,-2.7332,-2.7206,-2.6281,-2.6049,-2.5974,-2.5567,-2.5185,-2.4751,-2.4317,-2.3897,-2.3494,-2.3127,-2.2768,-2.2402,-2.2091,-2.1856,-2.1628,-2.1316,-2.1342,-2.1291,-2.0886,-2.0685,-2.0401,-1.9878,-1.9696,-1.9326,-1.8652,-1.851,-1.8324,-1.8056,-1.7735,-1.7382,-1.7038,-1.7038,-1.6899,-1.6751,-1.6403,-1.6202,-1.6,-1.5788,-1.5706,-1.5627,-1.5563,-1.5493,-1.5414,-1.5559,-1.5594,-3.309,-3.3577,-3.4175,-3.4844,-3.5322,-3.5839,-3.6573,-3.7131,-3.7706,-3.8449,-3.894,-3.9294,-3.9394,-3.9542,0.0,0.0,0.0,0.0,0.0,0.0,0.0,0.0,0.0,0.0,0.0,0.0,0.0,0.0,0.0,0.0,0.0,0.0,0.0,0.0,0.0,0.0,-3.3078,-3.2579,-3.2086,-3.163,-3.1618,-3.183,-3.2225,-3.2368,-3.2351,-3.2222,-3.1763,-3.1607,-3.161,-3.1032,-3.0793,-3.0794,-3.0753,-3.0685,-3.0622,-3.0567,-3.0471,-3.0328,-3.0122,-2.9899,-2.9644,-2.9355,-2.8846,-2.8154,-2.7217,-2.6838,-2.6563,-2.5836,-2.5631,-2.5606,-2.5351,-2.5029,-2.4589,-2.4051,-2.3625,-2.3231,-2.2799,-2.2449,-2.2137,-2.1841,-2.1471,-2.1131,-2.0934,-2.0874,-2.0717,-2.031,-2.0281,-2.0081,-1.947,-1.9252,-1.8929,-1.824,-1.7933,-1.7754,-1.7649,-1.7463,-1.7185,-1.683,-1.663,-1.6482,-1.6473,-1.6132,-1.5929,-1.5726,-1.5505,-1.5284,-1.5133,-1.5062,-1.4927,-1.4729,-1.483,-1.4848,-3.2557,-3.2827,-3.3395,-3.4192,-3.4663,-3.507,-3.5805,-3.6305,-3.6787,-3.7545,-3.7582,-3.7484,-3.7484,-3.7614,0.0,0.0,0.0,0.0,0.0,0.0,0.0,0.0,0.0,0.0,0.0,0.0,0.0,0.0,0.0,0.0,0.0,0.0,0.0,0.0,0.0,0.0,-3.2779,-3.1279,-3.0528,-3.0597,-2.9863,-3.0096,-3.1193,-3.1333,-3.1027,-3.0409,-3.0546,-3.0639,-3.0715,-3.0767,-3.0799,-3.0798,-3.0793,-3.0767,-3.069,-3.0626,-3.0568,-3.0469,-3.0267,-3.0056,-2.9839,-2.9513,-2.8648,-2.7611,-2.7133,-2.618,-2.5299,-2.5593,-2.5313,-2.4947,-2.5054,-2.4791,-2.4359,-2.3925,-2.3334,-2.2799,-2.2463,-2.2091,-2.1712,-2.1471,-2.1277,-2.1082,-2.066,-2.0459,-2.022,-1.9656,-1.9396,-1.8975,-1.8464,-1.8519,-1.8364,-1.7759,-1.7647,-1.7344,-1.6836,-1.6875,-1.683,-1.6603,-1.607,-1.5867,-1.6061,-1.5938,-1.5726,-1.5505,-1.5275,-1.507,-1.4864,-1.4713,-1.4497,-1.4353,-1.4201,-1.424,-3.2464,-3.2897,-3.3469,-3.4213,-3.4663,-3.507,-3.5691,-3.626,-3.6787,-3.7431,-3.7533,-3.7484,-3.7484,-3.7533,0.0,0.0,0.0,0.0,0.0,0.0,0.0,0.0,0.0,0.0,0.0,0.0,0.0,0.0,0.0,0.0,0.0,0.0,0.0,0.0,0.0,0.0,-3.0907,-3.0454,-2.9987,-2.9547,-2.9416,-2.9603,-3.0075,-3.0316,-3.0362,-3.0266,-3.0443,-3.0591,-3.0706,-3.0778,-3.0795,-3.0791,-3.0798,-3.0789,-3.0761,-3.069,-3.0602,-3.0482,-3.0371,-3.0174,-2.9915,-2.9644,-2.9107,-2.8311,-2.6784,-2.6198,-2.5854,-2.4513,-2.4445,-2.4677,-2.4409,-2.4175,-2.3882,-2.3436,-2.2904,-2.2449,-2.2044,-2.1616,-2.1229,-2.1131,-2.0871,-2.0623,-2.0472,-2.0207,-1.9901,-1.9656,-1.9303,-1.8827,-1.8127,-1.7812,-1.7535,-1.7251,-1.6859,-1.6626,-1.6571,-1.6548,-1.6342,-1.6053,-1.5867,-1.5797,-1.5867,-1.5568,-1.5284,-1.5078,-1.4856,-1.4713,-1.4577,-1.4353,-1.4201,-1.4201,-1.3855,-1.3762,-3.2119,-3.2561,-3.3106,-3.3743,-3.4197,-3.4711,-3.5447,-3.5765,-3.6014,-3.632,-3.6355,-3.6306,-3.6306,-3.6306,0.0,0.0,0.0,0.0,0.0,0.0,0.0,0.0,0.0,0.0,0.0,0.0,0.0,0.0,0.0,0.0,0.0,0.0,0.0,0.0,0.0,0.0,-2.9977,-2.9691,0.0,-2.9021,-2.913,-2.9307,-2.9494,-2.9787,-3.0015,-3.019,-3.0472,-3.0639,-3.0739,-3.0778,-3.0798,-3.0806,-3.0798,-3.0793,-3.0789,-3.0724,-3.0634,-3.053,-3.0469,-3.0267,-3.0007,-2.9732,-2.9154,-2.8312,-2.6934,-2.6088,-2.5411,-2.4611,-2.4313,-2.4265,-2.4312,-2.4045,-2.3653,-2.3113,-2.2586,-2.2044,-2.1664,-2.1166,-2.0835,-2.0686,-2.0422,-2.022,-2.0118,-1.9862,-1.9656,-1.9408,-1.8934,-1.8452,-1.7909,-1.7412,-1.7016,-1.6677,-1.6397,-1.6224,-1.6253,-1.6136,-1.6002,-1.578,-1.5655,-1.5438,-1.5155,-1.4928,-1.4782,-1.4784,-1.4371,-1.4221,-1.4281,-1.3992,-1.3848,-1.3848,-1.3419,-1.3273,-3.1627,-3.1938,-3.2441,-3.3068,-3.3529,-3.4089,-3.4863,-3.4858,-3.4669,-3.4624,-3.4446,-3.43,-3.43,-3.43,0.0,0.0,0.0,0.0,0.0,0.0,0.0,0.0,0.0,0.0,0.0,0.0,0.0,0.0,0.0,0.0,0.0,0.0,0.0,0.0,0.0,0.0,-2.9654,-2.9007,0.0,0.0,-2.897,-2.9093,-2.9314,-2.9626,-2.9921,-3.015,-3.0519,-3.0728,-3.0798,-3.081,-3.08,-3.0816,-3.0801,-3.0794,-3.0799,-3.0716,-3.0664,-3.0593,-3.052,-3.0328,-3.008,-2.9799,-2.8933,-2.7938,-2.7476,-2.5961,-2.4584,-2.5384,-2.4679,-2.3837,-2.4507,-2.4225,-2.361,-2.2979,-2.2296,-2.1664,-2.1229,-2.0822,-2.0459,-2.0182,-2.0029,-1.9823,-1.9617,-1.9565,-1.9408,-1.8987,-1.8464,-1.7975,-1.7711,-1.7245,-1.6729,-1.6171,-1.6019,-1.5884,-1.5789,-1.5662,-1.5659,-1.572,-1.5338,-1.4844,-1.4258,-1.4218,-1.426,-1.4474,-1.3855,-1.3729,-1.4011,-1.3622,-1.3419,-1.3419,-1.3046,-1.2826,-3.1385,-3.1597,-3.1807,-3.3001,-3.3395,-3.3491,-3.3406,-3.3193,-3.3129,-3.3719,-3.3313,-3.2826,-3.27,0.0,0.0,0.0,0.0,0.0,0.0,0.0,0.0,0.0,0.0,0.0,0.0,0.0,0.0,0.0,0.0,0.0,0.0,0.0,0.0,0.0,0.0,-2.8541,-2.8631,-2.8582,-2.8619,0.0,-2.8858,-2.9052,-2.9314,-2.9532,-2.9902,-3.0355,-3.0528,-3.0665,-3.0735,-3.0786,-3.0839,-3.0876,-3.0821,-3.0801,-3.0793,-3.0714,-3.0685,-3.0657,-3.0492,-3.0352,-3.0207,-2.9872,-2.9401,-2.8799,-2.7711,-2.678,-2.5915,-2.5056,-2.4613,-2.4301,-2.3887,-2.3651,-2.3275,-2.254,-2.1888,-2.1326,-2.0723,-2.0258,-1.9901,-1.9759,-1.9552,-1.9344,-1.9291,-1.9093,-1.8839,-1.8356,-1.8193,-1.7931,-1.7445,-1.7088,-1.6627,-1.5989,-1.5576,-1.5273,-1.5051,-1.5065,-1.4999,-1.4922,-1.4773,-1.4609,-1.4395,-1.4128,-1.3823,-1.3431,-1.32,-1.3186,-1.3253,-1.3071,-1.2973,-1.2826,-1.2526,-1.2305,-3.0496,-3.1044,-3.1696,-3.2821,-3.298,-3.2883,-3.2877,-3.2359,-3.1958,-3.2256,-3.2229,-3.2073,-3.1916,0.0,0.0,0.0,0.0,0.0,0.0,0.0,0.0,0.0,0.0,0.0,0.0,0.0,0.0,0.0,0.0,0.0,0.0,0.0,0.0,0.0,-2.8105,-2.8053,-2.8191,-2.8353,-2.8484,-2.8644,-2.8785,-2.903,-2.9414,-2.9662,-2.9996,-3.0359,-3.0492,-3.0618,-3.0711,-3.0771,-3.0816,-3.0859,-3.0808,-3.0804,-3.0798,-3.0728,-3.0678,-3.0629,-3.0501,-3.0352,-3.0188,-2.9905,-2.957,-2.9116,-2.8202,-2.7316,-2.6475,-2.5794,-2.5129,-2.4507,-2.4053,-2.3663,-2.3187,-2.231,-2.1712,-2.1131,-2.0422,-1.9965,-1.9656,-1.9344,-1.9146,-1.8987,-1.8922,-1.8667,-1.8356,-1.803,-1.7865,-1.7545,-1.7099,-1.6818,-1.6353,-1.57,-1.5313,-1.5012,-1.4799,-1.4749,-1.4688,-1.4591,-1.4592,-1.4347,-1.3757,-1.3582,-1.3346,-1.3043,-1.2706,-1.2577,-1.2586,-1.2601,-1.2526,-1.2305,-1.2077,-1.1929,-2.9575,-3.0415,-3.1532,-3.231,-3.2217,-3.1999,-3.2383,-3.1764,-3.1001,-3.0716,-3.1094,-3.1373,0.0,0.0,0.0,0.0,0.0,0.0,0.0,0.0,0.0,0.0,0.0,0.0,0.0,0.0,0.0,0.0,0.0,0.0,0.0,0.0,-2.7404,-2.7526,-2.763,-2.776,-2.8025,-2.8191,-2.838,-2.8562,-2.8615,-2.8868,-2.9287,-2.9446,-2.9808,-3.0285,-3.0432,-3.0571,-3.0703,-3.0767,-3.0806,-3.08,-3.0793,-3.0807,-3.0793,-3.0716,-3.0656,-3.0593,-3.051,-3.0359,-3.0142,-2.9867,-2.9551,-2.9169,-2.8628,-2.7656,-2.6731,-2.667,-2.5741,-2.4659,-2.4418,-2.3879,-2.3143,-2.2217,-2.1568,-2.097,-2.0271,-1.9811,-1.9408,-1.904,-1.8786,-1.8625,-1.8464,-1.8193,-1.7975,-1.7799,-1.7479,-1.7099,-1.6761,-1.6488,-1.6077,-1.542,-1.5079,-1.4796,-1.4577,-1.4521,-1.4463,-1.4296,-1.4348,-1.4014,-1.3104,-1.2897,-1.2798,-1.2798,-1.2255,-1.1971,-1.2084,-1.2085,-1.2003,-1.1855,-1.1632,-1.1409,-2.9626,-3.0005,-3.0416,-3.0872,-3.0666,-3.0376,-3.0726,-3.0488,-3.0076,0.0,-2.9862,0.0,0.0,0.0,0.0,0.0,0.0,0.0,0.0,0.0,0.0,0.0,0.0,0.0,0.0,0.0,0.0,0.0,0.0,0.0,0.0,-2.7007,-2.712,-2.7261,-2.7417,0.0,-2.776,-2.7996,-2.8237,-2.8432,-2.8155,-2.8133,-2.8351,-2.7876,-2.8597,-3.0209,-3.0409,-3.0576,-3.0704,-3.0765,-3.0796,-3.08,-3.0796,-3.0794,-3.0793,-3.0716,-3.0656,-3.0593,-3.0471,-3.0285,-3.008,-2.9784,-2.9456,-2.902,-2.8504,-2.783,-2.7165,-2.6607,-2.5911,-2.5102,-2.4323,-2.3739,-2.3083,-2.2077,-2.1396,-2.0795,-2.0003,-1.954,-1.9186,-1.8893,-1.8464,-1.8084,-1.7865,-1.77,-1.7534,-1.7379,-1.72,-1.6909,-1.6488,-1.6181,-1.571,-1.5147,-1.4784,-1.4318,-1.3701,-1.3911,-1.3941,-1.3747,-1.3658,-1.355,-1.3433,-1.2506,-1.2084,-1.2084,-1.1895,-1.1746,-1.1572,-1.1567,-1.1409,-1.1186,-1.1037,-1.0812,-2.9502,-2.9583,-2.9656,-3.0089,-2.9884,-2.9536,-2.9393,-2.9197,-2.8869,-2.8421,0.0,0.0,0.0,0.0,0.0,0.0,0.0,0.0,0.0,0.0,0.0,0.0,0.0,0.0,0.0,0.0,0.0,0.0,0.0,0.0,-2.6623,-2.6336,-2.623,-2.6373,-2.6148,0.0,-2.6231,-2.6531,-2.6801,-2.7108,-2.7082,-2.7177,-2.7418,-2.7248,-2.802,-2.9486,-2.964,-3.0076,-3.0653,-3.072,-3.0762,-3.0793,-3.0798,-3.0794,-3.0793,-3.071,-3.0626,-3.0511,-3.0398,-2.9915,-2.9322,-2.9053,-2.8427,-2.7748,-2.7658,-2.7225,-2.6736,-2.6455,-2.5852,-2.5098,-2.4313,-2.3595,-2.2859,-2.1983,-2.1348,-2.0696,-1.9952,-1.9448,-1.8934,-1.8398,-1.8084,-1.7822,-1.7545,-1.7434,-1.7267,-1.6976,-1.6751,-1.6477,-1.6087,-1.5778,-1.541,-1.4775,-1.4419,-1.409,-1.3687,-1.3753,-1.3688,-1.3408,-1.345,-1.3273,-1.2826,-1.2403,-1.1893,-1.1449,-1.1369,-1.1215,-1.1072,-1.1052,-1.0887,-1.0588,-1.0519,-1.0293,-2.8967,-2.8943,-2.8983,-2.9435,-2.9247,-2.883,-2.8611,-2.8318,-2.8003,0.0,0.0,0.0,0.0,0.0,0.0,0.0,0.0,0.0,0.0,0.0,0.0,0.0,0.0,0.0,0.0,0.0,0.0,0.0,0.0,0.0,-2.5746,-2.533,-2.5209,-2.5353,-2.4995,-2.4866,-2.5011,-2.533,-2.5656,-2.6063,-2.605,-2.6182,-2.641,-2.6432,-2.7062,-2.8184,-2.8586,-2.9196,-2.9945,-3.001,-3.008,-3.0142,-3.0136,-3.0133,-3.0131,-3.0056,-2.9962,-2.9844,-2.9706,-2.9123,-2.8392,-2.8137,-2.74,-2.6652,-2.6693,-2.6319,-2.5872,-2.5749,-2.5297,-2.4689,-2.3928,-2.3287,-2.2709,-2.1935,-2.1251,-2.0597,-1.9747,-1.9186,-1.8667,-1.7963,-1.77,-1.7545,-1.7267,-1.7166,-1.6931,-1.6581,-1.6363,-1.6087,-1.5614,-1.5362,-1.5001,-1.4419,-1.4001,-1.3735,-1.3609,-1.3467,-1.3286,-1.3189,-1.3165,-1.29,-1.2231,-1.2077,-1.1632,-1.0962,-1.0771,-1.0676,-1.0603,-1.057,-1.0368,-1.0067,-0.9916,-0.9765,-2.7734,-2.798,-2.834,-2.8767,-2.8518,-2.8236,-2.8535,0.0,-2.7891,0.0,0.0,0.0,0.0,0.0,0.0,0.0,0.0,0.0,0.0,0.0,0.0,0.0,0.0,0.0,0.0,0.0,0.0,0.0,0.0,0.0,-2.3967,-2.405,-2.4148,-2.4372,-2.4478,-2.4615,-2.4824,-2.522,-2.557,-2.5911,-2.5352,-2.5175,-2.5348,-2.4801,-2.5122,-2.6196,-2.7306,-2.7909,-2.8139,-2.8203,-2.8262,-2.8348,-2.834,-2.8346,-2.8338,-2.8255,-2.8183,-2.8106,-2.7972,-2.7733,-2.743,-2.7151,-2.6782,-2.6318,-2.5836,-2.5265,-2.4658,-2.4017,-2.389,-2.3763,-2.2914,-2.2789,-2.2663,-2.1841,-2.1202,-2.0497,-1.9291,-1.8732,-1.8313,-1.781,-1.749,-1.7267,-1.7067,-1.6694,-1.6431,-1.6431,-1.6029,-1.5604,-1.5294,-1.4942,-1.4538,-1.3881,-1.3519,-1.3235,-1.3044,-1.2859,-1.2794,-1.2987,-1.258,-1.2224,-1.2003,-1.1484,-1.0962,-1.0519,-1.0132,-1.0051,-1.0196,-1.0062,-0.9846,-0.962,-0.9231,-0.9079,-2.7502,-2.7585,-2.7674,-2.8152,-2.7989,-2.7648,-2.7418,-2.7133,-2.6768,0.0,0.0,0.0,0.0,0.0,0.0,0.0,0.0,0.0,0.0,0.0,0.0,0.0,0.0,0.0,0.0,0.0,0.0,0.0,0.0,0.0,-2.3616,-2.326,-2.3128,-2.3336,-2.3009,-2.2996,-2.33,-2.3559,-2.3824,-2.4102,-2.4057,-2.4144,-2.432,-2.4246,-2.4504,-2.5078,-2.5603,-2.6612,-2.7884,-2.7989,-2.8104,-2.8207,-2.82,-2.8198,-2.82,-2.8129,-2.8024,-2.7914,-2.7785,-2.7229,-2.6514,-2.624,-2.5577,-2.486,-2.4824,-2.4408,-2.3888,-2.3753,-2.3401,-2.2914,-2.2179,-2.1691,-2.1193,-2.0448,-2.0051,-1.9708,-1.8934,-1.8398,-1.7975,-1.7645,-1.7312,-1.7022,-1.6637,-1.642,-1.6124,-1.5778,-1.5488,-1.5147,-1.4765,-1.4478,-1.4061,-1.3511,-1.3155,-1.2881,-1.2595,-1.2535,-1.2521,-1.2276,-1.221,-1.1929,-1.1409,-1.0962,-1.0513,-1.0143,-0.9695,-0.9549,-0.962,-0.9387,-0.9155,-0.8861,-0.8703,-0.847,-2.6811,-2.7095,-2.7371,-2.762,-2.7601,-2.7417,-2.6923,-2.6556,-2.6189,0.0,0.0,0.0,0.0,0.0,0.0,0.0,0.0,0.0,0.0,0.0,0.0,0.0,0.0,0.0,0.0,0.0,0.0,0.0,0.0,0.0,-2.2581,-2.2264,-2.2166,-2.2388,-2.2046,-2.2015,-2.2315,-2.2497,-2.2712,-2.297,-2.3247,-2.3486,-2.3728,-2.3919,-2.4117,-2.4373,-2.4604,-2.553,-2.6913,-2.7063,-2.7201,-2.7336,-2.7331,-2.7343,-2.7357,-2.725,-2.7166,-2.7036,-2.688,-2.63,-2.5586,-2.5332,-2.4596,-2.3883,-2.3886,-2.3492,-2.2979,-2.2817,-2.2455,-2.1976,-2.1306,-2.0608,-1.9976,-1.9534,-1.9171,-1.8875,-1.8513,-1.8127,-1.7744,-1.7479,-1.7078,-1.6694,-1.6363,-1.6066,-1.571,-1.5303,-1.4961,-1.4606,-1.43,-1.3881,-1.3528,-1.3094,-1.2728,-1.2383,-1.2208,-1.2035,-1.1887,-1.1703,-1.1546,-1.1259,-1.0683,-1.0319,-0.9905,-0.9539,-0.9089,-0.8865,-0.8708,-0.8703,-0.8551,-0.8169,-0.8097,-0.7753,0.0,0.0,0.0,-2.7125,-2.7303,-2.7457,-2.7129,0.0,-2.6264,0.0,0.0,0.0,0.0,0.0,0.0,0.0,0.0,0.0,0.0,0.0,0.0,0.0,0.0,0.0,0.0,0.0,0.0,0.0,0.0,-2.1471,-2.0826,-2.1038,-2.131,-2.1589,-2.1708,-2.184,-2.1982,-2.2248,-2.2487,-2.2685,-2.297,-2.3223,-2.3504,-2.3689,-2.3899,-2.4116,-2.4371,-2.4714,-2.5091,-2.5313,-2.5471,-2.5595,-2.5593,-2.5643,-2.567,-2.5546,-2.5467,-2.5365,-2.5163,-2.4936,-2.4651,-2.4392,-2.3979,-2.35,-2.3025,-2.2483,-2.1866,-2.1181,-2.1085,-2.0975,-2.0157,-1.96,-1.9231,-1.9159,-1.861,-1.8096,-1.8074,-1.7843,-1.7601,-1.7334,-1.6828,-1.6316,-1.6114,-1.571,-1.5303,-1.5029,-1.4488,-1.407,-1.383,-1.3285,-1.2867,-1.2621,-1.212,-1.1803,-1.1927,-1.1376,-1.1049,-1.1129,-1.0679,-1.0243,-0.9919,-0.9478,-0.9069,-0.8689,-0.8241,-0.7863,-0.7484,-0.7872,-0.7944,-0.7783,-0.7326,-0.6855,-2.5449,0.0,0.0,0.0,0.0,0.0,0.0,0.0,0.0,0.0,0.0,0.0,0.0,0.0,0.0,0.0,0.0,0.0,0.0,0.0,0.0,0.0,0.0,0.0,0.0,0.0,0.0,0.0,-2.0774,-2.0832,-2.081,-2.1022,-2.1215,-2.1388,-2.1402,-2.157,-2.184,-2.1986,-2.2175,-2.2487,-2.2712,-2.2952,-2.3223,-2.3463,-2.3689,-2.3899,-2.4211,-2.4491,-2.4766,-2.5107,-2.5329,-2.546,-2.555,-2.5611,-2.5623,-2.5584,-2.5496,-2.5379,-2.5234,-2.5031,-2.4779,-2.4428,-2.4019,-2.3584,-2.3067,-2.2429,-2.1794,-2.1181,-2.0605,-1.9951,-1.8818,-1.8367,-1.8118,-1.7785,-1.7763,-1.7768,-1.7319,-1.7159,-1.6976,-1.6807,-1.6467,-1.6009,-1.5526,-1.5118,-1.4765,-1.4369,-1.3881,-1.3459,-1.3224,-1.2736,-1.2243,-1.2058,-1.156,-1.122,-1.0987,-1.0745,-1.0505,-1.0312,-1.0018,-0.9665,-0.9243,-0.874,-0.8336,-0.8026,-0.7667,-0.7358,-0.7096,-0.7173,-0.7096,-0.6942,-0.6442,-0.6067,-2.5181,-2.5301,-2.5476,-2.5659,0.0,0.0,-2.5302,-2.4965,0.0,0.0,0.0,0.0,0.0,0.0,0.0,0.0,0.0,0.0,0.0,0.0,0.0,0.0,0.0,0.0,0.0,0.0,0.0,0.0,-2.0407,-2.0543,-2.0744,-2.0892,-2.1006,-2.1151,-2.0971,-2.098,-2.1174,-2.1052,-2.11,-2.138,-2.1601,-2.1814,-2.2065,-2.2344,-2.2568,-2.2759,-2.307,-2.3524,-2.4038,-2.4384,-2.4858,-2.5379,-2.5504,-2.5577,-2.5602,-2.5593,-2.5526,-2.5427,-2.5293,-2.508,-2.4804,-2.4425,-2.4001,-2.3522,-2.2958,-2.2303,-2.1628,-2.0991,-2.0039,-1.9043,-1.8054,-1.7589,-1.7244,-1.6901,-1.6824,-1.6795,-1.6373,-1.6288,-1.636,-1.6368,-1.6056,-1.5642,-1.5118,-1.4706,-1.43,-1.3821,-1.3268,-1.285,-1.2674,-1.2058,-1.1622,-1.1498,-1.1059,-1.0618,-1.0364,-1.0193,-0.9896,-0.9443,-0.9176,-0.889,-0.8513,-0.7952,-0.7482,-0.7312,-0.6884,-0.6479,-0.6089,-0.6483,-0.6451,-0.6003,-0.5538,-0.5146,-2.4876,-2.5052,-2.543,-2.5161,0.0,0.0,-2.5374,-2.4985,-2.4649,0.0,0.0,0.0,0.0,0.0,0.0,0.0,0.0,0.0,0.0,0.0,0.0,0.0,0.0,0.0,0.0,0.0,-2.0096,-2.027,-2.0354,-2.0491,-2.066,-2.0744,-2.0795,-2.0798,-2.046,-2.0226,-2.0175,-1.981,-1.9724,-1.9872,-2.0128,-2.0357,-2.0582,-2.0829,-2.1064,-2.1287,-2.1553,-2.2187,-2.3058,-2.3427,-2.4252,-2.5284,-2.5437,-2.5537,-2.5595,-2.5605,-2.5551,-2.5496,-2.5365,-2.5107,-2.4762,-2.442,-2.3946,-2.3414,-2.2797,-2.213,-2.143,-2.0599,-1.9434,-1.8305,-1.7625,-1.7047,-1.6535,-1.6298,-1.5903,-1.5497,-1.5324,-1.5436,-1.5612,-1.5776,-1.5583,-1.5177,-1.4715,-1.43,-1.3881,-1.3268,-1.272,-1.2297,-1.2003,-1.1435,-1.0996,-1.0996,-1.0491,-1.011,-0.9919,-0.9594,-0.9204,-0.877,-0.8371,-0.8002,-0.7667,-0.7133,-0.6733,-0.6552,-0.6072,-0.5541,-0.4886,-0.5681,-0.5781,-0.5052,-0.4651,-0.4239,-2.4832,-2.4786,-2.4735,0.0,0.0,0.0,-2.4033,-2.3774,-2.3523,0.0,0.0,0.0,0.0,0.0,0.0,0.0,0.0,0.0,0.0,0.0,0.0,0.0,0.0,0.0,0.0,0.0,-2.015,-2.0304,-2.0354,-2.0441,-2.0527,-2.0644,-2.0492,-2.0036,-1.9987,-1.9789,-1.9427,-1.9337,-1.9438,-1.9741,-1.9898,-2.0128,-2.0374,-2.0582,-2.0829,-2.1064,-2.1345,-2.1644,-2.2075,-2.3052,-2.4077,-2.5077,-2.532,-2.5454,-2.5535,-2.5579,-2.5597,-2.555,-2.5434,-2.5187,-2.4892,-2.4516,-2.4043,-2.3522,-2.2822,-2.2074,-2.1244,-1.9849,-1.8841,-1.7987,-1.7284,-1.6625,-1.6013,-1.5496,-1.5285,-1.5078,-1.4618,-1.4583,-1.4546,-1.4083,-1.4601,-1.4902,-1.4249,-1.3761,-1.3268,-1.2605,-1.2174,-1.1802,-1.1373,-1.0933,-1.0555,-1.0238,-0.9913,-0.9588,-0.9466,-0.8958,-0.8571,-0.8301,-0.7912,-0.741,-0.6924,-0.6461,-0.6142,-0.5835,-0.5272,-0.4773,-0.4357,-0.4745,-0.4704,-0.4227,-0.3984,-0.3602,0.0,0.0,0.0,-2.4497,0.0,0.0,0.0,-2.3624,-2.3382,-2.3157,0.0,0.0,0.0,0.0,0.0,0.0,0.0,0.0,0.0,0.0,0.0,0.0,0.0,0.0,0.0,0.0,-2.015,-2.0304,-2.0339,-2.0373,-2.0441,-2.0198,-1.9937,-1.972,-1.9118,-1.8712,-1.8515,-1.8286,-1.8251,-1.8458,-1.8635,-1.8831,-1.9109,-1.9263,-1.9503,-1.9767,-2.0006,-2.0445,-2.1057,-2.1758,-2.2909,-2.4282,-2.5001,-2.5363,-2.5466,-2.5561,-2.5604,-2.5586,-2.5473,-2.5269,-2.4984,-2.4622,-2.4137,-2.3566,-2.2822,-2.1753,-2.0565,-1.9339,-1.8486,-1.772,-1.6854,-1.6139,-1.549,-1.4823,-1.4406,-1.4,-1.357,-1.3557,-1.3485,-1.3009,-1.3414,-1.372,-1.3252,-1.2999,-1.2582,-1.198,-1.1636,-1.1247,-1.0744,-1.0295,-0.9977,-0.9658,-0.9338,-0.9081,-0.8894,-0.8506,-0.8117,-0.7847,-0.7391,-0.6937,-0.6548,-0.6017,-0.5561,-0.5026,-0.4393,-0.3951,-0.3855,-0.3708,-0.3566,-0.3421,-0.3258,-0.2918,0.0,0.0,0.0,0.0,0.0,-2.4355,0.0,0.0,0.0,-2.3254,0.0,0.0,0.0,0.0,0.0,0.0,0.0,0.0,0.0,0.0,0.0,0.0,0.0,0.0,0.0,0.0,-2.0185,-2.0304,-2.0304,-2.0304,-2.0388,-1.9739,-1.9387,-1.939,-1.8271,-1.7646,-1.7575,-1.7229,-1.7092,-1.7167,-1.7361,-1.7572,-1.7839,-1.798,-1.8191,-1.8428,-1.8642,-1.9219,-2.0061,-2.0473,-2.1525,-2.303,-2.4384,-2.511,-2.5382,-2.5512,-2.5579,-2.5586,-2.5527,-2.5328,-2.5056,-2.4719,-2.41,-2.3346,-2.2583,-2.1287,-1.9874,-1.8997,-1.8187,-1.738,-1.6441,-1.5688,-1.4937,-1.4212,-1.3552,-1.2929,-1.251,-1.2525,-1.2441,-1.2087,-1.213,-1.2235,-1.2253,-1.2134,-1.1866,-1.1329,-1.1009,-1.0656,-1.0153,-0.9685,-0.9332,-0.9145,-0.8829,-0.8576,-0.8382,-0.8052,-0.7722,-0.7391,-0.6872,-0.6482,-0.6222,-0.5561,-0.4947,-0.4365,-0.3682,-0.3371,-0.3297,-0.2807,-0.2648,-0.2802,-0.2576,-0.2335,0.0,0.0,0.0,0.0,-2.4753,0.0,0.0,0.0,-2.3033,-2.29,0.0,0.0,0.0,0.0,0.0,0.0,0.0,0.0,0.0,0.0,0.0,0.0,0.0,0.0,0.0,0.0,0.0,-2.0304,-2.0304,-2.0304,-2.0304,-1.9739,-1.9121,-1.8548,-1.7934,-1.7342,-1.6749,-1.6791,-1.6914,-1.7092,-1.7183,-1.7344,-1.7555,-1.78,-1.7997,-1.817,-1.8428,-1.8732,-1.9128,-2.0057,-2.0707,-2.1268,-2.3146,-2.4427,-2.5236,-2.5367,-2.5507,-2.5599,-2.5512,-2.5354,-2.512,-2.4737,-2.3742,-2.2574,-2.1707,-2.0717,-1.9758,-1.8878,-1.7961,-1.706,-1.6095,-1.5242,-1.4411,-1.3647,-1.2977,-1.2353,-1.1918,-1.1654,-1.1336,-1.098,-1.0653,-1.0772,-1.1726,-1.1535,-1.1047,-1.0422,-1.0159,-0.9862,-0.9297,-0.9127,-0.8958,-0.8641,-0.8312,-0.7987,-0.7797,-0.7466,-0.7134,-0.6806,-0.6548,-0.6156,-0.5561,-0.4831,-0.4236,-0.3909,-0.3442,-0.2976,-0.2514,-0.237,-0.2259,-0.2382,-0.2258,-0.1754,0.0,0.0,0.0,0.0,0.0,0.0,-2.408,0.0,-2.3054,0.0,0.0,0.0,0.0,0.0,0.0,0.0,0.0,0.0,0.0,0.0,0.0,0.0,0.0,0.0,0.0,0.0,0.0,0.0,0.0,-2.0339,-2.0304,-1.9287,-1.8609,-1.8408,-1.7381,-1.6733,-1.6506,-1.6639,-1.6769,-1.6882,-1.705,-1.7208,-1.732,-1.7555,-1.7755,-1.7932,-1.8225,-1.8469,-1.8716,-1.929,-1.993,-2.0652,-2.1587,-2.2641,-2.3656,-2.3832,-2.43,-2.4849,-2.4803,-2.4992,-2.5138,-2.4385,-2.3422,-2.2415,-2.1516,-2.0585,-1.9615,-1.8598,-1.7626,-1.6655,-1.5644,-1.4687,-1.3747,-1.2899,-1.2147,-1.151,-1.0939,-1.0635,-1.0336,-0.9984,-0.9836,-0.9814,-1.0095,-1.0247,-1.0142,-0.9687,-0.9492,-0.9197,-0.8734,-0.8482,-0.8223,-0.7972,-0.7596,-0.7269,-0.7134,-0.6675,-0.6416,-0.6214,-0.5756,-0.5229,-0.4764,-0.4295,-0.3828,-0.3426,-0.309,-0.2688,-0.2288,-0.2087,-0.1759,-0.1437,-0.142,-0.0874,-2.5361,0.0,0.0,0.0,0.0,0.0,0.0,0.0,0.0,0.0,0.0,0.0,0.0,0.0,0.0,-1.8565,0.0,-1.8824,0.0,0.0,0.0,0.0,0.0,0.0,0.0,0.0,0.0,0.0,-2.0388,0.0,-2.0304,-1.9113,-1.8407,-1.8316,-1.7157,-1.6431,-1.6316,-1.6463,-1.6554,-1.6617,-1.6873,-1.7025,-1.7093,-1.7337,-1.7502,-1.7681,-1.7954,-1.817,-1.8395,-1.8643,-1.9219,-1.9952,-2.0181,-2.0826,-2.173,-2.2479,-2.325,-2.3945,-2.4198,-2.4665,-2.5023,-2.4116,-2.3275,-2.2441,-2.1486,-2.0518,-1.9507,-1.8366,-1.7286,-1.6232,-1.5186,-1.4168,-1.314,-1.2218,-1.1392,-1.0702,-1.0072,-0.971,-0.9399,-0.9093,-0.8988,-0.889,-0.8685,-0.9079,-0.9268,-0.8989,-0.8789,-0.8522,-0.8105,-0.7819,-0.752,-0.7223,-0.6841,-0.6548,-0.6408,-0.5951,-0.5624,-0.5557,-0.496,-0.4498,-0.4233,-0.3828,-0.3491,-0.3226,-0.2755,-0.242,-0.2087,-0.1817,-0.1277,-0.047,-0.047,-0.0067,0.0,0.0,0.0,-2.4255,0.0,0.0,0.0,0.0,-2.1237,0.0,0.0,0.0,0.0,0.0,-1.9113,-1.893,-1.8734,0.0,0.0,0.0,0.0,0.0,0.0,0.0,0.0,0.0,0.0,0.0,-2.0388,0.0,-2.0304,-1.9526,-1.877,-1.8128,-1.7425,-1.6753,-1.6139,-1.6246,-1.6355,-1.6409,-1.6607,-1.6763,-1.6815,-1.7093,-1.7264,-1.7344,-1.7595,-1.7827,-1.8044,-1.8307,-1.8565,-1.8789,-1.9051,-1.9292,-1.9755,-2.1836,-2.275,-2.3076,-2.3915,-2.4461,-2.4718,-2.4099,-2.3352,-2.2521,-2.1516,-2.0454,-1.9353,-1.8249,-1.7024,-1.5884,-1.4812,-1.3653,-1.257,-1.1651,-1.083,-1.0064,-0.9361,-0.8942,-0.8567,-0.8184,-0.7925,-0.7777,-0.7723,-0.8262,-0.854,-0.8287,-0.797,-0.7626,-0.7286,-0.7075,-0.6831,-0.6459,-0.6112,-0.5822,-0.5683,-0.5352,-0.4954,-0.4691,-0.4228,-0.4028,-0.4028,-0.3493,-0.3226,-0.3226,-0.2555,-0.2087,-0.1884,-0.1547,-0.0806,0.0336,0.0403,0.0672,0.0,0.0,-2.4529,-2.4207,0.0,0.0,0.0,0.0,0.0,0.0,0.0,0.0,0.0,-1.9559,-1.9409,-1.9206,-1.8999,-1.8789,0.0,0.0,0.0,0.0,0.0,0.0,0.0,0.0,0.0,-1.9777,-1.9791,-1.996,0.0,-1.9541,-1.9,-1.877,-1.8065,-1.7365,-1.6711,-1.6797,-1.6624,-1.6207,-1.6409,-1.6517,-1.6543,-1.6763,-1.6901,-1.6977,-1.7199,-1.7399,-1.7562,-1.7844,-1.8065,-1.8258,-1.8532,-1.8806,-1.9209,-2.0327,-2.1244,-2.212,-2.3613,-2.4471,-2.4765,-2.4168,-2.3404,-2.2522,-2.1559,-2.0487,-1.9353,-1.8171,-1.6928,-1.5696,-1.4457,-1.3283,-1.211,-1.0973,-1.0056,-0.9183,-0.8355,-0.7824,-0.7337,-0.6902,-0.6745,-0.6691,-0.6578,-0.6745,-0.7025,-0.7408,-0.7209,-0.6925,-0.6615,-0.6294,-0.594,-0.5742,-0.5307,-0.4987,-0.4743,-0.4287,-0.3956,-0.3694,-0.3491,-0.336,-0.336,-0.3023,-0.2755,-0.2557,-0.2288,-0.2018,-0.1547,-0.1143,-0.047,0.0403,0.1412,0.2018,-2.515,-2.4659,0.0,0.0,-2.2901,0.0,-2.1326,0.0,0.0,0.0,0.0,0.0,0.0,0.0,-1.9669,-1.9472,-1.9286,-1.9067,0.0,-1.829,0.0,0.0,0.0,0.0,0.0,0.0,-1.8645,-1.9155,-1.9373,-1.9636,0.0,0.0,-1.9299,-1.9055,-1.8513,-1.7872,-1.721,-1.7015,-1.6698,-1.6274,-1.6258,-1.6262,-1.6246,-1.6474,-1.6581,-1.6633,-1.6825,-1.6952,-1.7076,-1.732,-1.7516,-1.7743,-1.801,-1.8323,-1.8699,-1.9369,-2.0572,-2.203,-2.3223,-2.4222,-2.4886,-2.4326,-2.3565,-2.2683,-2.1716,-2.0588,-1.9411,-1.8182,-1.6844,-1.5475,-1.4179,-1.289,-1.1607,-1.0356,-0.9332,-0.8343,-0.7444,-0.674,-0.6145,-0.5769,-0.5546,-0.5382,-0.5378,-0.5445,-0.5778,-0.6647,-0.6485,-0.6265,-0.6061,-0.5624,-0.5229,-0.502,-0.4568,-0.4159,-0.3744,-0.342,-0.3088,-0.2891,-0.2757,-0.269,-0.269,-0.2554,-0.2353,-0.2221,-0.2018,-0.1681,-0.1143,-0.0538,0.0067,0.0739,0.2085,0.2878]},{"header":{"parameterUnit":"m.s-1","parameterCategory":1,"la1":30.6,"la2":29.2853,"lo1":-89.7004,"lo2":-87.6739,"dy":0.0162,"dx":0.0183,"nx":112,"ny":82,"refTime":"2023-06-29T00:00:00:Z","depth":0,"parameterNumber":3,"parameterNumberName":"V-component_of_WINDS"},"data":[0.0,0.0,0.0,0.0,0.0,0.0,0.0,0.0,0.0,0.0,0.0,0.0,0.0,0.0,0.0,0.0,0.0,0.0,0.0,0.0,0.0,0.0,0.0,0.0,0.0,0.0,0.0,0.0,0.0,0.0,0.0,0.0,0.0,0.0,0.0,0.0,0.0,0.0,0.0,0.0,0.0,0.0,0.0,0.0,0.0,0.0,0.0,0.0,0.0,0.0,0.0,0.0,0.0,0.0,0.0,0.0,0.0,0.0,0.0,0.0,0.0,0.0,0.0,0.0,0.0,0.0,0.0,0.0,0.0,0.0,0.0,0.0,0.0,0.0,0.0,0.0,0.0,0.0,0.0,0.0,0.0,0.0,0.0,0.0,0.0,0.0,0.0,0.0,0.0,0.0,-1.8672,-2.0609,-2.2666,-2.4186,-2.4861,-2.5161,-2.5414,-2.5638,0.0,0.0,0.0,0.0,0.0,0.0,0.0,0.0,0.0,0.0,0.0,0.0,0.0,0.0,0.0,0.0,0.0,0.0,0.0,0.0,0.0,0.0,0.0,0.0,0.0,0.0,0.0,0.0,0.0,0.0,0.0,0.0,0.0,0.0,0.0,0.0,0.0,0.0,0.0,0.0,0.0,0.0,0.0,0.0,0.0,0.0,0.0,0.0,0.0,0.0,0.0,0.0,0.0,0.0,0.0,0.0,0.0,0.0,0.0,0.0,0.0,0.0,0.0,0.0,0.0,0.0,0.0,0.0,0.0,0.0,0.0,0.0,0.0,0.0,0.0,0.0,0.0,0.0,0.0,0.0,0.0,0.0,0.0,0.0,0.0,0.0,0.0,0.0,0.0,0.0,0.0,0.0,0.0,0.0,0.0,0.0,0.0,0.0,0.0,0.0,0.0,0.0,0.0,0.0,-1.9155,-2.1491,-2.3193,-2.4444,-2.5115,-2.5714,-2.5943,-2.5827,0.0,0.0,0.0,0.0,0.0,0.0,0.0,0.0,0.0,0.0,0.0,0.0,0.0,0.0,0.0,0.0,0.0,0.0,0.0,0.0,0.0,0.0,0.0,0.0,0.0,0.0,0.0,0.0,0.0,0.0,0.0,0.0,0.0,0.0,0.0,0.0,0.0,0.0,0.0,0.0,0.0,0.0,0.0,0.0,0.0,0.0,0.0,0.0,0.0,0.0,0.0,0.0,0.0,0.0,0.0,0.0,0.0,0.0,0.0,0.0,0.0,0.0,0.0,0.0,0.0,0.0,0.0,0.0,0.0,0.0,0.0,0.0,0.0,0.0,0.0,0.0,0.0,0.0,0.0,0.0,0.0,0.0,0.0,0.0,0.0,0.0,0.0,0.0,0.0,0.0,0.0,0.0,0.0,0.0,0.0,0.0,0.0,0.0,0.0,0.0,0.0,0.0,0.0,-1.9401,-2.0729,-2.1922,-2.3476,-2.4615,-2.5285,-2.5946,-2.6265,-2.5904,-2.5324,0.0,0.0,0.0,0.0,0.0,0.0,0.0,0.0,0.0,0.0,0.0,0.0,0.0,0.0,0.0,0.0,0.0,0.0,0.0,0.0,0.0,0.0,0.0,0.0,0.0,0.0,0.0,0.0,0.0,0.0,0.0,0.0,0.0,0.0,0.0,0.0,0.0,0.0,0.0,0.0,0.0,0.0,0.0,0.0,0.0,0.0,0.0,0.0,0.0,0.0,0.0,0.0,0.0,0.0,0.0,0.0,0.0,0.0,0.0,0.0,0.0,0.0,0.0,0.0,0.0,0.0,0.0,0.0,0.0,0.0,0.0,0.0,0.0,0.0,0.0,0.0,0.0,0.0,0.0,0.0,0.0,0.0,0.0,0.0,0.0,0.0,0.0,0.0,0.0,0.0,0.0,0.0,0.0,0.0,0.0,0.0,0.0,0.0,0.0,0.0,0.0,0.0,-2.0545,-2.2001,-2.2411,-2.3719,-2.4871,-2.5611,-2.6207,-2.6438,-2.6058,-2.5768,0.0,0.0,0.0,0.0,0.0,0.0,0.0,0.0,0.0,0.0,0.0,0.0,0.0,0.0,0.0,0.0,0.0,0.0,0.0,0.0,0.0,0.0,0.0,0.0,0.0,0.0,0.0,0.0,0.0,0.0,0.0,0.0,0.0,0.0,0.0,0.0,0.0,0.0,0.0,0.0,0.0,0.0,0.0,0.0,0.0,0.0,0.0,0.0,0.0,0.0,0.0,0.0,0.0,0.0,0.0,0.0,0.0,0.0,0.0,0.0,0.0,0.0,0.0,0.0,0.0,0.0,0.0,0.0,0.0,0.0,0.0,0.0,0.0,0.0,0.0,0.0,0.0,0.0,0.0,0.0,0.0,0.0,0.0,0.0,0.0,0.0,0.0,0.0,0.0,0.0,0.0,0.0,0.0,0.0,0.0,0.0,0.0,0.0,0.0,0.0,0.0,0.0,-2.0781,-2.2257,-2.3062,-2.4138,-2.5189,-2.6113,-2.6633,-2.6783,-2.6529,-2.5985,0.0,0.0,0.0,0.0,0.0,0.0,0.0,0.0,0.0,0.0,0.0,0.0,0.0,0.0,0.0,0.0,0.0,0.0,0.0,0.0,0.0,0.0,0.0,0.0,0.0,0.0,0.0,0.0,0.0,0.0,0.0,0.0,0.0,0.0,0.0,0.0,0.0,0.0,0.0,0.0,0.0,0.0,0.0,0.0,0.0,0.0,0.0,0.0,0.0,0.0,0.0,0.0,0.0,0.0,0.0,0.0,0.0,0.0,0.0,0.0,0.0,0.0,0.0,0.0,0.0,0.0,0.0,0.0,0.0,0.0,0.0,0.0,0.0,0.0,0.0,0.0,0.0,0.0,0.0,0.0,0.0,0.0,0.0,0.0,0.0,0.0,0.0,0.0,0.0,0.0,0.0,0.0,0.0,0.0,0.0,0.0,0.0,0.0,0.0,0.0,0.0,0.0,-2.1328,-2.2818,0.0,-2.4564,-2.5801,-2.6362,-2.694,-2.7172,-2.6844,0.0,0.0,0.0,0.0,0.0,0.0,0.0,0.0,0.0,0.0,0.0,0.0,0.0,0.0,0.0,0.0,0.0,0.0,0.0,0.0,0.0,0.0,0.0,0.0,0.0,0.0,0.0,0.0,0.0,0.0,0.0,0.0,0.0,0.0,0.0,0.0,0.0,0.0,0.0,0.0,0.0,0.0,0.0,0.0,0.0,0.0,0.0,0.0,0.0,0.0,0.0,0.0,0.0,0.0,0.0,0.0,0.0,0.0,0.0,0.0,0.0,0.0,0.0,0.0,0.0,0.0,0.0,0.0,0.0,0.0,0.0,0.0,0.0,0.0,0.0,0.0,0.0,0.0,0.0,0.0,0.0,0.0,0.0,0.0,0.0,0.0,0.0,0.0,0.0,0.0,0.0,0.0,0.0,0.0,0.0,0.0,0.0,0.0,0.0,0.0,0.0,0.0,-1.965,-2.1706,-2.3304,0.0,-2.4977,-2.6135,-2.6693,-2.7255,-2.7387,-2.6983,0.0,0.0,0.0,0.0,0.0,0.0,0.0,0.0,0.0,0.0,0.0,0.0,0.0,0.0,0.0,0.0,0.0,0.0,0.0,0.0,0.0,0.0,0.0,0.0,0.0,0.0,0.0,0.0,0.0,0.0,0.0,0.0,0.0,0.0,0.0,0.0,0.0,0.0,0.0,0.0,0.0,0.0,0.0,0.0,0.0,0.0,0.0,0.0,0.0,0.0,0.0,0.0,0.0,0.0,0.0,0.0,0.0,0.0,0.0,0.0,0.0,0.0,0.0,0.0,0.0,0.0,0.0,0.0,0.0,0.0,0.0,0.0,0.0,0.0,0.0,0.0,0.0,0.0,0.0,0.0,0.0,0.0,0.0,0.0,0.0,0.0,0.0,0.0,0.0,0.0,0.0,0.0,0.0,0.0,0.0,0.0,0.0,0.0,0.0,0.0,0.0,0.0,-2.0452,-2.2102,-2.3545,-2.4443,-2.5317,-2.6218,-2.7103,-2.7568,-2.7613,0.0,0.0,0.0,0.0,0.0,0.0,0.0,0.0,0.0,0.0,0.0,0.0,0.0,0.0,0.0,0.0,0.0,0.0,0.0,0.0,0.0,0.0,0.0,0.0,0.0,0.0,0.0,0.0,0.0,0.0,0.0,0.0,0.0,0.0,0.0,0.0,0.0,0.0,0.0,0.0,0.0,0.0,0.0,0.0,0.0,0.0,0.0,0.0,0.0,0.0,0.0,0.0,0.0,0.0,0.0,0.0,0.0,0.0,0.0,0.0,0.0,0.0,0.0,0.0,0.0,0.0,0.0,0.0,0.0,0.0,0.0,0.0,0.0,0.0,0.0,0.0,0.0,0.0,0.0,0.0,0.0,0.0,0.0,0.0,0.0,0.0,0.0,0.0,0.0,0.0,0.0,0.0,0.0,0.0,0.0,0.0,0.0,0.0,0.0,0.0,0.0,0.0,0.0,-2.0452,-2.2647,-2.4205,-2.4443,-2.5864,-2.6951,-2.7348,-2.7926,-2.812,-2.7668,0.0,0.0,0.0,0.0,0.0,0.0,0.0,0.0,0.0,0.0,0.0,0.0,0.0,0.0,0.0,0.0,0.0,0.0,0.0,0.0,0.0,0.0,0.0,0.0,0.0,0.0,0.0,0.0,0.0,0.0,0.0,0.0,0.0,0.0,0.0,0.0,0.0,0.0,0.0,0.0,0.0,0.0,0.0,0.0,0.0,0.0,0.0,0.0,0.0,0.0,0.0,0.0,0.0,0.0,0.0,0.0,0.0,0.0,0.0,0.0,0.0,0.0,0.0,0.0,0.0,0.0,0.0,0.0,0.0,0.0,0.0,0.0,0.0,0.0,0.0,0.0,0.0,0.0,0.0,0.0,0.0,0.0,0.0,0.0,0.0,0.0,0.0,0.0,0.0,0.0,0.0,0.0,0.0,0.0,0.0,0.0,0.0,0.0,0.0,0.0,0.0,0.0,-2.0949,-2.3026,-2.4601,-2.4904,-2.6337,-2.7348,-2.7846,-2.8419,-2.8619,-2.8276,0.0,0.0,0.0,0.0,0.0,0.0,0.0,0.0,0.0,0.0,0.0,0.0,0.0,0.0,0.0,0.0,0.0,0.0,0.0,0.0,0.0,0.0,0.0,0.0,0.0,0.0,0.0,0.0,0.0,0.0,0.0,0.0,0.0,0.0,0.0,0.0,0.0,0.0,0.0,0.0,0.0,0.0,0.0,0.0,0.0,0.0,0.0,0.0,0.0,0.0,0.0,0.0,0.0,0.0,0.0,0.0,0.0,0.0,0.0,0.0,0.0,0.0,0.0,0.0,0.0,0.0,0.0,0.0,0.0,0.0,0.0,0.0,0.0,0.0,0.0,0.0,0.0,0.0,0.0,0.0,0.0,0.0,0.0,0.0,0.0,0.0,0.0,0.0,0.0,0.0,0.0,0.0,0.0,0.0,0.0,0.0,0.0,0.0,0.0,0.0,0.0,0.0,-2.1712,-2.3457,-2.4915,-2.5661,-2.6679,-2.7672,-2.8431,-2.8895,-2.913,-2.8963,0.0,0.0,0.0,0.0,0.0,0.0,0.0,0.0,0.0,0.0,0.0,0.0,0.0,0.0,0.0,0.0,0.0,0.0,0.0,0.0,0.0,0.0,0.0,0.0,0.0,0.0,0.0,0.0,0.0,0.0,0.0,0.0,0.0,0.0,0.0,0.0,0.0,0.0,0.0,0.0,0.0,0.0,0.0,0.0,0.0,0.0,0.0,0.0,0.0,0.0,0.0,0.0,0.0,0.0,0.0,0.0,0.0,0.0,0.0,0.0,-1.0829,0.0,0.0,0.0,0.0,0.0,0.0,0.0,0.0,0.0,0.0,0.0,0.0,0.0,0.0,0.0,0.0,0.0,0.0,0.0,0.0,0.0,0.0,0.0,0.0,0.0,0.0,0.0,0.0,0.0,0.0,0.0,0.0,0.0,0.0,0.0,0.0,0.0,0.0,0.0,0.0,0.0,-2.2849,-2.4472,-2.5675,-2.6255,-2.7481,-2.8259,-2.851,-2.9234,-2.9541,-2.9412,-2.9274,0.0,0.0,0.0,0.0,0.0,0.0,0.0,0.0,0.0,0.0,0.0,0.0,0.0,0.0,0.0,0.0,0.0,0.0,0.0,0.0,0.0,0.0,0.0,0.0,0.0,0.0,0.0,0.0,0.0,0.0,0.0,0.0,0.0,0.0,0.0,0.0,0.0,0.0,0.0,0.0,0.0,0.0,0.0,0.0,0.0,0.0,0.0,0.0,0.0,0.0,0.0,0.0,0.0,0.0,0.0,0.0,0.0,0.0,0.0,0.0,-1.1966,0.0,0.0,0.0,0.0,0.0,0.0,0.0,0.0,0.0,0.0,0.0,0.0,0.0,0.0,0.0,0.0,0.0,0.0,0.0,0.0,0.0,0.0,0.0,0.0,0.0,0.0,0.0,0.0,0.0,0.0,0.0,0.0,0.0,0.0,0.0,0.0,0.0,0.0,0.0,0.0,-2.3661,-2.491,-2.602,-2.7011,-2.7949,-2.8669,-2.9077,-2.9624,-3.0037,-3.0183,-3.0125,0.0,0.0,0.0,0.0,0.0,0.0,0.0,0.0,0.0,0.0,0.0,0.0,0.0,0.0,0.0,0.0,0.0,0.0,0.0,0.0,0.0,0.0,0.0,0.0,0.0,0.0,0.0,0.0,0.0,0.0,0.0,0.0,0.0,0.0,0.0,0.0,0.0,0.0,0.0,0.0,0.0,0.0,0.0,0.0,0.0,0.0,0.0,0.0,0.0,0.0,0.0,0.0,0.0,0.0,-0.9021,-0.9369,-1.0519,-1.1354,-1.1841,-1.1821,-1.2305,-1.2974,0.0,0.0,0.0,0.0,0.0,0.0,0.0,0.0,0.0,0.0,0.0,0.0,0.0,0.0,0.0,0.0,0.0,0.0,0.0,0.0,0.0,0.0,0.0,0.0,0.0,-2.3033,-2.2808,0.0,0.0,0.0,0.0,0.0,0.0,0.0,0.0,0.0,0.0,0.0,0.0,-2.4519,-2.546,-2.6534,-2.7687,-2.8391,-2.8986,-2.9714,-3.0088,-3.0457,-3.0986,-3.1023,-3.0848,0.0,0.0,0.0,0.0,0.0,0.0,0.0,0.0,0.0,0.0,0.0,0.0,0.0,0.0,0.0,0.0,0.0,0.0,0.0,0.0,0.0,0.0,0.0,0.0,0.0,0.0,0.0,0.0,0.0,0.0,0.0,0.0,0.0585,0.0337,0.0,0.0,0.0,0.0,0.0,0.0,0.0,0.0,0.0,0.0,0.0,0.0,0.0,0.0,-0.5894,-0.6218,-0.6757,-0.7623,-0.8472,-0.918,-0.964,-1.0711,-1.1562,-1.2072,-1.2621,0.0,-1.3745,-1.3823,0.0,0.0,0.0,0.0,0.0,0.0,0.0,0.0,0.0,0.0,0.0,0.0,0.0,0.0,0.0,0.0,0.0,0.0,0.0,0.0,0.0,0.0,-2.2977,-2.3311,-2.3594,-2.3711,0.0,-2.2873,-2.2222,-2.2371,0.0,0.0,0.0,0.0,0.0,0.0,0.0,0.0,-2.589,-2.683,-2.7699,-2.8342,-2.9106,-2.9714,-2.9792,-3.0457,-3.0986,-3.1272,-3.1253,-3.1142,-3.0855,-3.0508,0.0,0.0,0.0,0.0,0.0,0.0,0.0,0.0,0.0,0.0,0.0,0.0,0.0,0.0,0.0,0.0,0.0,0.0,0.0,0.0,0.0,0.0,0.0,0.0,0.0,0.0,0.0,0.0,0.0,0.1358,0.1052,0.1065,0.0543,0.0092,0.0,0.0,0.0,0.0,0.0,0.0,0.0,0.0,0.0,-0.4157,-0.4299,-0.501,-0.6127,-0.6236,-0.6955,-0.8094,-0.8676,-0.9332,-0.9842,-1.095,-1.1765,-1.2299,-1.2949,-1.3614,-1.4316,-1.4471,-1.4796,-1.5198,0.0,0.0,0.0,0.0,0.0,-1.8457,-1.8913,0.0,0.0,0.0,0.0,0.0,0.0,0.0,0.0,0.0,0.0,0.0,0.0,0.0,0.0,-2.4551,-2.4852,-2.5005,-2.5262,-2.4796,-2.4215,0.0,-2.3477,-2.3296,-2.3564,0.0,0.0,0.0,0.0,0.0,-2.6895,-2.7548,-2.822,-2.9172,-2.9559,-3.0011,-3.047,-3.0761,-3.1211,-3.1803,-3.1911,-3.1844,-3.1734,-3.1439,-3.0998,0.0,0.0,0.0,0.0,0.0,0.0,0.0,0.0,0.0,0.0,0.0,0.0,0.0,0.0,0.0,0.0,0.0,0.0,0.0,0.0,0.0,0.0,0.0,0.0,0.0,0.0,0.0,0.0,0.1855,0.155,0.1489,0.104,0.0572,0.0,0.0,0.0,0.0,0.0,0.0,-0.2349,-0.257,-0.3137,-0.4098,-0.4336,-0.4954,-0.6228,-0.6343,-0.7106,-0.8439,-0.8879,-0.938,-1.0062,-1.1105,-1.1896,-1.2436,-1.2989,-1.3864,-1.4744,-1.5003,-1.5349,-1.5678,-1.6422,-1.701,0.0,-1.7687,-1.8364,-1.9132,-1.952,-2.0027,-2.0512,-2.058,0.0,-2.1321,-2.1278,0.0,0.0,0.0,0.0,-2.3443,-2.4013,0.0,-2.4713,-2.5484,-2.5822,-2.6074,-2.6313,-2.627,-2.6017,0.0,-2.4936,-2.4816,-2.5182,0.0,0.0,0.0,0.0,-2.6803,-2.7738,-2.8212,-2.8867,-2.9741,-3.0011,-3.0318,-3.0911,-3.1211,-3.1582,-3.2169,-3.2444,-3.2526,-3.2426,-3.2127,-3.1797,-3.154,0.0,0.0,0.0,0.0,0.0,0.0,0.0,0.0,0.0,0.0,0.0,0.0,0.0,0.0,0.0,0.0,0.0,0.0,0.0,0.0,0.0,0.0,0.0,0.0,0.0,0.0,0.0,0.0,0.0,0.1615,0.1525,0.0,0.0,0.0,0.0,-0.0904,-0.1108,-0.1433,-0.2121,-0.2483,-0.2965,-0.3576,-0.42,-0.5073,-0.6091,-0.6446,-0.715,-0.8439,-0.8879,-0.938,-1.0062,-1.1105,-1.1896,-1.2436,-1.2989,-1.3954,-1.5001,-1.5263,-1.5626,-1.5985,-1.7066,-1.7754,-1.8218,-1.8474,-1.9209,-2.0025,-1.9703,-2.0209,-2.0988,-2.097,-2.1341,-2.1826,-2.232,-2.266,0.0,0.0,-2.3883,-2.4478,-2.4744,-2.5179,-2.5622,-2.5812,-2.6074,-2.6313,-2.6738,-2.7021,-2.7001,0.0,-2.5991,-2.5777,-2.6183,0.0,-2.6602,-2.6851,-2.746,-2.8053,-2.8243,-2.9108,-2.9767,-2.9792,-3.0457,-3.0986,-3.0986,-3.173,-3.2182,-3.2182,-3.2888,-3.2975,-3.2426,-3.2259,-3.2003,-3.154,-3.1188,0.0,0.0,0.0,0.0,0.0,0.0,0.0,0.0,0.0,0.0,0.0,0.0,0.0,0.0,0.0,0.0,0.0,0.0,0.0,0.0,0.0,0.0,0.0,0.0,0.0,0.0,0.0,0.0,0.2131,0.1768,0.0,0.1007,0.0504,0.0102,-0.0313,-0.0733,-0.1269,-0.1839,-0.2423,-0.3025,-0.3644,-0.4281,-0.5053,-0.5848,-0.6446,-0.7311,-0.8459,-0.8945,-0.9526,-1.0211,-1.1159,-1.1896,-1.2436,-1.2989,-1.3964,-1.503,-1.547,-1.5903,-1.6273,-1.7394,-1.7981,-1.839,-1.8769,-1.9447,-2.0083,-2.0137,-2.048,-2.1087,-2.1713,-2.2161,-2.2485,-2.3006,-2.3275,-2.3609,-2.4036,-2.4405,-2.4871,-2.5221,-2.5559,-2.5812,-2.6074,-2.6467,-2.6869,-2.7033,-2.7371,-2.7649,-2.7782,-2.7152,-2.671,-2.7121,-2.6976,-2.7083,-2.766,-2.8272,-2.8836,-2.921,-2.9795,-3.0305,-3.0533,-3.0836,-3.1211,-3.173,-3.2036,-3.2386,-3.2888,-3.3185,-3.3184,-3.2954,-3.2587,-3.2208,-3.1801,-3.1442,-3.1023,0.0,0.0,0.0,0.0,0.0,0.0,0.0,0.0,0.0,0.0,0.0,0.0,0.0,0.0,0.0,0.0,0.0,0.0,0.0,0.0,0.0,0.0,0.0,0.0,0.0,0.0,0.3005,0.2668,0.2217,0.1742,0.1452,0.094,0.0422,0.0,-0.0538,-0.1086,-0.1667,-0.2361,-0.2971,-0.3386,-0.4248,-0.5018,-0.5704,-0.6431,-0.7294,-0.8291,-0.8908,-0.9466,-1.0215,-1.1048,-1.1787,-1.2436,-1.2989,-1.3964,-1.5035,-1.5678,-1.61,-1.6561,-1.7702,-1.8309,-1.8699,-1.9079,-1.9628,-2.0342,-2.0543,-2.0846,-2.1356,-2.2167,-2.2618,-2.2969,-2.3493,-2.3754,-2.41,-2.4529,-2.4871,-2.5211,-2.5559,-2.5812,-2.6063,-2.6407,-2.6798,-2.7185,-2.7267,-2.7696,-2.8203,-2.8431,-2.7973,-2.7734,-2.8137,-2.79,-2.8008,-2.8706,-2.9138,-2.9492,-2.996,-3.0381,-3.0672,-3.0986,-3.1211,-3.1656,-3.2169,-3.2386,-3.2745,-3.3241,-3.3185,-3.3218,-3.3258,-3.2629,-3.2225,-3.2092,-3.1678,-3.1309,-3.091,0.0,0.0,0.0,0.0,0.0,0.0,0.0,0.0,0.0,0.0,0.0,0.0,0.0,0.0,0.0,0.0,0.0,0.0,0.0,0.0,0.0,0.0,0.0,0.4639,0.3974,0.346,0.3224,0.277,0.2282,0.1764,0.1267,0.0645,0.0109,-0.0547,-0.0999,-0.1378,-0.2299,-0.28,-0.2891,-0.4099,-0.4979,-0.5421,-0.6403,-0.7329,-0.8053,-0.8626,-0.9185,-1.0058,-1.0773,-1.1564,-1.2441,-1.2989,-1.3959,-1.5024,-1.5666,-1.6187,-1.681,-1.7996,-1.8736,-1.9287,-1.9338,-1.9965,-2.0616,-2.0898,-2.1365,-2.182,-2.2264,-2.2706,-2.3222,-2.3667,-2.41,-2.454,-2.4861,-2.5211,-2.5654,-2.5822,-2.6063,-2.6324,-2.6809,-2.7044,-2.7267,-2.7522,-2.8018,-2.851,-2.851,-2.851,-2.8669,-2.9052,-2.9275,-2.9509,-2.9779,-3.0011,0.0,-3.0368,-3.0748,-3.0986,-3.1061,-3.1716,-3.2155,-3.2228,-3.2676,-3.3017,-3.3255,-3.3022,-3.3001,-3.3354,-3.2368,-3.1955,-3.2153,-3.1927,-3.1622,-3.1228,0.0,0.0,0.0,0.0,0.0,0.0,0.0,0.0,0.0,0.0,0.0,0.0,0.0,0.0,0.0,0.0,0.0,0.0,0.0,0.0,0.0,0.0,0.5541,0.4658,0.4458,0.4051,0.3324,0.3079,0.2816,0.2112,0.172,0.1312,0.0667,0.0111,-0.045,-0.1034,-0.1744,-0.2362,-0.2892,-0.3899,-0.4666,-0.5056,-0.6215,-0.7128,-0.7687,-0.8411,-0.9198,-1.0058,-1.0773,-1.1455,-1.2114,-1.2989,-1.3762,-1.4451,-1.5182,-1.5799,-1.6279,-1.7832,-1.8601,-1.8891,-1.9514,-2.0313,-2.1036,-2.0993,-2.1535,-2.2264,-2.2353,-2.2882,-2.3406,-2.3754,-2.41,-2.4625,-2.5031,-2.538,-2.5654,-2.599,-2.6313,-2.6644,-2.7033,-2.7452,-2.7788,-2.8179,-2.8498,-2.8803,-2.9118,-2.93,-2.9468,-2.9624,-2.9624,-2.9844,-3.0139,0.0,0.0,-3.0836,-3.1048,-3.1421,-3.1803,-3.1618,-3.1646,-3.2096,-3.1943,-3.2016,-3.2364,-3.2536,-3.2492,-3.2265,-3.2132,-3.2035,-3.1882,-3.2031,-3.2059,0.0,0.0,0.0,0.0,0.0,0.0,0.0,0.0,0.0,0.0,0.0,0.0,0.0,0.0,0.0,0.0,0.0,0.0,0.0,0.0,0.0,0.0,0.6707,0.6443,0.5396,0.4999,0.4484,0.3927,0.351,0.3159,0.266,0.2178,0.1665,0.1345,0.0449,-0.0227,-0.0696,-0.1524,-0.2262,-0.2919,-0.3804,-0.4424,-0.4887,-0.5927,-0.681,-0.7306,-0.809,-0.8897,-0.9734,-1.052,-1.1306,0.0,-1.2846,-1.3466,-1.4188,-1.4918,-1.554,0.0,0.0,0.0,0.0,0.0,-2.0458,-2.095,-2.0987,-2.1624,-2.2441,-2.2441,-2.2969,-2.3667,-2.3754,-2.4272,-2.4871,-2.5115,-2.5549,-2.5895,-2.6313,-2.6633,-2.6951,-2.7267,-2.7696,-2.8111,-2.8431,-2.8736,-2.904,-2.9521,0.0,0.0,-3.0177,-3.0088,-3.0152,-3.0596,-3.0761,-3.0924,0.0,-3.1282,-3.1414,-3.1717,-3.1457,-3.1378,-3.1788,-3.1654,0.0,0.0,0.0,-3.1988,-3.1693,-3.1916,0.0,0.0,0.0,-3.2675,0.0,0.0,0.0,0.0,-3.3535,-3.4151,0.0,0.0,0.0,0.0,0.0,0.0,0.0,0.0,0.0,0.0,0.0,0.0,0.0,0.0,0.0,0.0,0.7553,0.7527,0.6577,0.5579,0.4935,0.4834,0.406,0.3512,0.3406,0.2527,0.1907,0.1795,0.0785,-0.0114,-0.0469,0.0,0.0,0.0,0.0,-0.4143,-0.4809,-0.5751,-0.6373,-0.6769,-0.778,-0.8613,-0.9379,-1.0233,-1.1012,-1.1713,-1.2529,-1.3221,-1.3824,-1.4653,-1.5343,-1.6014,-1.7138,-1.7845,-1.8498,-1.9597,-2.0298,0.0,0.0,0.0,0.0,-2.2441,-2.3047,-2.3831,-2.378,-2.4478,-2.5189,-2.5136,-2.5673,-2.6229,-2.6561,-2.6869,-2.7267,-2.7522,-2.7926,-2.8339,-2.851,-2.8895,-2.9287,-2.9702,-3.0011,-3.0228,-3.0698,-3.0609,-3.0596,-3.0986,-3.1061,0.0,-3.1502,-3.1384,-3.1219,-3.1221,0.0,0.0,-3.1331,-3.1471,-3.1768,-3.2231,-3.1806,-3.1513,-3.1509,-3.1697,-3.197,-3.2313,-3.2951,-3.3418,-3.3779,-3.4457,-3.4971,-3.5263,-3.4523,-3.4841,0.0,0.0,0.0,0.0,0.0,0.0,0.0,0.0,0.0,0.0,0.0,0.0,0.0,0.0,0.0,0.8566,0.814,0.7758,0.7681,0.6722,0.5737,0.4935,0.4788,0.4363,0.3511,0.3076,0.2578,0.1907,0.1121,0.0453,-0.0115,-0.0693,0.0,-0.2493,-0.3088,-0.3796,-0.4729,-0.5598,-0.6352,-0.6769,0.0,0.0,-0.9375,-0.9892,-1.0564,-1.1389,-1.2163,-1.2782,-1.3274,-1.4084,-1.5139,-1.63,-1.7319,-1.8193,-1.882,-1.9439,-2.0087,-2.0744,-2.0907,-2.1624,-2.2441,-2.2618,-2.3232,-2.377,-2.3842,-2.4483,0.0,-2.4898,-2.5496,-2.6229,-2.6561,-2.6869,-2.7278,-2.7708,-2.8111,-2.851,-2.8895,-2.9197,-2.9509,-2.9921,-3.0228,-3.0444,-3.0836,-3.0911,-3.0986,-3.1198,-3.1373,-3.1422,-3.1276,-3.1243,-3.121,-3.1239,-3.0895,-3.0712,-3.0906,-3.0677,-3.0686,-3.0945,-3.1279,-3.1571,-3.1727,-3.1981,-3.2394,-3.3001,-3.3424,-3.3877,-3.4492,-3.4919,-3.5378,-3.6027,-3.5828,-3.598,0.0,0.0,0.0,0.0,0.0,0.0,0.0,0.0,0.0,0.0,0.0,0.9899,0.0,0.0,0.9498,0.9216,0.8945,0.8543,0.8028,0.7537,0.6836,0.5734,0.5307,0.4788,0.4043,0.3625,0.3027,0.2356,0.1683,0.1017,0.023,-0.0345,-0.1158,-0.2119,-0.2708,-0.3517,-0.4417,-0.5188,-0.5832,-0.6576,-0.7413,-0.8125,-0.8825,-0.9604,-1.0322,-1.088,-1.1713,-1.2355,-1.2833,-1.4015,-1.5191,-1.6298,-1.7224,-1.7953,-1.859,-1.9369,-1.9945,-2.0564,-2.0907,-2.1624,-2.2403,-2.2457,-2.2918,-2.3513,-2.3474,-2.3918,-2.4538,-2.4546,-2.5139,-2.5742,-2.5902,-2.6554,-2.7219,-2.747,-2.8068,-2.8736,-2.9052,-2.9365,-2.9754,-3.0152,-3.052,-3.0823,-3.1136,-3.1286,-3.1508,-3.1582,-3.1743,-3.1734,-3.1398,-3.1281,-3.1075,-3.0867,-3.0431,-3.0241,-3.0554,-3.0635,-3.0747,-3.0925,-3.1409,-3.1697,-3.1898,-3.2094,-3.2568,-3.3413,-3.3939,-3.4623,-3.5482,-3.5958,-3.642,-3.6868,-3.6927,-3.6943,0.0,0.0,0.0,0.0,0.0,0.0,0.0,1.1028,1.1096,1.1192,1.1066,1.094,1.0871,1.0764,1.0414,0.9878,0.9628,0.9331,0.8435,0.8141,0.765,0.6868,0.594,0.522,0.4809,0.4182,0.3475,0.2918,0.2244,0.1467,0.0572,0.0,-0.0806,-0.175,-0.2333,-0.3128,-0.3999,-0.4686,-0.5338,-0.6163,-0.7049,-0.7761,-0.8285,-0.9315,-0.9979,-1.0386,-1.1468,-1.2246,-1.2662,-1.4112,-1.5255,-1.6197,-1.6951,-1.7613,-1.8179,-1.9212,-1.9945,-2.0374,-2.0738,-2.1514,-2.2252,-2.2083,-2.2552,-2.3059,-2.3093,-2.3423,-2.3887,-2.4187,-2.4692,-2.5161,-2.5394,-2.6225,-2.6995,-2.7084,-2.7783,-2.8602,-2.8946,-2.9372,-2.9807,-3.0279,-3.0748,-3.1061,-3.136,-3.1656,-3.189,-3.1963,-3.2001,-3.1918,-3.1501,-3.1197,-3.0853,-3.0403,-3.0058,-3.0007,-3.0387,-3.0821,-3.119,-3.1336,-3.1655,-3.1898,-3.2038,-3.2191,-3.2798,-3.3857,-3.4472,-3.5315,-3.642,-3.6987,-3.7389,-3.7539,-3.7658,-3.7642,1.1706,1.1513,1.1588,1.202,1.217,1.2254,0.0,1.24,1.2428,1.2098,1.1934,1.1897,1.1937,1.1342,1.0857,1.0937,1.0203,0.9529,0.943,0.8634,0.7985,0.8113,0.7238,0.6204,0.522,0.4654,0.4145,0.3587,0.2467,0.1572,0.1237,0.045,-0.045,-0.1353,-0.1918,-0.2705,-0.3597,-0.4496,-0.5274,-0.5824,-0.6821,-0.7645,-0.8278,-0.8776,-0.9446,-1.0378,-1.1702,-1.2591,-1.3147,-1.4208,-1.5166,-1.592,-1.669,-1.7441,-1.8179,-1.9212,-1.9945,-2.0331,-2.043,-2.1103,-2.1912,-2.1894,-2.2254,-2.2676,-2.3014,-2.3409,-2.3812,-2.4007,-2.4581,-2.5161,-2.5561,-2.6047,-2.6464,-2.6856,-2.7281,-2.7828,-2.8523,-2.9001,-2.9453,-3.0266,-3.0748,-3.1136,-3.1522,-3.1743,-3.1963,-3.2109,-3.185,-3.1487,-3.1251,-3.0693,-3.0183,-2.993,-3.0003,-3.0219,-3.0702,-3.1058,-3.1336,-3.1495,-3.1811,-3.2038,-3.2191,-3.2413,-3.3197,-3.4539,-3.4951,-3.5797,-3.7068,-3.7476,-3.7642,-3.77,-3.7817,-3.7817,1.2743,1.2619,1.2627,1.3033,1.3182,1.3168,1.3197,1.3176,1.3157,1.2956,1.2917,1.289,1.2565,1.2229,1.1874,0.0,1.09,1.0413,0.9924,0.9327,0.8829,0.8357,0.8023,0.7163,0.5879,0.5318,0.4592,0.3699,0.3139,0.2467,0.1683,0.0897,0.0112,-0.0785,-0.157,-0.2355,-0.325,-0.4035,-0.4817,-0.5594,-0.6423,-0.7097,-0.7724,-0.8421,-0.9391,-1.0622,-1.1526,-1.237,-1.3147,-1.4106,-1.4873,-1.5615,-1.6392,-1.7062,-1.7705,-1.8624,-1.9437,-1.9915,-2.0061,-2.0692,-2.1465,-2.1366,-2.1637,-2.213,-2.2454,-2.2762,-2.311,-2.3588,-2.3977,-2.4371,-2.4906,-2.5424,-2.602,-2.638,-2.698,-2.7656,-2.8164,-2.867,-2.9129,-2.9902,-3.0464,-3.0963,-3.1542,-3.195,-3.2286,-3.2431,-3.2066,-3.153,-3.1235,-3.0793,-3.0404,-3.0125,-3.0326,-3.0657,-3.0955,-3.1219,-3.1509,-3.164,-3.1981,-3.2206,-3.2287,-3.2523,-3.3339,-3.4966,-3.5112,-3.5959,-3.7508,-3.7642,-3.7759,-3.7817,-3.7992,-3.8049,1.386,1.3783,1.3773,1.4001,1.4081,1.4075,1.3899,1.3866,1.3806,1.3814,1.3811,1.3614,1.3295,1.305,1.2754,1.2073,1.1683,1.1194,1.0413,1.0061,0.9609,0.8971,0.8622,0.8065,0.6899,0.6104,0.526,0.4145,0.3811,0.3139,0.213,0.1458,0.0673,-0.0224,-0.1121,-0.2019,-0.2802,-0.3587,-0.436,-0.5224,-0.5925,-0.6572,-0.716,-0.8371,-0.9449,-1.0609,-1.1292,-1.2175,-1.3044,-1.3837,-1.4564,-1.5383,-1.5929,-1.6545,-1.7169,-1.7968,-1.8699,-1.9434,-1.9563,-2.018,-2.0936,-2.0771,-2.1115,-2.1686,-2.1977,-2.2252,-2.2553,-2.3372,-2.3593,-2.3751,-2.4418,-2.4999,-2.5488,-2.5973,-2.6554,-2.7188,-2.7846,-2.8244,-2.8697,-2.9468,-3.0211,-3.0836,-3.1362,-3.1974,-3.2489,-3.2704,-3.2263,-3.1805,-3.1422,-3.0962,-3.0597,-3.0369,-3.0702,-3.0955,-3.1132,-3.1409,-3.164,-3.1841,-3.2094,-3.2302,-3.2453,-3.2648,-3.3521,-3.5153,-3.5282,-3.609,-3.77,-3.7759,-3.7876,-3.7992,-3.8164,-3.8237,1.4873,1.4971,1.4984,1.5072,1.5082,1.4915,1.4482,1.4473,1.4515,1.4532,1.4362,1.4172,1.425,1.3806,1.3323,1.2856,1.2273,1.178,1.1194,1.0666,1.0251,1.0032,0.925,0.8652,0.0,0.7149,0.604,0.5371,0.4257,0.3362,0.2688,0.213,0.1234,0.0,-0.0561,-0.1346,-0.2244,-0.3139,-0.4001,-0.4809,-0.5349,-0.6105,-0.7024,-0.8514,-0.9533,-1.0117,-1.1096,-1.2073,-1.2845,-1.336,-1.4092,-1.4995,-1.5244,-1.5938,-1.6793,-1.7071,-1.792,-1.8845,-1.9151,-1.9679,-2.0276,-2.0261,-2.0761,-2.1292,-2.1883,-2.2252,-2.2553,-2.3372,-2.3593,-2.3751,-2.4562,-2.4813,-2.5028,-2.5725,-2.5947,-2.6235,-2.7359,-2.7755,-2.8177,-2.9086,-3.0006,-3.0775,-3.0972,-3.1775,-3.2489,-3.2704,-3.25,-3.2241,-3.1726,-3.0882,-3.0401,-3.0568,-3.0895,-3.1132,-3.1292,-3.1597,-3.1841,-3.1996,-3.2247,-3.2453,-3.2578,-3.2935,-3.3756,-3.5153,-3.545,-3.6301,-3.77,-3.8049,-3.818,-3.818,-3.8335,-3.8391,1.6105,1.6032,1.5805,1.5906,1.5831,1.5665,1.5144,1.5149,1.5064,1.4818,1.487,1.4862,1.459,1.4272,1.3908,1.3619,1.2948,1.2422,1.2272,1.1558,1.1026,1.0716,1.017,0.0,0.0,0.0,0.0,0.5708,0.5148,0.4367,0.3362,0.2689,0.1793,0.0673,0.0,-0.0781,-0.1875,-0.2537,-0.3388,-0.4188,-0.5409,-0.6448,-0.7202,-0.8158,-0.913,-1.0019,-1.0801,-1.1507,-1.2331,-1.2997,-1.36,-1.4333,-1.4756,-1.543,-1.6174,-1.653,-1.7143,-1.7979,-1.8597,-1.9281,-1.9823,-1.9989,-2.0576,-2.1282,-2.1731,-2.2101,-2.2553,-2.3372,-2.3593,-2.3824,-2.4574,-2.479,-2.5004,-2.57,-2.591,-2.6169,-2.6993,-2.7237,-2.7597,-2.8651,-2.926,-2.9803,-3.04,-3.1361,-3.2318,-3.3171,-3.2495,-3.1806,-3.1518,-3.0859,-3.0568,-3.0702,-3.1058,-3.1292,-3.1437,-3.1754,-3.1996,-3.2135,-3.2358,-3.2594,-3.2773,-3.2989,-3.3864,-3.5419,-3.5546,-3.6414,-3.8049,-3.8107,-3.8237,-3.8351,-3.8448,-3.8504,1.7183,1.7009,1.6766,1.6756,1.6566,1.6319,1.5891,1.5738,1.5589,1.5282,1.5349,1.5447,1.4916,1.4879,1.4675,1.41,1.3624,1.323,1.2872,1.238,1.1854,1.1345,1.0902,1.0341,0.0,0.0,0.0,0.6379,0.5706,0.4925,0.3921,0.3362,0.2465,0.1234,0.0669,-0.0221,-0.1422,-0.1956,-0.2899,-0.4006,-0.5379,-0.6313,-0.7039,-0.7935,-0.8832,-0.9723,-1.0338,-1.1009,-1.1926,-1.2494,-1.3144,-1.3773,-1.4362,-1.4935,-1.5595,-1.6223,-1.6812,-1.7392,-1.829,-1.9011,-1.9557,-1.9784,-2.0498,-2.1282,-2.1655,-2.2101,-2.2553,-2.3372,-2.3593,-2.3824,-2.4574,-2.479,-2.5004,-2.57,-2.591,-2.6119,-2.6807,-2.7024,-2.7262,-2.8303,-2.8744,-2.9201,-2.9984,-3.0938,-3.1969,-3.2868,-3.2179,-3.1582,-3.1729,-3.1119,-3.0762,-3.094,-3.1219,-3.1452,-3.1567,-3.1868,-3.215,-3.2247,-3.2539,-3.2773,-3.2951,-3.315,-3.3957,-3.5586,-3.5696,-3.6565,-3.818,-3.8294,-3.8408,-3.8448,-3.8616,-3.8655,1.8193,1.7987,1.77,1.7554,1.7302,1.7049,1.6558,1.6245,1.6095,1.5911,1.5966,1.5831,1.5396,1.5605,1.5432,1.449,1.4298,1.4007,1.3286,1.3116,1.2837,0.0,0.0,0.0,0.0,0.0,0.0,0.7376,0.0,0.526,0.459,0.3921,0.3138,0.1905,0.1213,0.0328,-0.0872,-0.1393,-0.2527,-0.4037,-0.5078,-0.5937,-0.6742,-0.754,-0.8432,-0.9213,-0.9812,-1.0677,-1.1586,-1.1881,-1.2568,-1.3492,-1.3913,-1.4482,-1.5166,-1.6064,-1.664,-1.7212,-1.8031,-1.8754,-1.9381,-1.9784,-2.0489,-2.1282,-2.1655,-2.2101,-2.2553,-2.3372,-2.3604,-2.3824,-2.4574,-2.479,-2.5004,-2.57,-2.591,-2.6119,-2.6807,-2.7024,-2.7214,-2.7947,-2.8599,-2.9174,-2.9602,-3.0599,-3.1533,-3.1903,-3.1582,-3.1584,-3.2382,-3.1489,-3.094,-3.1278,-3.1437,-3.1625,-3.1784,-3.2038,-3.2247,-3.2398,-3.2703,-3.2951,-3.3096,-3.3346,-3.4139,-3.5522,-3.5867,-3.6738,-3.8173,-3.8432,-3.8616,-3.8616,-3.8766,-3.8805,1.9385,1.907,1.8594,1.8425,1.8103,1.7627,1.7229,1.6812,1.6515,1.6353,1.6059,1.5951,1.607,1.5748,1.5384,1.5412,1.4777,0.0,1.453,1.384,0.0,1.2969,1.2408,1.1673,1.0802,1.0249,0.0,0.0,0.7374,0.6262,0.526,0.459,0.3675,0.242,0.1862,0.0972,-0.021,-0.1549,-0.2654,-0.3455,-0.4545,-0.5336,-0.5937,-0.6939,-0.7878,-0.8747,-0.9468,-1.0233,-1.0874,-1.1473,-1.2201,-1.2973,-1.3587,-1.4328,-1.5173,-1.5658,-1.6394,-1.7131,-1.77,-1.8425,-1.9152,-1.9706,-2.0411,-2.1031,-2.1425,-2.1949,-2.2553,-2.3224,-2.3446,-2.3824,-2.4574,-2.479,-2.5004,-2.57,-2.591,-2.6119,-2.6807,-2.7024,-2.7214,-2.7947,-2.8657,-2.9278,-2.9862,-3.0527,-3.1183,-3.1911,-3.1694,-3.1598,-3.1944,-3.1394,-3.1117,-3.1437,-3.164,-3.1826,-3.2094,-3.2247,-3.2398,-3.2523,-3.2881,-3.3112,-3.3256,-3.3398,-3.4021,-3.5112,-3.5734,-3.6535,-3.7676,-3.83,-3.8672,-3.875,-3.886,-3.8969,2.0187,1.9784,1.9311,1.9063,1.8674,1.8282,1.7797,1.7473,1.7139,1.664,1.6431,1.6301,1.6126,1.5915,1.5623,1.5611,1.5171,1.4874,1.5034,1.4593,1.4057,1.3691,1.3202,1.2441,1.1564,1.0798,1.0139,0.0,0.8149,0.693,0.5817,0.526,0.4332,0.306,0.2495,0.1489,0.0,-0.1218,-0.2221,-0.2826,-0.393,-0.4834,-0.5634,-0.6481,-0.7501,-0.8483,0.0,-0.9561,-1.0353,-1.0962,-1.1625,-1.2443,-1.3222,-1.4068,-1.4894,-1.5323,-1.5924,-1.6645,-1.7033,-1.7613,-1.8351,-1.9214,-1.9841,-2.0377,-2.0846,-2.1355,-2.1942,-2.2523,-2.2811,-2.3086,-2.3886,-2.4261,-2.4637,-2.5347,-2.5738,-2.6119,-2.6807,-2.7079,-2.7348,-2.8131,-2.8716,-2.921,-2.967,-3.0186,-3.0628,-3.1111,-3.1166,-3.1302,-3.1483,-3.1294,-3.1292,-3.1582,-3.1769,-3.1996,-3.2231,-3.2398,-3.2578,-3.2812,-3.3043,-3.3256,-3.3398,-3.3555,-3.4082,-3.4961,-3.5813,-3.6615,-3.7492,-3.8351,-3.8821,-3.8914,-3.904,-3.9148,2.0799,2.0333,1.9942,1.9539,1.9231,1.8922,1.8273,1.8121,1.7789,1.6976,1.6885,1.6692,1.6078,1.6034,1.5979,1.547,1.5444,1.5454,1.523,1.5107,1.4888,1.433,1.3743,1.3202,1.2436,1.1455,1.0582,0.9923,0.8592,0.7374,0.6485,0.5804,0.4865,0.3474,0.2883,0.1772,0.0101,-0.0707,-0.1515,-0.2321,-0.3429,-0.4429,-0.5413,-0.611,-0.7015,-0.802,0.0,0.0,-0.9862,-1.0372,-1.1149,-1.2095,-1.2923,-1.3672,-1.4386,-1.4896,-1.5348,-1.5873,-1.6333,-1.6791,-1.7336,-1.8561,-1.9209,-1.9568,-2.0021,-2.0523,-2.109,-2.1651,-2.1987,-2.2252,-2.3001,-2.3532,-2.408,-2.4854,-2.5406,-2.6008,-2.6705,-2.7162,-2.7669,-2.8457,-2.8844,-2.9162,-2.9415,-2.9803,-3.0111,-3.0172,-3.0536,-3.0895,-3.1073,-3.1234,-3.1467,-3.1784,-3.194,-3.215,-3.2398,-3.2578,-3.2757,-3.3096,-3.3256,-3.3398,-3.3503,-3.3745,-3.4204,-3.4868,-3.5857,-3.6714,-3.7416,-3.8422,-3.8941,-3.9023,-3.9218,-3.9325,2.1425,2.0954,2.0489,2.0401,1.9775,1.9222,1.9063,1.8514,1.7878,1.7619,1.7106,1.6664,1.6545,1.6374,1.617,1.5986,1.5819,1.5744,1.5727,1.5411,1.4991,1.4545,1.4277,1.363,1.2545,1.2001,0.0,0.0,0.0,0.8488,0.7154,0.6399,0.5186,0.3356,0.2571,0.1625,0.0707,-0.0404,-0.1212,-0.1717,-0.2826,-0.3601,-0.4232,-0.5194,-0.6149,-0.6885,0.0,0.0,-0.9486,-1.0309,-1.1149,-1.2077,-1.2547,-1.3131,-1.3763,-1.4186,-1.4773,-1.5312,-1.5867,-1.6405,-1.6876,-1.8073,-1.8767,-1.9224,-1.9815,-2.0298,-2.0846,-2.1269,-2.1768,-2.2252,-2.2889,-2.3218,-2.3546,-2.4225,-2.4853,-2.545,-2.6187,-2.721,-2.8079,-2.8522,-2.8844,-2.9226,-2.9477,-2.9865,-3.0172,-3.0462,-3.0836,-3.1073,-3.1234,-3.1394,-3.161,-3.194,-3.2094,-3.2247,-3.2523,-3.2718,-3.2951,-3.3096,-3.3361,-3.3555,-3.3658,-3.3813,-3.4048,-3.4429,-3.5196,-3.6032,-3.7028,-3.7821,-3.8533,-3.9272,-3.9379,-3.9448,2.1731,2.1272,2.0886,2.0644,2.0089,1.9539,1.9381,1.8834,1.8282,1.7951,1.7383,1.6868,1.6711,1.6342,1.614,1.6185,1.5957,1.5812,1.5999,1.5714,1.545,1.5112,1.4629,1.4169,1.3413,1.2654,1.1896,0.0,0.0,0.9261,0.7712,0.633,0.5108,0.3841,0.3057,0.2221,0.1212,0.0404,-0.0404,-0.1212,-0.2198,-0.3165,-0.3917,-0.4888,-0.573,-0.6633,0.0,0.0,-0.8982,-0.9661,-1.0384,-1.1207,-1.1717,-1.2432,-1.312,-1.3535,-1.4117,-1.4782,-1.5279,-1.5698,-1.6223,-1.7126,-1.7825,-1.8402,-1.8904,-1.9461,-2.007,-2.0468,-2.0951,-2.1496,-2.1958,-2.2418,-2.3024,-2.3612,-2.4471,-2.5403,-2.6297,-2.7091,-2.7887,-2.8712,-2.8972,-2.9226,-2.9651,-2.9913,-3.0233,-3.0582,-3.0895,-3.119,-3.1394,-3.1625,-3.1796,-3.1996,-3.2191,-3.2413,-3.2718,-3.2897,-3.3096,-3.3309,-3.3503,-3.3642,-3.3797,-3.3949,-3.4101,-3.43,-3.5117,-3.5774,-3.6322,-3.751,-3.8377,-3.8814,-3.9318,-3.9554,2.1883,2.1502,2.1205,2.0809,2.0411,1.9942,1.9539,1.9161,1.8692,1.8201,1.7627,1.7139,1.6738,1.6362,1.6181,1.6309,1.6097,1.5971,1.6179,1.6123,1.591,1.5573,1.5093,1.4708,1.4277,1.3197,0.0,0.0,0.0,0.0,0.7959,0.6343,0.5039,0.433,0.3659,0.2826,0.1818,0.1111,0.0302,-0.0703,-0.1679,-0.2635,-0.3675,-0.4404,-0.5339,-0.6312,0.0,0.0,0.0,-0.8943,-0.9615,-1.0299,-1.0972,-1.175,-1.2497,-1.2988,-1.355,-1.4119,-1.4592,-1.5078,-1.5568,-1.6263,-1.7019,-1.7706,-1.8134,-1.8741,-1.9285,-1.9736,-2.0205,-2.0733,-2.1031,-2.1725,-2.2462,-2.3135,-2.423,-2.5395,-2.6296,-2.6797,-2.7413,-2.8656,-2.8906,-2.9136,-2.9732,-2.9974,-3.0233,-3.0642,-3.0955,-3.119,-3.1495,-3.1811,-3.2053,-3.2094,-3.2302,-3.2578,-3.2843,-3.3058,-3.3256,-3.3503,-3.3642,-3.3797,-3.3899,-3.405,-3.4201,-3.4349,-3.5054,-3.5531,-3.5861,-3.7118,-3.7917,-3.8169,-3.897,-3.9408,2.1883,2.1655,2.1436,2.1205,2.0809,2.0411,1.9942,1.9548,1.9073,1.8514,1.7942,1.7456,1.6812,1.6766,1.6682,1.6389,1.6541,1.6608,1.6276,1.6421,1.6309,1.5573,1.5623,0.0,1.4277,1.3635,0.0,0.0,0.0,0.0,0.0,0.6607,0.5663,0.4748,0.3934,0.3126,0.2321,0.1313,0.0401,-0.0492,-0.1277,-0.2023,-0.2787,-0.3519,-0.4298,-0.5201,0.0,0.0,0.0,-0.8624,-0.9354,-1.006,-1.0706,-1.1319,-1.1914,-1.2458,-1.2942,-1.3382,-1.4152,-1.4784,-1.5346,-1.5921,-1.6612,-1.7373,-1.8066,-1.8539,-1.8942,-1.9473,-2.0009,-2.0464,-2.0839,-2.1331,-2.2076,-2.3177,-2.4017,-2.4816,-2.5709,-2.6139,-2.6733,-2.8037,-2.8284,-2.8636,-2.9889,-3.0111,-3.0294,-3.0955,-3.1087,-3.1264,-3.1727,-3.1883,-3.2094,-3.2342,-3.2523,-3.2648,-3.2897,-3.315,-3.3346,-3.3503,-3.3745,-3.3899,-3.3899,-3.4151,-3.4349,-3.4497,-3.466,-3.5184,-3.6009,-3.624,-3.6753,-3.7436,-3.8422,-3.8875,2.2025,2.1655,2.1282,2.1205,2.0809,2.0342,1.9942,1.9627,1.9143,1.8692,1.8201,1.7708,1.7229,1.6932,1.6783,1.6725,1.6558,1.6505,1.6686,1.6551,1.6255,1.5935,1.5805,1.5399,0.0,0.0,0.0,0.0,0.0,0.0,0.0,0.6953,0.6055,0.5338,0.4533,0.3731,0.2927,0.1998,0.1088,0.0295,-0.0575,-0.1504,-0.2404,-0.3289,-0.4066,-0.4832,0.0,0.0,0.0,-0.7714,-0.8478,-0.9269,-0.9916,-1.0591,-1.1244,-1.178,-1.2332,-1.2806,-1.3384,-1.3937,-1.4484,-1.5095,-1.5869,-1.6723,-1.7639,-1.825,-1.8721,-1.9274,-1.9802,-2.0324,-2.0658,-2.1371,-2.2183,-2.2824,-2.3477,-2.4236,-2.5123,-2.5546,-2.6143,-2.7418,-2.7695,-2.8005,-2.8793,-2.9402,-2.9957,-3.0411,-3.0924,-3.1424,-3.1826,-3.194,-3.215,-3.2468,-3.2648,-3.2843,-3.3005,-3.3256,-3.3503,-3.3607,-3.3813,-3.3949,-3.4151,-3.425,-3.4399,-3.4611,-3.4691,-3.4936,-3.5442,-3.5939,-3.6451,-3.6896,-3.7748,-3.8199,2.2035,2.1655,2.1282,2.1205,2.0819,2.0342,2.0029,1.9706,1.9311,1.8772,1.8371,1.7951,1.7546,1.7139,1.6877,1.7154,1.6815,1.6683,1.7066,1.6752,1.6373,1.6373,0.0,1.5602,0.0,0.0,0.0,0.0,0.0,0.0,0.0,0.7541,0.6589,0.5837,0.4912,0.4102,0.3403,0.2554,0.165,0.0869,-0.0094,-0.1014,-0.1925,-0.28,-0.3575,0.0,0.0,0.0,0.0,-0.7042,-0.7791,-0.8595,-0.9224,-0.9954,-1.0677,-1.1297,-1.181,-1.2263,-1.2795,-1.3318,-1.3784,-1.4387,-1.5103,-1.5909,-1.692,-1.7773,-1.8519,-1.9075,-1.9726,-2.0313,-2.0775,-2.1549,-2.2247,-2.2616,-2.315,-2.379,-2.4549,-2.4998,-2.5585,-2.6799,-2.7176,-2.7509,-2.8111,-2.88,-2.9434,-2.9719,-3.0508,-3.1225,-3.1637,-3.1916,-3.2262,-3.2648,-3.2827,-3.3005,-3.315,-3.3398,-3.3607,-3.3745,-3.3899,-3.4101,-3.43,-3.4399,-3.4497,-3.4707,-3.4804,-3.4899,-3.5088,-3.5716,-3.6078,-3.6266,-3.7101,-3.7669,2.1883,2.1655,2.1425,2.1282,2.1061,2.0751,2.002,1.9863,1.9636,1.8851,1.8523,1.8273,1.7781,1.7375,1.721,1.7589,1.7262,1.7048,1.7238,1.7127,1.696,0.0,0.0,1.6223,1.5974,0.0,0.0,0.0,0.0,0.0,0.0,0.8485,0.7391,0.6431,0.5246,0.4413,0.392,0.2788,0.1792,0.1111,0.037,-0.0366,-0.1166,-0.1885,0.0,0.0,0.0,0.0,0.0,-0.6711,-0.7489,-0.8183,-0.9018,-0.9633,-1.022,-1.1006,-1.1473,-1.1778,-1.2398,-1.2923,-1.3443,-1.3999,-1.4527,-1.505,-1.5781,-1.7071,-1.8405,-1.8931,-1.9736,-2.0529,-2.1198,-2.1788,-2.2247,-2.2616,-2.315,-2.3675,-2.4028,-2.4492,-2.5138,-2.6224,-2.6608,-2.7117,-2.804,-2.8425,-2.8693,-2.9057,-2.9937,-3.0633,-3.0955,-3.1833,-3.2523,-3.2843,-3.3005,-3.315,-3.3309,-3.3555,-3.3761,-3.3899,-3.4151,-3.43,-3.43,-3.4546,-3.4691,-3.4691,-3.4947,-3.5088,-3.5088,-3.5354,-3.5508,-3.5525,-3.6446,-3.7359,2.1436,2.1205,2.1051,2.0984,2.0819,2.0576,2.002,1.9863,1.9706,1.9002,1.8772,1.8442,1.7951,1.7754,1.7668,1.7715,1.7632,1.7583,1.7561,1.7327,1.7032,1.6667,1.5972,1.5469,0.0,0.0,0.0,0.0,0.0,0.0,0.0,0.0,0.7723,0.6896,0.5719,0.4901,0.4325,0.3299,0.2419,0.185,0.0912,0.009,-0.0614,-0.1492,0.0,0.0,0.0,0.0,0.0,-0.5726,-0.6608,-0.7518,-0.8189,-0.8947,-0.9585,-1.0036,-1.0461,-1.0896,-1.1423,-1.1988,-1.2561,-1.2956,-1.368,-1.4455,-1.4899,-1.6159,-1.775,-1.8926,-1.9813,-2.0464,-2.0967,-2.1537,-2.2061,-2.2432,-2.2969,-2.3569,-2.4015,-2.4478,-2.5016,-2.563,-2.6092,-2.6465,-2.6978,-2.7748,-2.8434,-2.8732,-2.946,-3.015,-3.0418,-3.0814,-3.1149,-3.141,-3.2076,-3.2756,-3.3351,-3.3607,-3.3813,-3.4,-3.4201,-3.4399,-3.4546,-3.4643,-3.4804,-3.4947,-3.5041,-3.5198,-3.5383,-3.5446,-3.5583,-3.5701,-3.61,-3.6471,2.1128,2.1061,2.0906,2.0906,2.0741,2.0489,2.002,1.9863,1.9706,1.9161,1.8959,1.8742,1.8417,1.8313,1.8267,1.8193,1.8071,1.7978,1.7855,1.752,0.0,1.6524,0.0,0.0,0.0,0.0,0.0,0.0,0.0,0.0,0.0,0.0,0.8195,0.754,0.6239,0.5268,0.4801,0.3783,0.3015,0.2469,0.1522,0.0704,0.0,0.0,0.0,0.0,0.0,0.0,0.0,-0.5268,-0.6152,-0.7064,-0.7725,-0.8356,-0.8986,-0.9445,-0.9862,-1.0217,-1.0749,-1.131,-1.1872,-1.2251,-1.3137,-1.4153,-1.4719,-1.5914,-1.7298,-1.8485,-1.9212,-1.9838,-2.0448,-2.1058,-2.1675,-2.2249,-2.2909,-2.3509,-2.4015,-2.4536,-2.5018,-2.5439,-2.5867,-2.6272,-2.6457,-2.7229,-2.7891,-2.8151,-2.8944,-2.9591,-2.9873,-3.0294,-3.0654,-3.0908,-3.152,-3.226,-3.323,-3.3636,-3.3949,-3.4151,-3.4349,-3.4546,-3.4756,-3.4835,-3.4947,-3.5198,-3.5245,-3.5337,-3.5492,-3.5583,-3.5745,-3.5949,-3.6036,-3.6105,0.0,2.0984,2.0906,2.0906,2.0731,2.0489,2.002,1.9863,0.0,1.9197,1.9164,1.9177,1.8972,1.8871,1.8891,1.9057,1.8677,1.8265,1.8133,1.7707,0.0,0.0,1.6473,0.0,0.0,0.0,0.0,0.0,0.0,0.0,0.0,0.0,0.8619,0.8159,0.6709,0.5707,0.525,0.4332,0.3573,0.295,0.2102,0.1386,0.0777,0.0,0.0,0.0,0.0,0.0,0.0,-0.5148,-0.5914,-0.6607,-0.74,-0.7886,-0.8285,-0.9025,-0.9485,-0.9804,-1.0371,-1.087,-1.1365,-1.1934,-1.2972,-1.4132,-1.505,-1.6081,-1.7056,-1.7781,-1.8222,-1.8746,-1.9851,-2.0465,-2.1067,-2.2055,-2.2797,-2.3395,-2.3897,-2.45,-2.5063,-2.537,-2.5879,-2.6326,-2.651,-2.6893,-2.7335,-2.7575,-2.8369,-2.9032,-2.9285,-3.0126,-3.0751,-3.1016,-3.1244,-3.1774,-3.2773,-3.3582,-3.4102,-3.43,-3.4546,-3.4787,-3.4899,-3.5041,-3.5198,-3.5291,-3.5446,-3.5537,-3.5537,-3.5745,-3.5966,-3.6225,-3.6208,-3.6251,2.0186,0.0,2.0654,2.0654,2.0644,2.0489,0.0,1.9863,1.9878,1.9723,1.9607,1.9513,1.9574,1.9506,1.944,1.9356,1.9159,1.8907,1.8627,1.7893,0.0,1.6883,1.6375,0.0,0.0,0.0,0.0,0.0,0.0,0.0,0.0,0.0,0.897,0.852,0.7368,0.6388,0.5584,0.459,0.3934,0.3587,0.2654,0.1848,0.132,0.0,0.0,0.0,0.0,0.0,0.0,-0.4215,-0.5021,-0.5702,-0.6291,-0.6869,-0.7536,-0.8128,-0.8679,-0.9274,-0.9919,-1.0555,-1.131,-1.2305,-1.3103,-1.3709,-1.4297,-1.5336,-1.6473,-1.7379,-1.7955,-1.8405,-1.9132,-1.9707,-2.0276,-2.0852,-2.1469,-2.2096,-2.2656,-2.3592,-2.4409,-2.4776,-2.5638,-2.6379,-2.663,-2.7063,-2.7503,-2.7855,-2.829,-2.8593,-2.8773,-2.9185,-2.9517,-2.958,-3.0369,-3.1033,-3.135,-3.2562,-3.3649,-3.4561,-3.4739,-3.4899,-3.5041,-3.5198,-3.5308,-3.5446,-3.5656,-3.5773,-3.5888,-3.6036,-3.614,-3.6208,-3.6377,-3.6461,1.9715,2.002,2.0255,2.0255,2.0333,2.0333,1.9872,1.9863,1.9907,1.9924,1.9907,1.9985,2.022,2.0167,2.0064,1.9805,1.9612,1.9379,0.0,0.0,1.752,1.7153,1.677,0.0,0.0,0.0,0.0,0.0,0.0,0.0,0.0,0.0,0.9428,0.8903,0.7945,0.6944,0.5987,0.5229,0.4488,0.385,0.318,0.2549,0.1868,0.0,0.0,0.0,0.0,0.0,-0.2849,-0.3644,-0.4357,-0.5056,-0.5606,-0.6296,-0.6942,-0.7526,-0.8112,-0.8753,-0.9466,-1.0301,-1.1247,-1.2182,-1.2858,-1.3398,-1.395,-1.4754,-1.5631,-1.6538,-1.7077,-1.7664,-1.8423,-1.9019,-1.9599,-2.0354,-2.0974,-2.1549,-2.2102,-2.2869,-2.3703,-2.4379,-2.5194,-2.5997,-2.6573,-2.7063,-2.7554,-2.7955,-2.8201,-2.846,-2.8684,-2.8951,-2.9137,-2.9275,-2.9913,-3.0493,-3.103,-3.1854,-3.2922,-3.4225,-3.4386,-3.4738,-3.5274,-3.5367,-3.5549,-3.5745,-3.5817,-3.5949,-3.6079,-3.6208,-3.6293,-3.6335,-3.652,-3.6602,1.946,1.9636,1.9784,1.9863,2.0108,2.0186,1.9715,1.9841,2.008,2.0016,2.0254,2.0494,2.0797,2.0882,2.0744,2.0382,2.011,0.0,1.892,1.8458,1.7986,1.7512,0.0,0.0,0.0,0.0,0.0,0.0,0.0,0.0,0.0,0.0,0.0,0.9387,0.8504,0.7543,0.6505,0.5832,0.5106,0.4178,0.3838,0.3311,0.2423,0.1981,0.0,0.0,0.0,0.0,-0.2343,-0.3085,-0.3798,-0.4466,-0.5136,-0.5801,-0.635,-0.7068,-0.7652,-0.8236,-0.9011,-1.0098,-1.1185,-1.1809,-1.249,-1.3103,-1.3769,-1.43,-1.4883,-1.5584,-1.6171,-1.6779,-1.7816,-1.8385,-1.8998,-1.9954,-2.0628,-2.1199,-2.1626,-2.2219,-2.295,-2.3957,-2.4696,-2.5502,-2.6399,-2.7056,-2.7554,-2.7955,-2.825,-2.8556,-2.8779,-2.8998,-2.9275,-2.9518,-2.9694,-3.0201,-3.1101,-3.1325,-3.2034,-3.3466,-3.3739,-3.4287,-3.5166,-3.5256,-3.5416,-3.5677,-3.5677,-3.5831,-3.6096,-3.6146,-3.6281,-3.6544,-3.6643,-3.6742,1.8982,1.9231,1.946,1.9784,2.0108,2.0186,1.9951,2.0296,2.0747,2.0661,2.0996,2.1327,2.1318,2.1257,2.1122,2.0744,0.0,1.9654,0.0,0.0,1.855,0.0,0.0,0.0,0.0,0.0,0.0,0.0,0.0,0.0,0.0,0.0,0.0,0.9611,0.8906,0.8065,0.7262,0.6212,0.5476,0.4971,0.4537,0.3936,0.3229,0.2594,0.1883,0.0,0.0,0.0,-0.166,-0.2362,-0.309,-0.3834,-0.4493,-0.5113,-0.5624,-0.6284,-0.7003,-0.7782,-0.9069,-1.0098,-1.0933,-1.1615,-1.2359,-1.3103,-1.3649,-1.424,-1.4834,-1.5352,-1.5884,-1.6477,-1.7164,-1.7812,-1.8386,-1.8904,-1.9454,-1.997,-2.0399,-2.1354,-2.2266,-2.2756,-2.411,-2.5374,-2.5857,-2.6849,-2.769,-2.797,-2.8396,-2.8779,-2.8873,-2.9213,-2.9502,-2.9722,-2.987,-3.0152,-3.0591,-3.065,-3.1166,-3.2295,-3.2949,-3.3498,-3.3905,-3.3955,-3.4062,-3.4202,-3.4289,-3.4697,-3.5509,-3.5573,-3.5983,-3.6643,-3.6748,-3.6869,1.8482,1.8737,1.8948,1.9483,1.9863,2.0087,2.0076,2.0505,2.0991,2.1306,2.1513,2.1689,2.1756,2.1651,2.1383,2.0916,0.0,2.0019,1.9654,1.9387,0.0,0.0,0.0,0.0,0.0,0.0,0.0,0.0,0.0,0.0,0.0,0.0,0.0,0.0,0.9433,0.8791,0.7982,0.7336,0.6585,0.5562,0.5188,0.4693,0.4073,0.345,0.2744,0.0,0.0,0.0,-0.0887,-0.173,-0.2455,-0.3143,-0.3775,-0.4422,-0.5093,-0.602,-0.6872,-0.7652,-0.8753,-0.9588,-1.0415,-1.1178,-1.1996,-1.2736,-1.3338,-1.4052,-1.4706,-1.5235,-1.5826,-1.6467,-1.7022,-1.7634,-1.8205,-1.8691,-1.9158,-1.9617,-2.0042,-2.0693,-2.1488,-2.2328,-2.3325,-2.4319,-2.5077,-2.6159,-2.7036,-2.7282,-2.8102,-2.8716,-2.8873,-2.9259,-2.9592,-2.9766,-3.0,-3.0231,-3.0485,-3.0651,-3.1115,-3.2141,-3.2983,-3.3532,-3.3738,-3.3842,-3.3905,-3.4042,-3.4177,-3.4406,-3.4866,-3.4948,-3.5182,-3.557,-3.6124,-3.6412,1.7908,1.8231,1.8529,1.9003,1.9474,1.9976,2.032,2.0733,2.1255,2.1769,2.1997,2.2072,2.212,2.1919,2.1553,2.1177,2.0736,2.0439,2.0262,0.0,0.0,0.0,0.0,0.0,0.0,0.0,0.0,0.0,0.0,0.0,0.0,0.0,0.0,0.0,0.9995,0.9408,0.8631,0.8435,0.7592,0.6173,0.6012,0.5532,0.4889,0.4271,0.3563,0.2618,0.1588,0.074,-0.0072,-0.106,-0.1862,-0.2552,-0.3155,-0.3889,-0.4758,-0.5756,-0.6609,-0.7396,-0.8242,-0.9011,-0.9773,-1.0674,-1.149,-1.2297,-1.3086,-1.3812,-1.4597,-1.5235,-1.5826,-1.6467,-1.7022,-1.7634,-1.8205,-1.8691,-1.9105,-1.9577,-1.9939,-2.0372,-2.0954,-2.2034,-2.2671,-2.3364,-2.4316,-2.5385,-2.6236,-2.6525,-2.7455,-2.8171,-2.8433,-2.8926,-2.9335,-2.961,-2.9989,-3.0359,-3.0651,-3.0855,-3.1331,-3.2106,-3.2764,-3.3208,-3.3407,-3.3451,-3.3567,-3.3699,-3.381,-3.4007,-3.4181,-3.4259,-3.444,-3.4708,-3.5416,-3.5895,1.7142,1.7796,1.8389,1.8416,1.9182,2.0055,2.0472,2.1207,2.188,2.2092,2.2486,2.2677,2.2432,2.1998,2.1731,2.1651,2.1275,2.0694,0.0,0.0,0.0,0.0,0.0,0.0,0.0,0.0,0.0,0.0,0.0,0.0,0.0,0.0,0.0,0.0,0.0,0.9868,0.9271,0.9045,0.8291,0.7103,0.6865,0.6402,0.5588,0.4986,0.4254,0.3289,0.2335,0.1366,0.0492,-0.0491,-0.131,-0.2018,-0.2755,-0.3689,-0.4691,-0.5226,-0.5888,-0.6613,-0.7451,-0.8361,-0.921,-1.0231,-1.1115,-1.205,-1.3025,-1.3761,-1.4369,-1.5177,-1.5826,-1.6467,-1.7022,-1.7634,-1.8205,-1.8691,-1.921,-1.972,-2.008,-2.051,-2.097,-2.1512,-2.2394,-2.3154,-2.3665,-2.4601,-2.5408,-2.5785,-2.6336,-2.6769,-2.7103,-2.7981,-2.8699,-2.909,-2.988,-3.0568,-3.1112,-3.1235,-3.1368,-3.161,-3.1716,-3.1788,-3.1955,-3.2012,-3.2104,-3.2247,-3.2318,-3.2774,-3.3582,-3.3688,-3.4129,-3.4871,-3.4942,-3.5438,1.653,1.7292,1.7948,1.8326,1.9155,2.0055,2.0472,2.1236,2.2002,2.2347,2.2679,2.2882,2.2706,2.2353,2.2092,2.1839,2.1443,0.0,0.0,0.0,0.0,0.0,0.0,0.0,0.0,0.0,0.0,0.0,0.0,0.0,0.0,0.0,0.0,0.0,0.0,1.0593,0.9775,0.9756,0.9238,0.8384,0.7586,0.6968,0.6393,0.5663,0.4832,0.3919,0.2931,0.1908,0.0909,-0.0069,-0.095,-0.1816,-0.2757,-0.3424,-0.402,-0.4691,-0.5355,-0.6013,-0.6924,-0.7837,-0.8812,-0.9773,-1.0793,-1.1757,-1.2394,-1.3331,-1.4314,-1.4869,-1.5729,-1.6627,-1.7245,-1.7799,-1.8398,-1.8999,-1.9525,-1.9978,-2.0372,-2.0772,-2.1166,-2.152,-2.2144,-2.2692,-2.2958,-2.3912,-2.471,-2.5002,-2.5773,-2.6468,-2.6863,-2.7359,-2.7859,-2.8315,-2.9336,-3.0346,-3.1117,-3.1346,-3.1521,-3.1709,-3.1709,-3.1783,-3.1839,-3.202,-3.2144,-3.2267,-3.2371,-3.2562,-3.2947,-3.2998,-3.3225,-3.3628,-3.4141,-3.4618,1.5961,1.6741,1.7507,1.8042,1.8979,1.9866,2.0273,2.1115,2.1879,2.231,2.2709,2.2916,2.2744,2.2486,0.0,0.0,0.0,0.0,0.0,0.0,0.0,0.0,0.0,0.0,0.0,0.0,0.0,0.0,0.0,0.0,0.0,0.0,0.0,0.0,0.0,0.0,1.0509,1.0272,0.9886,0.9369,0.8398,0.7642,0.7144,0.6365,0.5486,0.4529,0.3479,0.2418,0.138,0.0406,-0.0672,-0.1681,-0.2555,-0.309,-0.3489,-0.4092,-0.4758,-0.5484,-0.6334,-0.7316,-0.8361,-0.9326,-1.0286,-1.1232,-1.1905,-1.2873,-1.3901,-1.4543,-1.5553,-1.6549,-1.7424,-1.8018,-1.8614,-1.9303,-1.9823,-2.0283,-2.0709,-2.1118,-2.1471,-2.1746,-2.2137,-2.2463,-2.2646,-2.3387,-2.4044,-2.4312,-2.5045,-2.5703,-2.6193,-2.6619,-2.716,-2.7954,-2.9121,-3.014,-3.0879,-3.1342,-3.1651,-3.1819,-3.1946,-3.2001,-3.1984,-3.2179,-3.2301,-3.2422,-3.2507,-3.259,-3.2639,-3.2672,-3.2755,-3.2888,-3.3505,-3.3945,1.5355,1.6188,1.7016,1.7516,1.843,1.944,1.9847,2.075,2.1669,2.2116,2.2359,2.2523,2.2523,2.2267,0.0,0.0,0.0,0.0,0.0,0.0,0.0,0.0,0.0,0.0,0.0,0.0,0.0,0.0,0.0,0.0,0.0,0.0,0.0,0.0,0.0,0.0,1.1287,1.0542,1.014,0.9868,0.9273,0.8559,0.7777,0.7018,0.6101,0.502,0.3954,0.295,0.2013,0.094,-0.0336,-0.1614,-0.2018,-0.2624,-0.3226,-0.3625,-0.4228,-0.4894,-0.5815,-0.6732,-0.7717,-0.8882,-0.9725,-1.053,-1.1657,-1.2347,-1.303,-1.4259,-1.521,-1.6201,-1.7543,-1.8344,-1.8946,-1.946,-2.0105,-2.0709,-2.1131,-2.152,-2.1902,-2.2137,-2.2324,-2.2509,-2.2844,-2.3024,-2.326,-2.3739,-2.3952,-2.4287,-2.4726,-2.5607,-2.672,-2.8147,-2.9226,-3.004,-3.0372,-3.1242,-3.1819,-3.1894,-3.2232,-3.2354,-3.2214,-3.2319,-3.2422,-3.2507,-3.2573,-3.269,-3.2805,-3.2852,-3.2948,-3.3011,-3.3055,-3.3548,1.5138,1.6045,1.687,1.7432,1.843,1.944,2.009,2.0829,2.1669,2.2269,2.2441,2.2523,2.2523,2.2441,0.0,0.0,0.0,0.0,0.0,0.0,0.0,0.0,0.0,0.0,0.0,0.0,0.0,0.0,0.0,0.0,0.0,0.0,0.0,0.0,0.0,0.0,1.1249,1.1009,1.0692,1.0174,0.9771,0.9121,0.827,0.7418,0.6523,0.5609,0.455,0.3418,0.2147,0.047,-0.0605,-0.1344,-0.1951,-0.2356,-0.2691,-0.3226,-0.3825,-0.4556,-0.5355,-0.6276,-0.7251,-0.8361,-0.9458,-1.0444,-1.1026,-1.2077,-1.3102,-1.3588,-1.4834,-1.6256,-1.7171,-1.8383,-1.9512,-2.0016,-2.0623,-2.1118,-2.1568,-2.1996,-2.237,-2.2463,-2.2678,-2.2904,-2.3038,-2.3246,-2.3508,-2.3739,-2.4051,-2.4426,-2.495,-2.5438,-2.6243,-2.7474,-2.8059,-2.8943,-3.0362,-3.0797,-3.1392,-3.2197,-3.2354,-3.2388,-3.2354,-3.2456,-3.259,-3.2707,-3.2787,-3.2852,-3.2934,-3.3011,-3.3055,-3.3055,-3.3244,-3.343,1.4722,1.5618,1.6506,1.7193,1.8183,1.9241,2.0362,2.1173,2.1746,2.2257,2.2388,2.2467,2.2467,2.2467,0.0,0.0,0.0,0.0,0.0,0.0,0.0,0.0,0.0,0.0,0.0,0.0,0.0,0.0,0.0,0.0,0.0,0.0,0.0,0.0,0.0,0.0,1.1507,1.1323,0.0,1.0491,1.0244,0.9664,0.8877,0.7912,0.6999,0.6005,0.4486,0.3153,0.1947,0.047,-0.0403,-0.0941,-0.1614,-0.2018,-0.2356,-0.2891,-0.3558,-0.4223,-0.4894,-0.5815,-0.6859,-0.7967,-0.9053,-1.0096,-1.0814,-1.1752,-1.2808,-1.3572,-1.4826,-1.6137,-1.7342,-1.8618,-1.9759,-2.0359,-2.097,-2.1568,-2.1949,-2.2402,-2.2737,-2.2873,-2.3083,-2.326,-2.3348,-2.3566,-2.3739,-2.3967,-2.4343,-2.471,-2.5107,-2.5454,-2.5954,-2.6819,-2.7425,-2.8386,-2.9935,-3.0507,-3.1237,-3.2353,-3.2457,-3.2366,-3.2133,-3.2196,-3.2435,-3.282,-3.2662,-3.2706,-3.3042,-3.3165,-3.3226,-3.3226,-3.3422,-3.3481,1.4247,1.5063,1.591,1.6668,1.7734,1.8993,2.0741,2.1466,2.1769,2.1952,2.2157,2.2275,2.2275,2.2275,0.0,0.0,0.0,0.0,0.0,0.0,0.0,0.0,0.0,0.0,0.0,0.0,0.0,0.0,0.0,0.0,0.0,0.0,0.0,0.0,0.0,0.0,1.2056,1.1573,0.0,0.0,1.0688,1.0231,0.9454,0.8495,0.7391,0.6203,0.4154,0.2621,0.1614,0.0807,0.0134,-0.0538,-0.1076,-0.1681,-0.2221,-0.2755,-0.3291,-0.3892,-0.4561,-0.5484,-0.6531,-0.7637,-0.8708,-0.9688,-1.0823,-1.1559,-1.2324,-1.4071,-1.505,-1.6003,-1.7806,-1.8927,-1.9811,-2.051,-2.1251,-2.1949,-2.237,-2.2723,-2.3024,-2.3319,-2.3451,-2.3625,-2.3797,-2.3839,-2.3967,-2.4302,-2.4726,-2.5084,-2.5294,-2.5567,-2.5885,-2.626,-2.7195,-2.8219,-2.9231,-3.0248,-3.1236,-3.223,-3.2521,-3.2385,-3.1836,-3.1747,-3.2028,-3.2702,-3.2247,-3.2343,-3.3009,-3.3298,-3.3422,-3.3422,-3.3549,-3.3633,1.3974,1.4734,1.5428,1.6454,1.7944,1.9336,2.0171,2.0741,2.1207,2.1481,2.1428,2.1317,2.1439,0.0,0.0,0.0,0.0,0.0,0.0,0.0,0.0,0.0,0.0,0.0,0.0,0.0,0.0,0.0,0.0,0.0,0.0,0.0,0.0,0.0,0.0,1.2484,1.2227,1.1839,1.149,0.0,1.0933,1.0288,0.9454,0.8748,0.7386,0.5557,0.4087,0.2885,0.2014,0.0941,0.0135,-0.0404,-0.1076,-0.1547,-0.2018,-0.2552,-0.309,-0.3696,-0.4489,-0.5352,-0.6214,-0.7587,-0.8709,-0.9706,-1.0707,-1.1783,-1.285,-1.3817,-1.5083,-1.6468,-1.7595,-1.8897,-2.0144,-2.1019,-2.1698,-2.2278,-2.2814,-2.3201,-2.3508,-2.3653,-2.3824,-2.3994,-2.4036,-2.4219,-2.4441,-2.4806,-2.4926,-2.5139,-2.5502,-2.5696,-2.5974,-2.6349,-2.6843,-2.7554,-2.8606,-2.9567,-3.0582,-3.1638,-3.2417,-3.2813,-3.2715,-3.2107,-3.1601,-3.126,-3.1867,-3.2231,-3.2394,-3.3182,-3.3577,-3.3633,-3.3726,-3.3807,1.3181,1.4066,1.5118,1.6723,1.8093,1.9177,1.995,2.0417,2.0754,2.1047,2.1231,2.1431,2.1629,0.0,0.0,0.0,0.0,0.0,0.0,0.0,0.0,0.0,0.0,0.0,0.0,0.0,0.0,0.0,0.0,0.0,0.0,0.0,0.0,0.0,1.3255,1.2858,1.2552,1.2182,1.1872,1.1428,1.1122,1.0351,0.9204,0.8296,0.6994,0.5422,0.4353,0.3353,0.235,0.1344,0.0538,-0.0067,-0.0874,-0.148,-0.1951,-0.2621,-0.3157,-0.3761,-0.4558,-0.5352,-0.621,-0.7456,-0.8619,-0.9742,-1.0897,-1.2019,-1.3128,-1.4298,-1.5475,-1.6686,-1.7961,-1.9162,-2.0245,-2.1264,-2.1902,-2.2463,-2.3083,-2.348,-2.3739,-2.3994,-2.4177,-2.4302,-2.4328,-2.4549,-2.4806,-2.5045,-2.5162,-2.541,-2.5712,-2.5897,-2.617,-2.6521,-2.6792,-2.7363,-2.8429,-2.942,-3.0451,-3.1469,-3.2392,-3.28,-3.2607,-3.2193,-3.1827,-3.1488,-3.1646,-3.1929,-3.2365,-3.3259,-3.3726,-3.3807,-3.3868,-3.3921,1.2402,1.3462,1.4872,1.682,1.7858,1.8755,1.9748,2.0042,2.0325,2.0718,2.1171,2.1663,0.0,0.0,0.0,0.0,0.0,0.0,0.0,0.0,0.0,0.0,0.0,0.0,0.0,0.0,0.0,0.0,0.0,0.0,0.0,0.0,1.4189,1.395,1.37,1.339,1.292,1.2552,1.212,1.1685,1.1128,1.0223,0.8954,0.7752,0.6677,0.5613,0.4752,0.3754,0.2686,0.1814,0.0941,0.0202,-0.0672,-0.1412,-0.2018,-0.2755,-0.3357,-0.3892,-0.4628,-0.5422,-0.6338,-0.7447,-0.8613,-0.9831,-1.1205,-1.2313,-1.3401,-1.5013,-1.6007,-1.6948,-1.8484,-1.9423,-2.0295,-2.1361,-2.2044,-2.2586,-2.3216,-2.361,-2.3967,-2.4261,-2.4482,-2.4605,-2.4726,-2.4926,-2.5084,-2.5185,-2.5432,-2.5712,-2.5934,-2.6132,-2.6364,-2.6708,-2.6925,-2.7392,-2.8303,-2.9446,-3.0494,-3.1369,-3.2416,-3.2816,-3.2433,-3.2327,-3.2282,-3.2282,-3.1719,-3.1806,-3.2535,-3.343,-3.3895,-3.3947,-3.4023,-3.4099,1.197,1.3281,1.4671,1.5986,1.6911,1.7893,1.9014,1.961,2.0096,0.0,2.062,0.0,0.0,0.0,0.0,0.0,0.0,0.0,0.0,0.0,0.0,0.0,0.0,0.0,0.0,0.0,0.0,0.0,0.0,0.0,0.0,1.497,1.4725,1.4419,1.4121,0.0,1.339,1.2981,1.2498,1.1996,1.0527,0.9481,0.8871,0.7796,0.68,0.6009,0.502,0.4025,0.3092,0.2151,0.121,0.0202,-0.0538,-0.1277,-0.2018,-0.2755,-0.3357,-0.3892,-0.4758,-0.5613,-0.6531,-0.7772,-0.8935,-1.0205,-1.1516,-1.283,-1.4141,-1.5439,-1.6507,-1.7577,-1.8833,-1.9656,-2.0422,-2.1506,-2.2156,-2.2694,-2.3421,-2.3809,-2.412,-2.44,-2.4726,-2.5005,-2.5162,-2.5278,-2.5394,-2.5524,-2.5621,-2.5791,-2.6132,-2.6277,-2.6538,-2.6909,-2.7087,-2.7359,-2.7782,-2.9329,-3.0414,-3.0695,-3.2373,-3.3327,-3.3248,-3.2794,-3.2535,-3.2535,-3.246,-3.2493,-3.2679,-3.3592,-3.4099,-3.4173,-3.4221,-3.4293,1.2069,1.3171,1.4224,1.5331,1.6141,1.6967,1.8012,1.8511,1.9018,1.9716,0.0,0.0,0.0,0.0,0.0,0.0,0.0,0.0,0.0,0.0,0.0,0.0,0.0,0.0,0.0,0.0,0.0,0.0,0.0,0.0,1.5604,1.5205,1.484,1.4544,1.3976,0.0,1.3222,1.2655,1.2073,1.1367,1.0328,0.9557,0.8843,0.8071,0.7181,0.6133,0.5226,0.4361,0.356,0.2485,0.1545,0.0672,-0.0403,-0.1277,-0.2018,-0.2822,-0.3625,-0.4356,-0.5087,-0.5883,-0.6702,-0.7785,-0.8759,-0.9758,-1.1315,-1.2695,-1.3992,-1.5505,-1.6708,-1.782,-1.891,-1.9798,-2.0673,-2.1602,-2.2203,-2.2785,-2.3465,-2.3909,-2.4343,-2.4751,-2.5005,-2.5217,-2.541,-2.5486,-2.56,-2.577,-2.5917,-2.6115,-2.638,-2.6521,-2.6691,-2.707,-2.7261,-2.7652,-2.8375,-2.9662,-3.0743,-3.1397,-3.2672,-3.3481,-3.3633,-3.3396,-3.3353,-3.3487,-3.3019,-3.2804,-3.2852,-3.3764,-3.4269,-3.4363,-3.4404,-3.4473,1.1777,1.2735,1.3592,1.4676,1.5469,1.6311,1.7191,1.7781,1.8272,0.0,0.0,0.0,0.0,0.0,0.0,0.0,0.0,0.0,0.0,0.0,0.0,0.0,0.0,0.0,0.0,0.0,0.0,0.0,0.0,0.0,1.5777,1.5295,1.4849,1.4564,1.3927,1.3431,1.3159,1.2491,1.176,1.0929,1.0393,0.9724,0.8965,0.827,0.7441,0.6507,0.5557,0.469,0.3876,0.2758,0.184,0.0921,-0.0197,-0.1184,-0.1975,-0.2894,-0.3745,-0.4593,-0.5305,-0.6058,-0.6816,-0.7803,-0.8705,-0.9635,-1.1193,-1.2554,-1.3829,-1.5319,-1.6665,-1.7855,-1.8863,-1.9889,-2.0809,-2.165,-2.2296,-2.2875,-2.3638,-2.412,-2.4549,-2.5068,-2.5278,-2.541,-2.56,-2.5691,-2.5824,-2.6026,-2.6187,-2.638,-2.664,-2.6742,-2.6923,-2.7261,-2.7478,-2.8005,-2.9018,-3.0071,-3.111,-3.204,-3.2998,-3.3605,-3.3834,-3.3868,-3.4023,-3.4245,-3.365,-3.3352,-3.3376,-3.4041,-3.445,-3.4539,-3.4583,-3.4626,1.0646,1.1661,1.2841,1.3953,1.4925,1.5894,1.6976,0.0,1.8373,0.0,0.0,0.0,0.0,0.0,0.0,0.0,0.0,0.0,0.0,0.0,0.0,0.0,0.0,0.0,0.0,0.0,0.0,0.0,0.0,0.0,1.5342,1.5101,1.487,1.45,1.4204,1.3926,1.3549,1.2712,1.1991,1.1334,1.0501,0.979,0.9163,0.8298,0.768,0.7203,0.6054,0.4921,0.383,0.3151,0.21,0.0804,0.0,-0.0866,-0.1857,-0.2845,-0.3648,-0.4326,-0.5121,-0.6021,-0.6966,-0.7914,-0.9026,-1.0301,-1.1503,-1.2665,-1.3809,-1.5007,-1.6343,-1.7664,-1.8722,-1.981,-2.0858,-2.1746,-2.2342,-2.2965,-2.4036,-2.4523,-2.4862,-2.5201,-2.5448,-2.56,-2.5663,-2.5954,-2.6168,-2.6168,-2.6415,-2.6623,-2.6758,-2.6956,-2.7198,-2.7539,-2.7719,-2.8222,-2.9298,-3.0294,-3.1273,-3.2144,-3.3205,-3.3815,-3.3895,-3.4074,-3.4245,-3.4404,-3.448,-3.4483,-3.442,-3.452,-3.4623,-3.4687,-3.4752,-3.4792,1.0488,1.1285,1.2177,1.3202,1.4031,1.4856,1.583,1.6465,1.7053,0.0,0.0,0.0,0.0,0.0,0.0,0.0,0.0,0.0,0.0,0.0,0.0,0.0,0.0,0.0,0.0,0.0,0.0,0.0,0.0,0.0,1.5631,1.5177,1.4805,1.4512,1.3962,1.3411,1.2916,1.2395,1.1878,1.1303,1.0648,1.0001,0.9457,0.8765,0.8139,0.7488,0.6621,0.5657,0.4604,0.3623,0.2582,0.1417,0.0431,-0.0554,-0.154,-0.2523,-0.3503,-0.4421,-0.5275,-0.6037,-0.6919,-0.7897,-0.8807,-0.9792,-1.1182,-1.2369,-1.3584,-1.4914,-1.6158,-1.7267,-1.8202,-1.9107,-2.0199,-2.1737,-2.2864,-2.3696,-2.4343,-2.4751,-2.5084,-2.5317,-2.5546,-2.5717,-2.599,-2.6151,-2.6312,-2.6521,-2.6691,-2.6909,-2.7053,-2.723,-2.7448,-2.7701,-2.7893,-2.8429,-2.9493,-3.045,-3.1384,-3.2401,-3.3321,-3.3921,-3.4099,-3.4245,-3.4386,-3.4517,-3.4666,-3.4727,-3.4687,-3.473,-3.4772,-3.4888,-3.4908,-3.4945,0.9825,1.0673,1.1548,1.2442,1.3313,1.4121,1.5001,1.5642,1.6285,0.0,0.0,0.0,0.0,0.0,0.0,0.0,0.0,0.0,0.0,0.0,0.0,0.0,0.0,0.0,0.0,0.0,0.0,0.0,0.0,0.0,1.5592,1.5088,1.4672,1.4331,1.3776,1.3228,1.2754,1.2471,1.2076,1.1578,1.0964,1.0395,0.9829,0.9302,0.8718,0.8037,0.723,0.6188,0.5049,0.4045,0.2979,0.1911,0.0835,-0.0179,-0.1194,-0.2264,-0.3275,-0.4343,-0.5225,-0.6072,-0.6916,-0.7926,-0.8831,-0.971,-1.1075,-1.2229,-1.3401,-1.4747,-1.5943,-1.7015,-1.7877,-1.8967,-2.0239,-2.1886,-2.305,-2.3943,-2.4567,-2.495,-2.5224,-2.5432,-2.568,-2.5954,-2.6187,-2.6347,-2.6538,-2.6775,-2.699,-2.7184,-2.7324,-2.7539,-2.7736,-2.7922,-2.8091,-2.8649,-2.9656,-3.0358,-3.117,-3.2155,-3.2834,-3.3408,-3.3883,-3.4016,-3.4261,-3.4689,-3.483,-3.4907,-3.4927,-3.4908,-3.4945,-3.5037,-3.5073,-3.4971,0.0,0.0,0.0,1.1724,1.2804,1.3914,1.4501,0.0,1.6016,0.0,0.0,0.0,0.0,0.0,0.0,0.0,0.0,0.0,0.0,0.0,0.0,0.0,0.0,0.0,0.0,0.0,0.0,0.0,0.0,1.5671,1.5131,1.48,1.4441,1.402,1.3763,1.3515,1.3208,1.291,1.2529,1.2126,1.1578,1.1015,1.0403,0.9873,0.9354,0.8778,0.7919,0.6622,0.5105,0.4349,0.3297,0.2127,0.1285,0.028,-0.084,-0.2011,-0.3014,-0.3904,-0.4948,-0.5987,-0.7069,-0.8043,-0.9145,-1.0218,-1.1292,-1.2335,-1.3399,-1.4422,-1.5602,-1.6834,-1.7834,-1.9345,-2.0896,-2.2138,-2.2879,-2.3584,-2.465,-2.513,-2.5371,-2.5578,-2.5914,-2.6239,-2.6295,-2.6538,-2.6775,-2.6975,-2.7247,-2.7465,-2.7587,-2.7853,-2.8071,-2.8182,-2.838,-2.8851,-2.9707,-3.0027,-3.0564,-3.1427,-3.1686,-3.224,-3.3219,-3.3327,-3.3845,-3.4851,-3.5,-3.5107,-3.5209,-3.5145,-3.5108,-3.5105,-3.5223,-3.486,0.833,0.0,0.0,0.0,0.0,0.0,0.0,0.0,0.0,0.0,0.0,0.0,0.0,0.0,0.0,0.0,0.0,0.0,0.0,0.0,0.0,0.0,0.0,0.0,0.0,0.0,0.0,0.0,1.5725,1.5485,1.5119,1.4857,1.4581,1.4291,1.4233,1.3941,1.3515,1.3276,1.2997,1.2529,1.2076,1.1569,1.1015,1.0446,0.9873,0.9354,0.8514,0.7605,0.6578,0.5222,0.4012,0.2901,0.1955,0.0838,-0.0335,-0.1453,-0.2567,-0.368,-0.4677,-0.5664,-0.6756,-0.7996,-0.904,-1.0072,-1.125,-1.2433,-1.3552,-1.4422,-1.5527,-1.6666,-1.7936,-1.927,-2.0479,-2.1102,-2.2432,-2.3686,-2.428,-2.5083,-2.577,-2.5881,-2.6099,-2.6382,-2.6624,-2.6858,-2.7053,-2.731,-2.7539,-2.7748,-2.7882,-2.8109,-2.8327,-2.8406,-2.8612,-2.8852,-2.9192,-2.9926,-3.0508,-3.082,-3.1533,-3.2112,-3.25,-3.2619,-3.3127,-3.4087,-3.423,-3.4617,-3.527,-3.5254,-3.527,-3.53,-3.476,-3.441,0.7819,0.8466,0.921,1.0107,0.0,0.0,1.2546,1.3204,0.0,0.0,0.0,0.0,0.0,0.0,0.0,0.0,0.0,0.0,0.0,0.0,0.0,0.0,0.0,0.0,0.0,0.0,0.0,0.0,1.5659,1.548,1.521,1.504,1.4846,1.4605,1.4279,1.3952,1.3619,1.3155,1.2741,1.2344,1.1912,1.1477,1.0941,1.036,0.9813,0.9311,0.8568,0.7928,0.7349,0.6023,0.4776,0.368,0.2681,0.1564,0.0391,-0.0782,-0.2009,-0.3178,-0.4346,-0.5445,-0.6588,-0.7877,-0.9033,-1.0167,-1.1384,-1.2618,-1.3779,-1.4698,-1.594,-1.7146,-1.8212,-1.9195,-2.0101,-2.0871,-2.2024,-2.3117,-2.3822,-2.4844,-2.5681,-2.6068,-2.633,-2.6556,-2.6858,-2.7085,-2.7324,-2.7569,-2.7818,-2.8035,-2.8136,-2.8406,-2.8587,-2.8637,-2.881,-2.8975,-2.9067,-2.9603,-3.0012,-3.0178,-3.073,-3.126,-3.177,-3.1895,-3.2409,-3.3328,-3.3838,-3.4534,-3.5438,-3.5407,-3.5235,-3.4937,-3.448,-3.3928,0.7133,0.7839,0.8632,0.922,0.0,0.0,1.1765,1.2525,1.3175,0.0,0.0,0.0,0.0,0.0,0.0,0.0,0.0,0.0,0.0,0.0,0.0,0.0,0.0,0.0,0.0,0.0,1.6057,1.5836,1.576,1.5582,1.5357,1.521,1.504,1.4835,1.4127,1.3707,1.3608,1.2742,1.2146,1.194,1.1504,1.1053,1.0543,1.0047,0.9544,0.9036,0.8381,0.7966,0.7659,0.6662,0.5655,0.4515,0.3405,0.2347,0.1229,-0.0112,-0.1339,-0.2567,-0.3904,-0.5222,-0.6519,-0.77,-0.9013,-1.0364,-1.1616,-1.2841,-1.405,-1.5242,-1.6672,-1.7988,-1.8655,-1.9184,-1.9882,-2.1049,-2.1689,-2.2338,-2.3373,-2.4347,-2.5228,-2.5998,-2.6455,-2.6825,-2.7103,-2.7324,-2.7539,-2.7818,-2.8073,-2.8282,-2.845,-2.8662,-2.8834,-2.8834,-2.9021,-2.9156,-2.9222,-2.931,-2.9414,-2.9607,-2.9682,-3.0127,-3.104,-3.1207,-3.1675,-3.257,-3.3576,-3.4499,-3.5328,-3.5367,-3.5014,-3.4318,-3.4177,-3.3325,0.6712,0.7166,0.774,0.0,0.0,0.0,1.0263,1.0897,1.1473,0.0,0.0,0.0,0.0,0.0,0.0,0.0,0.0,0.0,0.0,0.0,0.0,0.0,0.0,0.0,0.0,0.0,1.5957,1.5792,1.576,1.5614,1.5468,1.5345,1.5025,1.449,1.4257,1.3792,1.3042,1.286,1.2563,1.2156,1.1897,1.1504,1.1062,1.0543,1.0047,0.9544,0.8896,0.8362,0.7817,0.7103,0.6283,0.5273,0.4067,0.2956,0.1898,0.0614,-0.067,-0.1955,-0.3123,-0.4498,-0.5919,-0.732,-0.8751,-1.0167,-1.1566,-1.2938,-1.4329,-1.6145,-1.734,-1.8224,-1.8945,-1.9551,-2.0131,-2.0751,-2.1628,-2.2459,-2.2946,-2.3797,-2.4572,-2.5019,-2.6073,-2.7023,-2.7373,-2.76,-2.7818,-2.8146,-2.8335,-2.8492,-2.8687,-2.8858,-2.8998,-2.9112,-2.9203,-2.9291,-2.9351,-2.9531,-2.9645,-2.9681,-2.9787,-2.9997,-3.0293,-3.0395,-3.0879,-3.1872,-3.2821,-3.343,-3.3664,-3.4302,-3.4564,-3.4429,-3.3042,-3.2241,0.0,0.0,0.0,0.7783,0.0,0.0,0.0,1.0028,1.0533,1.1108,0.0,0.0,0.0,0.0,0.0,0.0,0.0,0.0,0.0,0.0,0.0,0.0,0.0,0.0,0.0,0.0,1.5957,1.5792,1.5748,1.5703,1.5614,1.5289,1.4888,1.4459,1.3826,1.3286,1.2785,1.2392,1.2023,1.1703,1.1419,1.1092,1.0647,1.0242,0.9777,0.9323,0.8751,0.826,0.7873,0.7175,0.6623,0.611,0.486,0.379,0.2845,0.1507,0.0223,-0.1005,-0.2397,-0.3889,-0.5425,-0.6886,-0.8488,-1.0064,-1.1566,-1.3396,-1.5287,-1.6811,-1.7774,-1.8511,-1.9303,-1.9929,-2.0462,-2.0974,-2.1663,-2.2297,-2.2584,-2.3363,-2.4079,-2.4339,-2.5362,-2.6217,-2.6435,-2.6951,-2.7449,-2.7717,-2.8265,-2.8737,-2.8929,-2.9071,-2.9181,-2.9289,-2.9392,-2.9472,-2.955,-2.9664,-2.9773,-2.9805,-2.9921,-3.0049,-3.0157,-3.0247,-3.0751,-3.1733,-3.228,-3.277,-3.3195,-3.3192,-3.3227,-3.3242,-3.2356,-3.1761,0.0,0.0,0.0,0.0,0.0,0.8031,0.0,0.0,0.0,1.0292,0.0,0.0,0.0,0.0,0.0,0.0,0.0,0.0,0.0,0.0,0.0,0.0,0.0,0.0,0.0,0.0,1.5913,1.5792,1.5792,1.5792,1.5715,1.5215,1.4742,1.4413,1.3397,1.2762,1.2594,1.1897,1.1474,1.1255,1.0954,1.0611,1.0196,0.9864,0.9469,0.9088,0.8594,0.8208,0.7852,0.725,0.6942,0.6767,0.5517,0.4597,0.3793,0.24,0.1173,-0.0056,-0.1729,-0.3335,-0.4984,-0.645,-0.8416,-1.0517,-1.1944,-1.4089,-1.6238,-1.7256,-1.8108,-1.8884,-1.9681,-2.0261,-2.0845,-2.137,-2.1794,-2.2169,-2.2453,-2.3069,-2.3646,-2.385,-2.4462,-2.5085,-2.5402,-2.6171,-2.6808,-2.7018,-2.7949,-2.8691,-2.8872,-2.9156,-2.9373,-2.9453,-2.9569,-2.9664,-2.9719,-2.979,-2.9857,-2.9921,-3.0064,-3.0171,-3.0245,-3.0374,-3.0797,-3.1555,-3.1701,-3.2069,-3.2744,-3.2084,-3.1863,-3.2026,-3.1849,-3.1417,0.0,0.0,0.0,0.0,0.6923,0.0,0.0,0.0,0.8383,0.8905,0.0,0.0,0.0,0.0,0.0,0.0,0.0,0.0,0.0,0.0,0.0,0.0,0.0,0.0,0.0,0.0,0.0,1.5792,1.5792,1.5792,1.5792,1.5215,1.4672,1.4168,1.3392,1.2715,1.2169,1.1977,1.1734,1.1474,1.1266,1.0943,1.0601,1.0225,0.9873,0.9509,0.9088,0.8537,0.7972,0.7699,0.7231,0.6655,0.5824,0.5136,0.445,0.334,0.2007,0.0559,-0.0891,-0.2609,-0.4429,-0.6225,-0.9054,-1.2003,-1.3433,-1.4914,-1.6287,-1.7299,-1.8277,-1.9199,-1.9965,-2.0599,-2.1165,-2.1735,-2.2141,-2.2517,-2.2773,-2.2997,-2.3242,-2.3413,-2.3649,-2.4195,-2.5435,-2.5908,-2.6183,-2.6459,-2.7354,-2.8043,-2.8194,-2.8947,-2.9531,-2.9645,-2.9719,-2.9808,-2.9878,-2.9943,-3.0003,-3.0079,-3.0157,-3.0259,-3.0374,-3.0499,-3.0626,-3.0729,-3.0804,-3.0912,-3.107,-3.0984,-3.1325,-3.206,-3.1305,-3.0888,0.0,0.0,0.0,0.0,0.0,0.0,0.6791,0.0,0.7546,0.0,0.0,0.0,0.0,0.0,0.0,0.0,0.0,0.0,0.0,0.0,0.0,0.0,0.0,0.0,0.0,0.0,0.0,0.0,0.0,1.5748,1.5792,1.5001,1.4409,1.4125,1.3217,1.2552,1.2269,1.2089,1.1906,1.1712,1.1501,1.1228,1.0981,1.0601,1.0302,0.9991,0.9487,0.8958,0.8431,0.804,0.765,0.7212,0.6548,0.575,0.4813,0.3721,0.2554,0.1302,-0.0325,-0.2077,-0.4094,-0.7281,-1.0003,-1.2297,-1.3773,-1.5163,-1.6459,-1.7572,-1.8574,-1.95,-2.0296,-2.0975,-2.1579,-2.2119,-2.2607,-2.296,-2.3194,-2.3335,-2.3491,-2.3664,-2.3747,-2.3988,-2.4675,-2.5204,-2.5583,-2.5737,-2.662,-2.7487,-2.8128,-2.8633,-2.9156,-2.9751,-2.991,-2.9991,-3.0003,-3.0109,-3.0185,-3.0207,-3.0318,-3.0433,-3.0509,-3.0559,-3.0621,-3.0668,-3.0685,-3.0722,-3.0794,-3.0808,-3.0985,-3.1334,-3.0963,-3.0808,0.4415,0.0,0.0,0.0,0.0,0.0,0.0,0.0,0.0,0.0,0.0,0.0,0.0,0.0,0.0,0.8805,0.0,1.0274,0.0,0.0,0.0,0.0,0.0,0.0,0.0,0.0,0.0,0.0,1.5715,0.0,1.5792,1.5,1.4446,1.4181,1.3285,1.2723,1.252,1.2294,1.2138,1.2018,1.176,1.1538,1.1367,1.0992,1.0725,1.0467,0.9952,0.9509,0.9022,0.8545,0.8158,0.7809,0.7196,0.6367,0.5367,0.4217,0.3112,0.1937,0.0211,-0.1995,-0.4638,-0.8128,-1.0485,-1.2248,-1.382,-1.5252,-1.6587,-1.7814,-1.8864,-1.9778,-2.0616,-2.1305,-2.1977,-2.2502,-2.2975,-2.3348,-2.3584,-2.3735,-2.386,-2.3999,-2.4039,-2.4096,-2.4191,-2.4609,-2.4955,-2.5037,-2.5893,-2.6823,-2.7584,-2.8194,-2.882,-2.952,-2.9931,-3.0157,-3.0147,-3.026,-3.0343,-3.0355,-3.0458,-3.055,-3.0607,-3.0621,-3.0642,-3.069,-3.0716,-3.0745,-3.0808,-3.0806,-3.0794,-3.0797,-3.0797,-3.0801,0.0,0.0,0.0,0.4495,0.0,0.0,0.0,0.0,0.5246,0.0,0.0,0.0,0.0,0.0,0.7433,0.7938,0.8439,0.0,0.0,0.0,0.0,0.0,0.0,0.0,0.0,0.0,0.0,0.0,1.5715,0.0,1.5792,1.5393,1.4931,1.442,1.3861,1.3326,1.278,1.2579,1.2437,1.2365,1.2066,1.1847,1.1774,1.1367,1.1105,1.0943,1.0572,1.0137,0.9746,0.9328,0.8805,0.8218,0.7697,0.707,0.6324,0.5091,0.3807,0.2425,0.0731,-0.2517,-0.622,-0.8239,-1.0214,-1.2101,-1.3773,-1.5274,-1.6676,-1.7933,-1.9074,-2.0058,-2.0862,-2.1639,-2.233,-2.2867,-2.3224,-2.3566,-2.3917,-2.4077,-2.4192,-2.4283,-2.4389,-2.4478,-2.4495,-2.4339,-2.4284,-2.4413,-2.5277,-2.5953,-2.6051,-2.7604,-2.873,-2.8836,-2.971,-3.0305,-3.0292,-3.0352,-3.0419,-3.0481,-3.0568,-3.0595,-3.0595,-3.0661,-3.069,-3.069,-3.0753,-3.0808,-3.0802,-3.0801,-3.079,-3.0799,-3.0798,-3.0793,0.0,0.0,0.3556,0.3726,0.0,0.0,0.0,0.0,0.0,0.0,0.0,0.0,0.0,0.6167,0.6683,0.7133,0.7773,0.8316,0.0,0.0,0.0,0.0,0.0,0.0,0.0,0.0,0.0,1.4971,1.505,1.5247,0.0,1.5405,1.5113,1.4931,1.4499,1.3999,1.3472,1.3301,1.3047,1.2662,1.2365,1.2222,1.2186,1.1847,1.1616,1.1505,1.1169,1.0819,1.0552,1.0147,0.9707,0.9253,0.8691,0.8031,0.7182,0.5637,0.4322,0.2863,-0.0052,-0.2951,-0.5774,-0.7911,-0.9995,-1.1975,-1.3669,-1.5229,-1.6676,-1.8013,-1.9133,-2.0181,-2.1134,-2.189,-2.2538,-2.3135,-2.3548,-2.3923,-2.4266,-2.4442,-2.4572,-2.4678,-2.4741,-2.4756,-2.4766,-2.4741,-2.4704,-2.4613,-2.4936,-2.5401,-2.6048,-2.673,-2.765,-2.8868,-2.9348,-2.98,-3.0374,-3.0501,-3.0565,-3.0637,-3.0642,-3.0676,-3.0676,-3.0691,-3.0716,-3.0773,-3.0794,-3.0793,-3.0801,-3.0799,-3.0797,-3.0798,-3.0807,-3.0793,0.3032,0.3028,0.0,0.0,0.3066,0.0,0.3187,0.0,0.0,0.0,0.0,0.0,0.0,0.0,0.5873,0.6374,0.6972,0.7655,0.0,0.9319,0.0,0.0,0.0,0.0,0.0,0.0,1.3547,1.4304,1.4599,1.4931,0.0,0.0,1.5489,1.5294,1.5126,1.4798,1.425,1.3964,1.3643,1.3297,1.2817,1.2591,1.2579,1.2246,1.2102,1.2029,1.1726,1.1542,1.1356,1.0981,1.0629,1.0244,0.9728,0.9036,0.8179,0.6434,0.4749,0.2949,-0.0051,-0.2546,-0.4837,-0.7206,-0.9401,-1.1495,-1.3307,-1.5027,-1.6579,-1.7946,-1.9207,-2.0351,-2.1321,-2.2102,-2.278,-2.3397,-2.3844,-2.4229,-2.454,-2.4723,-2.4877,-2.4987,-2.5018,-2.5053,-2.5034,-2.508,-2.5025,-2.4808,-2.4851,-2.5129,-2.5741,-2.618,-2.6899,-2.811,-2.884,-2.9592,-3.0494,-3.061,-3.0665,-3.0724,-3.0736,-3.0742,-3.0742,-3.0734,-3.075,-3.0799,-3.0793,-3.0794,-3.0799,-3.0796,-3.0801,-3.0792,-3.0789,-3.0587]}]]